| time (UTC) | temp F | wind direction | speed knots | gust knots | rain 1hr in | rain 24hr in | rain mn in | humidity % | barometer mb |
| 20260906013103 | 91 | 251 | 2.6 | 7.0 | 0.00 | 0.00 | 0.00 | 44 | 1011.4 |
| 20260906013024 | 91 | 252 | 2.6 | 7.0 | 0.00 | 0.00 | 0.00 | 44 | 1011.3 |
| 20260906012903 | 91 | 253 | 2.6 | 7.0 | 0.00 | 0.00 | 0.00 | 44 | 1011.4 |
| 20260906012824 | 91 | 253 | 2.6 | 7.0 | 0.00 | 0.00 | 0.00 | 44 | 1011.3 |
| 20260906012703 | 91 | 254 | 2.6 | 7.0 | 0.00 | 0.00 | 0.00 | 44 | 1011.4 |
| 20260906012603 | 91 | 254 | 2.6 | 7.0 | 0.00 | 0.00 | 0.00 | 44 | 1011.4 |
| 20260906012503 | 91 | 255 | 2.6 | 7.0 | 0.00 | 0.00 | 0.00 | 44 | 1011.4 |
| 20260906012403 | 91 | 257 | 2.6 | 7.0 | 0.00 | 0.00 | 0.00 | 44 | 1011.4 |
| 20260906012306 | 91 | 258 | 2.6 | 7.0 | 0.00 | 0.00 | 0.00 | 44 | 1011.4 |
| 20260906012203 | 91 | 257 | 2.6 | 7.8 | 0.00 | 0.00 | 0.00 | 44 | 1011.3 |
| 20260906012103 | 91 | 258 | 2.6 | 7.8 | 0.00 | 0.00 | 0.00 | 44 | 1011.3 |
| 20260906012003 | 91 | 256 | 2.6 | 7.8 | 0.00 | 0.00 | 0.00 | 44 | 1011.3 |
| 20260906011903 | 91 | 257 | 2.6 | 7.8 | 0.00 | 0.00 | 0.00 | 44 | 1011.3 |
| 20260906011803 | 91 | 258 | 2.6 | 7.8 | 0.00 | 0.00 | 0.00 | 44 | 1011.3 |
| 20260906011703 | 91 | 259 | 2.6 | 7.8 | 0.00 | 0.00 | 0.00 | 44 | 1011.3 |
| 20260906011603 | 91 | 260 | 2.6 | 7.8 | 0.00 | 0.00 | 0.00 | 44 | 1011.3 |
| 20260906011504 | 91 | 260 | 3.5 | 7.8 | 0.00 | 0.00 | 0.00 | 44 | 1011.3 |
| 20260906011403 | 91 | 259 | 3.5 | 7.8 | 0.00 | 0.00 | 0.00 | 44 | 1011.3 |
| 20260906011324 | 91 | 258 | 3.5 | 7.8 | 0.00 | 0.00 | 0.00 | 44 | 1011.3 |
| 20260906011224 | 91 | 262 | 3.5 | 8.7 | 0.00 | 0.00 | 0.00 | 44 | 1011.3 |
| 20260906011124 | 92 | 261 | 3.5 | 9.6 | 0.00 | 0.00 | 0.00 | 44 | 1011.3 |
| 20260906011003 | 92 | 263 | 3.5 | 9.6 | 0.00 | 0.00 | 0.00 | 44 | 1011.3 |
| 20260906010903 | 92 | 263 | 4.3 | 9.6 | 0.00 | 0.00 | 0.00 | 44 | 1011.3 |
| 20260906010803 | 92 | 263 | 4.3 | 9.6 | 0.00 | 0.00 | 0.00 | 44 | 1011.3 |
| 20260906010724 | 92 | 263 | 4.3 | 9.6 | 0.00 | 0.00 | 0.00 | 44 | 1011.3 |
| 20260906010604 | 92 | 263 | 4.3 | 11.3 | 0.00 | 0.00 | 0.00 | 44 | 1011.3 |
| 20260906010503 | 92 | 263 | 4.3 | 11.3 | 0.00 | 0.00 | 0.00 | 44 | 1011.3 |
| 20260906010403 | 92 | 264 | 4.3 | 11.3 | 0.00 | 0.00 | 0.00 | 44 | 1011.3 |
| 20260906010303 | 92 | 264 | 4.3 | 11.3 | 0.00 | 0.00 | 0.00 | 44 | 1011.3 |
| 20260906010203 | 92 | 262 | 4.3 | 11.3 | 0.00 | 0.00 | 0.00 | 44 | 1011.2 |
| 20260906010103 | 92 | 262 | 3.5 | 11.3 | 0.00 | 0.00 | 0.00 | 44 | 1011.2 |
| 20260906010003 | 92 | 263 | 3.5 | 11.3 | 0.00 | 0.00 | 0.00 | 44 | 1011.2 |
| 20260906005925 | 92 | 261 | 3.5 | 11.3 | 0.00 | 0.00 | 0.00 | 45 | 1011.2 |
| 20260906005803 | 92 | 263 | 3.5 | 11.3 | 0.00 | 0.00 | 0.00 | 45 | 1011.3 |
| 20260906005703 | 92 | 265 | 4.3 | 11.3 | 0.00 | 0.00 | 0.00 | 45 | 1011.3 |
| 20260906005603 | 92 | 265 | 4.3 | 9.6 | 0.00 | 0.00 | 0.00 | 45 | 1011.2 |
| 20260906005503 | 92 | 265 | 4.3 | 11.3 | 0.00 | 0.00 | 0.00 | 45 | 1011.3 |
| 20260906005403 | 92 | 266 | 4.3 | 11.3 | 0.00 | 0.00 | 0.00 | 45 | 1011.3 |
| 20260906005306 | 92 | 268 | 4.3 | 11.3 | 0.00 | 0.00 | 0.00 | 45 | 1011.2 |
| 20260906005203 | 92 | 270 | 4.3 | 11.3 | 0.00 | 0.00 | 0.00 | 45 | 1011.2 |
| 20260906005124 | 92 | 272 | 4.3 | 11.3 | 0.00 | 0.00 | 0.00 | 45 | 1011.2 |
| 20260906005003 | 92 | 273 | 4.3 | 11.3 | 0.00 | 0.00 | 0.00 | 45 | 1011.2 |
| 20260906004903 | 92 | 274 | 4.3 | 11.3 | 0.00 | 0.00 | 0.00 | 45 | 1011.2 |
| 20260906004803 | 92 | 274 | 4.3 | 11.3 | 0.00 | 0.00 | 0.00 | 45 | 1011.2 |
| 20260906004703 | 93 | 272 | 4.3 | 11.3 | 0.00 | 0.00 | 0.00 | 45 | 1011.1 |
| 20260906004604 | 93 | 271 | 4.3 | 11.3 | 0.00 | 0.00 | 0.00 | 45 | 1011.2 |
| 20260906004503 | 93 | 271 | 4.3 | 8.7 | 0.00 | 0.00 | 0.00 | 45 | 1011.2 |
| 20260906004424 | 93 | 271 | 4.3 | 8.7 | 0.00 | 0.00 | 0.00 | 45 | 1011.2 |
| 20260906004324 | 93 | 267 | 4.3 | 8.7 | 0.00 | 0.00 | 0.00 | 45 | 1011.2 |
| 20260906004203 | 93 | 266 | 3.5 | 8.7 | 0.00 | 0.00 | 0.00 | 45 | 1011.2 |
| 20260906004103 | 93 | 267 | 4.3 | 8.7 | 0.00 | 0.00 | 0.00 | 45 | 1011.2 |
| 20260906004003 | 93 | 270 | 4.3 | 8.7 | 0.00 | 0.00 | 0.00 | 45 | 1011.2 |
| 20260906003903 | 93 | 271 | 4.3 | 9.6 | 0.00 | 0.00 | 0.00 | 45 | 1011.1 |
| 20260906003803 | 93 | 270 | 4.3 | 9.6 | 0.00 | 0.00 | 0.00 | 44 | 1011.2 |
| 20260906003724 | 93 | 272 | 4.3 | 9.6 | 0.00 | 0.00 | 0.00 | 44 | 1011.2 |
| 20260906003603 | 93 | 270 | 4.3 | 9.6 | 0.00 | 0.00 | 0.00 | 44 | 1011.1 |
| 20260906003503 | 93 | 269 | 4.3 | 9.6 | 0.00 | 0.00 | 0.00 | 44 | 1011.1 |
| 20260906003403 | 94 | 269 | 4.3 | 9.6 | 0.00 | 0.00 | 0.00 | 44 | 1011.1 |
| 20260906003303 | 94 | 271 | 4.3 | 9.6 | 0.00 | 0.00 | 0.00 | 44 | 1011.1 |
| 20260906003203 | 94 | 271 | 4.3 | 9.6 | 0.00 | 0.00 | 0.00 | 44 | 1011.2 |
| 20260906003103 | 94 | 268 | 4.3 | 9.6 | 0.00 | 0.00 | 0.00 | 44 | 1011.1 |
| 20260906003003 | 94 | 266 | 3.5 | 9.6 | 0.00 | 0.00 | 0.00 | 44 | 1011.1 |
| 20260906002904 | 94 | 262 | 3.5 | 8.7 | 0.00 | 0.00 | 0.00 | 44 | 1011.1 |
| 20260906002824 | 94 | 262 | 3.5 | 8.7 | 0.00 | 0.00 | 0.00 | 44 | 1011.1 |
| 20260906002703 | 94 | 261 | 3.5 | 8.7 | 0.00 | 0.00 | 0.00 | 44 | 1011.1 |
| 20260906002603 | 94 | 263 | 3.5 | 8.7 | 0.00 | 0.00 | 0.00 | 44 | 1011.1 |
| 20260906002503 | 94 | 264 | 3.5 | 8.7 | 0.00 | 0.00 | 0.00 | 44 | 1011.0 |
| 20260906002403 | 94 | 265 | 3.5 | 8.7 | 0.00 | 0.00 | 0.00 | 43 | 1011.0 |
| 20260906002306 | 94 | 264 | 3.5 | 8.7 | 0.00 | 0.00 | 0.00 | 43 | 1011.1 |
| 20260906002203 | 95 | 262 | 3.5 | 8.7 | 0.00 | 0.00 | 0.00 | 43 | 1011.0 |
| 20260906002103 | 95 | 267 | 3.5 | 7.8 | 0.00 | 0.00 | 0.00 | 43 | 1011.0 |
| 20260906002004 | 95 | 269 | 3.5 | 9.6 | 0.00 | 0.00 | 0.00 | 43 | 1011.0 |
| 20260906001903 | 95 | 268 | 3.5 | 9.6 | 0.00 | 0.00 | 0.00 | 43 | 1011.0 |
| 20260906001803 | 95 | 266 | 3.5 | 9.6 | 0.00 | 0.00 | 0.00 | 43 | 1011.0 |
| 20260906001703 | 95 | 267 | 3.5 | 9.6 | 0.00 | 0.00 | 0.00 | 43 | 1011.0 |
| 20260906001603 | 95 | 268 | 3.5 | 9.6 | 0.00 | 0.00 | 0.00 | 43 | 1011.0 |
| 20260906001503 | 95 | 268 | 3.5 | 9.6 | 0.00 | 0.00 | 0.00 | 42 | 1011.0 |
| 20260906001405 | 95 | 269 | 3.5 | 9.6 | 0.00 | 0.00 | 0.00 | 42 | 1010.9 |
| 20260906001303 | 95 | 270 | 3.5 | 9.6 | 0.00 | 0.00 | 0.00 | 43 | 1011.0 |
| 20260906001203 | 95 | 273 | 3.5 | 9.6 | 0.00 | 0.00 | 0.00 | 42 | 1010.9 |
| 20260906001103 | 95 | 269 | 2.6 | 9.6 | 0.00 | 0.00 | 0.00 | 42 | 1010.9 |
| 20260906001024 | 95 | 263 | 2.6 | 9.6 | 0.00 | 0.00 | 0.00 | 42 | 1010.9 |
| 20260906000903 | 95 | 267 | 3.5 | 9.6 | 0.00 | 0.00 | 0.00 | 42 | 1010.9 |
| 20260906000803 | 96 | 270 | 3.5 | 9.6 | 0.00 | 0.00 | 0.00 | 42 | 1010.9 |
| 20260906000703 | 96 | 270 | 2.6 | 9.6 | 0.00 | 0.00 | 0.00 | 42 | 1010.9 |
| 20260906000604 | 96 | 269 | 2.6 | 7.0 | 0.00 | 0.00 | 0.00 | 42 | 1010.9 |
| 20260906000503 | 96 | 271 | 2.6 | 7.0 | 0.00 | 0.00 | 0.00 | 42 | 1010.9 |
| 20260906000405 | 96 | 268 | 3.5 | 7.0 | 0.00 | 0.00 | 0.00 | 42 | 1010.9 |
| 20260906000304 | 96 | 266 | 3.5 | 7.0 | 0.00 | 0.00 | 0.00 | 42 | 1010.9 |
| 20260906000204 | 96 | 266 | 3.5 | 7.0 | 0.00 | 0.00 | 0.00 | 42 | 1010.9 |
| 20260906000103 | 96 | 266 | 2.6 | 6.1 | 0.00 | 0.00 | 0.00 | 41 | 1010.9 |
| 20260906000003 | 96 | 268 | 2.6 | 6.1 | 0.00 | 0.00 | 0.00 | 41 | 1010.9 |
| 20260905235924 | 96 | 264 | 2.6 | 6.1 | 0.00 | 0.00 | 0.00 | 41 | 1010.9 |
| 20260905235803 | 96 | 262 | 2.6 | 7.0 | 0.00 | 0.00 | 0.00 | 41 | 1010.8 |
| 20260905235724 | 96 | 261 | 3.5 | 7.0 | 0.00 | 0.00 | 0.00 | 41 | 1010.8 |
| 20260905235603 | 96 | 258 | 3.5 | 7.0 | 0.00 | 0.00 | 0.00 | 41 | 1010.8 |
| 20260905235524 | 96 | 256 | 3.5 | 7.0 | 0.00 | 0.00 | 0.00 | 41 | 1010.8 |
| 20260905235403 | 96 | 256 | 3.5 | 10.4 | 0.00 | 0.00 | 0.00 | 41 | 1010.8 |
| 20260905235306 | 96 | 255 | 4.3 | 10.4 | 0.00 | 0.00 | 0.00 | 41 | 1010.7 |
| 20260905235224 | 96 | 252 | 4.3 | 10.4 | 0.00 | 0.00 | 0.00 | 41 | 1010.8 |
| 20260905235103 | 96 | 249 | 5.2 | 11.3 | 0.00 | 0.00 | 0.00 | 41 | 1010.8 |
| 20260905235024 | 96 | 248 | 5.2 | 11.3 | 0.00 | 0.00 | 0.00 | 41 | 1010.8 |
| 20260905234903 | 96 | 247 | 5.2 | 11.3 | 0.00 | 0.00 | 0.00 | 41 | 1010.8 |
| 20260905234803 | 96 | 247 | 5.2 | 11.3 | 0.00 | 0.00 | 0.00 | 42 | 1010.7 |
| 20260905234703 | 96 | 245 | 5.2 | 12.2 | 0.00 | 0.00 | 0.00 | 42 | 1010.7 |
| 20260905234603 | 96 | 244 | 6.1 | 12.2 | 0.00 | 0.00 | 0.00 | 42 | 1010.7 |
| 20260905234504 | 96 | 244 | 6.1 | 12.2 | 0.00 | 0.00 | 0.00 | 42 | 1010.7 |
| 20260905234403 | 96 | 243 | 6.1 | 12.2 | 0.00 | 0.00 | 0.00 | 42 | 1010.6 |
| 20260905234303 | 96 | 245 | 6.1 | 12.2 | 0.00 | 0.00 | 0.00 | 42 | 1010.6 |
| 20260905234203 | 96 | 246 | 5.2 | 12.2 | 0.00 | 0.00 | 0.00 | 42 | 1010.6 |
| 20260905234124 | 96 | 245 | 6.1 | 12.2 | 0.00 | 0.00 | 0.00 | 42 | 1010.6 |
| 20260905234003 | 96 | 246 | 6.1 | 12.2 | 0.00 | 0.00 | 0.00 | 42 | 1010.6 |
| 20260905233903 | 96 | 247 | 6.1 | 12.2 | 0.00 | 0.00 | 0.00 | 42 | 1010.6 |
| 20260905233803 | 96 | 247 | 6.1 | 12.2 | 0.00 | 0.00 | 0.00 | 41 | 1010.6 |
| 20260905233724 | 96 | 249 | 5.2 | 11.3 | 0.00 | 0.00 | 0.00 | 41 | 1010.5 |
| 20260905233603 | 96 | 250 | 5.2 | 11.3 | 0.00 | 0.00 | 0.00 | 42 | 1010.6 |
| 20260905233524 | 96 | 252 | 5.2 | 11.3 | 0.00 | 0.00 | 0.00 | 42 | 1010.6 |
| 20260905233403 | 97 | 253 | 5.2 | 11.3 | 0.00 | 0.00 | 0.00 | 41 | 1010.6 |
| 20260905233303 | 97 | 252 | 4.3 | 11.3 | 0.00 | 0.00 | 0.00 | 41 | 1010.6 |
| 20260905233203 | 97 | 253 | 4.3 | 11.3 | 0.00 | 0.00 | 0.00 | 41 | 1010.6 |
| 20260905233124 | 97 | 253 | 4.3 | 11.3 | 0.00 | 0.00 | 0.00 | 41 | 1010.7 |
| 20260905233003 | 97 | 251 | 4.3 | 7.8 | 0.00 | 0.00 | 0.00 | 41 | 1010.6 |
| 20260905232903 | 97 | 249 | 4.3 | 9.6 | 0.00 | 0.00 | 0.00 | 41 | 1010.6 |
| 20260905232803 | 97 | 247 | 4.3 | 9.6 | 0.00 | 0.00 | 0.00 | 40 | 1010.6 |
| 20260905232703 | 97 | 246 | 4.3 | 9.6 | 0.00 | 0.00 | 0.00 | 41 | 1010.6 |
| 20260905232603 | 97 | 247 | 4.3 | 9.6 | 0.00 | 0.00 | 0.00 | 40 | 1010.6 |
| 20260905232504 | 97 | 246 | 4.3 | 9.6 | 0.00 | 0.00 | 0.00 | 41 | 1010.6 |
| 20260905232403 | 97 | 243 | 4.3 | 9.6 | 0.00 | 0.00 | 0.00 | 41 | 1010.6 |
| 20260905232324 | 97 | 244 | 4.3 | 9.6 | 0.00 | 0.00 | 0.00 | 40 | 1010.6 |
| 20260905232203 | 97 | 245 | 4.3 | 9.6 | 0.00 | 0.00 | 0.00 | 40 | 1010.6 |
| 20260905232124 | 97 | 246 | 4.3 | 9.6 | 0.00 | 0.00 | 0.00 | 40 | 1010.6 |
| 20260905232003 | 97 | 246 | 4.3 | 9.6 | 0.00 | 0.00 | 0.00 | 40 | 1010.6 |
| 20260905231924 | 97 | 245 | 4.3 | 9.6 | 0.00 | 0.00 | 0.00 | 40 | 1010.6 |
| 20260905231803 | 98 | 252 | 3.5 | 8.7 | 0.00 | 0.00 | 0.00 | 40 | 1010.6 |
| 20260905231703 | 98 | 253 | 3.5 | 8.7 | 0.00 | 0.00 | 0.00 | 40 | 1010.6 |
| 20260905231604 | 98 | 254 | 3.5 | 8.7 | 0.00 | 0.00 | 0.00 | 40 | 1010.6 |
| 20260905231503 | 98 | 255 | 3.5 | 8.7 | 0.00 | 0.00 | 0.00 | 40 | 1010.6 |
| 20260905231403 | 98 | 258 | 3.5 | 8.7 | 0.00 | 0.00 | 0.00 | 39 | 1010.6 |
| 20260905231303 | 98 | 258 | 2.6 | 8.7 | 0.00 | 0.00 | 0.00 | 39 | 1010.6 |
| 20260905231203 | 98 | 257 | 2.6 | 8.7 | 0.00 | 0.00 | 0.00 | 39 | 1010.6 |
| 20260905231103 | 98 | 259 | 2.6 | 8.7 | 0.00 | 0.00 | 0.00 | 39 | 1010.5 |
| 20260905231004 | 99 | 264 | 2.6 | 7.0 | 0.00 | 0.00 | 0.00 | 38 | 1010.5 |
| 20260905230903 | 99 | 267 | 2.6 | 5.2 | 0.00 | 0.00 | 0.00 | 38 | 1010.5 |
| 20260905230803 | 99 | 264 | 2.6 | 5.2 | 0.00 | 0.00 | 0.00 | 37 | 1010.5 |
| 20260905230703 | 99 | 266 | 2.6 | 5.2 | 0.00 | 0.00 | 0.00 | 37 | 1010.5 |
| 20260905230603 | 99 | 269 | 2.6 | 5.2 | 0.00 | 0.00 | 0.00 | 36 | 1010.5 |
| 20260905230503 | 99 | 275 | 2.6 | 6.1 | 0.00 | 0.00 | 0.00 | 37 | 1010.5 |
| 20260905230403 | 99 | 278 | 2.6 | 6.1 | 0.00 | 0.00 | 0.00 | 37 | 1010.4 |
| 20260905230324 | 99 | 278 | 2.6 | 6.1 | 0.00 | 0.00 | 0.00 | 37 | 1010.4 |
| 20260905230203 | 99 | 276 | 2.6 | 6.1 | 0.00 | 0.00 | 0.00 | 37 | 1010.4 |
| 20260905230103 | 99 | 275 | 2.6 | 6.1 | 0.00 | 0.00 | 0.00 | 36 | 1010.4 |
| 20260905230003 | 100 | 278 | 1.7 | 6.1 | 0.00 | 0.00 | 0.00 | 36 | 1010.4 |
| 20260905225903 | 100 | 279 | 1.7 | 6.1 | 0.00 | 0.00 | 0.00 | 36 | 1010.5 |
| 20260905225803 | 100 | 278 | 1.7 | 6.1 | 0.00 | 0.00 | 0.00 | 37 | 1010.5 |
| 20260905225703 | 100 | 275 | 1.7 | 6.1 | 0.00 | 0.00 | 0.00 | 36 | 1010.5 |
| 20260905225603 | 100 | 267 | 1.7 | 6.1 | 0.00 | 0.00 | 0.00 | 36 | 1010.5 |
| 20260905225503 | 100 | 258 | 2.6 | 6.1 | 0.00 | 0.00 | 0.00 | 36 | 1010.5 |
| 20260905225403 | 100 | 256 | 2.6 | 6.1 | 0.00 | 0.00 | 0.00 | 36 | 1010.5 |
| 20260905225305 | 99 | 256 | 2.6 | 7.0 | 0.00 | 0.00 | 0.00 | 36 | 1010.6 |
| 20260905225203 | 99 | 256 | 2.6 | 7.0 | 0.00 | 0.00 | 0.00 | 36 | 1010.5 |
| 20260905225103 | 99 | 256 | 3.5 | 7.0 | 0.00 | 0.00 | 0.00 | 37 | 1010.5 |
| 20260905225003 | 99 | 256 | 3.5 | 7.0 | 0.00 | 0.00 | 0.00 | 37 | 1010.6 |
| 20260905224903 | 99 | 256 | 3.5 | 7.0 | 0.00 | 0.00 | 0.00 | 37 | 1010.5 |
| 20260905224803 | 99 | 254 | 4.3 | 7.0 | 0.00 | 0.00 | 0.00 | 37 | 1010.6 |
| 20260905224703 | 99 | 253 | 4.3 | 7.0 | 0.00 | 0.00 | 0.00 | 37 | 1010.6 |
| 20260905224603 | 99 | 255 | 3.5 | 7.0 | 0.00 | 0.00 | 0.00 | 36 | 1010.6 |
| 20260905224503 | 99 | 257 | 3.5 | 7.0 | 0.00 | 0.00 | 0.00 | 36 | 1010.6 |
| 20260905224403 | 99 | 256 | 3.5 | 7.0 | 0.00 | 0.00 | 0.00 | 37 | 1010.6 |
| 20260905224303 | 99 | 254 | 3.5 | 7.0 | 0.00 | 0.00 | 0.00 | 37 | 1010.5 |
| 20260905224203 | 99 | 252 | 2.6 | 7.0 | 0.00 | 0.00 | 0.00 | 37 | 1010.5 |
| 20260905224103 | 99 | 250 | 2.6 | 7.0 | 0.00 | 0.00 | 0.00 | 37 | 1010.6 |
| 20260905224024 | 99 | 249 | 2.6 | 7.0 | 0.00 | 0.00 | 0.00 | 37 | 1010.5 |
| 20260905223903 | 99 | 244 | 2.6 | 6.1 | 0.00 | 0.00 | 0.00 | 37 | 1010.5 |
| 20260905223803 | 99 | 241 | 1.7 | 6.1 | 0.00 | 0.00 | 0.00 | 37 | 1010.5 |
| 20260905223703 | 99 | 237 | 1.7 | 6.1 | 0.00 | 0.00 | 0.00 | 37 | 1010.5 |
| 20260905223603 | 99 | 230 | 1.7 | 6.1 | 0.00 | 0.00 | 0.00 | 37 | 1010.5 |
| 20260905223503 | 99 | 217 | 1.7 | 5.2 | 0.00 | 0.00 | 0.00 | 37 | 1010.5 |
| 20260905223403 | 99 | 211 | 1.7 | 5.2 | 0.00 | 0.00 | 0.00 | 37 | 1010.5 |
| 20260905223303 | 99 | 206 | 0.9 | 5.2 | 0.00 | 0.01 | 0.00 | 37 | 1010.6 |
| 20260905223203 | 99 | 194 | 0.9 | 4.3 | 0.00 | 0.01 | 0.00 | 37 | 1010.5 |
| 20260905223103 | 99 | 190 | 0.9 | 4.3 | 0.00 | 0.01 | 0.00 | 37 | 1010.5 |
| 20260905223003 | 99 | 183 | 0.9 | 4.3 | 0.00 | 0.01 | 0.00 | 37 | 1010.6 |
| 20260905222903 | 99 | 174 | 0.9 | 4.3 | 0.00 | 0.02 | 0.00 | 37 | 1010.5 |
| 20260905222803 | 98 | 178 | 1.7 | 3.5 | 0.00 | 0.02 | 0.00 | 37 | 1010.6 |
| 20260905222703 | 98 | 186 | 1.7 | 4.3 | 0.00 | 0.02 | 0.00 | 37 | 1010.6 |
| 20260905222603 | 98 | 190 | 1.7 | 4.3 | 0.00 | 0.03 | 0.00 | 37 | 1010.6 |
| 20260905222503 | 98 | 193 | 1.7 | 4.3 | 0.00 | 0.04 | 0.00 | 37 | 1010.6 |
| 20260905222403 | 98 | 195 | 1.7 | 4.3 | 0.00 | 0.04 | 0.00 | 37 | 1010.6 |
| 20260905222306 | 97 | 197 | 2.6 | 5.2 | 0.00 | 0.04 | 0.00 | 37 | 1010.6 |
| 20260905222205 | 97 | 200 | 2.6 | 5.2 | 0.00 | 0.05 | 0.00 | 37 | 1010.6 |
| 20260905222103 | 97 | 202 | 2.6 | 5.2 | 0.00 | 0.05 | 0.00 | 37 | 1010.6 |
| 20260905222024 | 97 | 203 | 2.6 | 5.2 | 0.00 | 0.05 | 0.00 | 37 | 1010.6 |
| 20260905221903 | 97 | 207 | 2.6 | 5.2 | 0.00 | 0.05 | 0.00 | 37 | 1010.7 |
| 20260905221824 | 97 | 208 | 2.6 | 5.2 | 0.00 | 0.05 | 0.00 | 38 | 1010.7 |
| 20260905221724 | 97 | 209 | 2.6 | 5.2 | 0.00 | 0.05 | 0.00 | 38 | 1010.7 |
| 20260905221603 | 97 | 210 | 2.6 | 5.2 | 0.00 | 0.05 | 0.00 | 38 | 1010.6 |
| 20260905221525 | 97 | 210 | 2.6 | 5.2 | 0.00 | 0.05 | 0.00 | 38 | 1010.6 |
| 20260905221403 | 98 | 210 | 2.6 | 5.2 | 0.00 | 0.05 | 0.00 | 37 | 1010.7 |
| 20260905221303 | 98 | 207 | 2.6 | 5.2 | 0.00 | 0.05 | 0.00 | 37 | 1010.7 |
| 20260905221203 | 98 | 204 | 2.6 | 5.2 | 0.00 | 0.05 | 0.00 | 38 | 1010.7 |
| 20260905221103 | 98 | 203 | 2.6 | 5.2 | 0.00 | 0.05 | 0.00 | 38 | 1010.7 |
| 20260905221003 | 98 | 199 | 2.6 | 5.2 | 0.00 | 0.05 | 0.00 | 37 | 1010.7 |
| 20260905220903 | 98 | 196 | 2.6 | 5.2 | 0.00 | 0.05 | 0.00 | 37 | 1010.7 |
| 20260905220803 | 98 | 192 | 2.6 | 5.2 | 0.00 | 0.05 | 0.00 | 37 | 1010.6 |
| 20260905220703 | 98 | 193 | 2.6 | 5.2 | 0.00 | 0.05 | 0.00 | 37 | 1010.7 |
| 20260905220624 | 98 | 195 | 2.6 | 5.2 | 0.00 | 0.05 | 0.00 | 37 | 1010.7 |
| 20260905220503 | 98 | 200 | 2.6 | 5.2 | 0.00 | 0.05 | 0.00 | 37 | 1010.7 |
| 20260905220403 | 99 | 207 | 2.6 | 5.2 | 0.00 | 0.05 | 0.00 | 37 | 1010.7 |
| 20260905220303 | 99 | 215 | 2.6 | 5.2 | 0.00 | 0.05 | 0.00 | 37 | 1010.7 |
| 20260905220203 | 99 | 223 | 2.6 | 6.1 | 0.00 | 0.05 | 0.00 | 37 | 1010.7 |
| 20260905220103 | 99 | 230 | 2.6 | 6.1 | 0.00 | 0.05 | 0.00 | 37 | 1010.8 |
| 20260905220003 | 99 | 238 | 3.5 | 6.1 | 0.00 | 0.05 | 0.00 | 37 | 1010.7 |
| 20260905215903 | 99 | 244 | 3.5 | 7.0 | 0.00 | 0.05 | 0.00 | 37 | 1010.8 |
| 20260905215803 | 99 | 245 | 3.5 | 7.0 | 0.00 | 0.05 | 0.00 | 37 | 1010.8 |
| 20260905215703 | 99 | 243 | 3.5 | 7.0 | 0.00 | 0.05 | 0.00 | 37 | 1010.8 |
| 20260905215603 | 99 | 242 | 3.5 | 7.8 | 0.00 | 0.05 | 0.00 | 37 | 1010.8 |
| 20260905215524 | 99 | 241 | 3.5 | 7.8 | 0.00 | 0.05 | 0.00 | 37 | 1010.8 |
| 20260905215403 | 99 | 237 | 3.5 | 7.8 | 0.00 | 0.05 | 0.00 | 37 | 1010.8 |
| 20260905215306 | 99 | 236 | 3.5 | 7.8 | 0.00 | 0.05 | 0.00 | 37 | 1010.8 |
| 20260905215224 | 99 | 237 | 3.5 | 7.8 | 0.00 | 0.05 | 0.00 | 37 | 1010.9 |
| 20260905215103 | 99 | 236 | 3.5 | 7.8 | 0.00 | 0.05 | 0.00 | 37 | 1010.8 |
| 20260905215024 | 99 | 235 | 3.5 | 7.8 | 0.00 | 0.05 | 0.00 | 37 | 1010.8 |
| 20260905214903 | 99 | 234 | 2.6 | 7.8 | 0.00 | 0.05 | 0.00 | 37 | 1010.8 |
| 20260905214824 | 99 | 237 | 3.5 | 7.8 | 0.00 | 0.05 | 0.00 | 37 | 1010.7 |
| 20260905214703 | 99 | 239 | 2.6 | 7.8 | 0.00 | 0.05 | 0.00 | 36 | 1010.7 |
| 20260905214624 | 100 | 240 | 2.6 | 7.8 | 0.00 | 0.05 | 0.00 | 36 | 1010.7 |
| 20260905214503 | 100 | 240 | 2.6 | 6.1 | 0.00 | 0.05 | 0.00 | 36 | 1010.7 |
| 20260905214403 | 100 | 241 | 2.6 | 6.1 | 0.00 | 0.05 | 0.00 | 36 | 1010.7 |
| 20260905214303 | 100 | 239 | 2.6 | 5.2 | 0.00 | 0.05 | 0.00 | 36 | 1010.7 |
| 20260905214203 | 99 | 237 | 2.6 | 5.2 | 0.00 | 0.05 | 0.00 | 36 | 1010.7 |
| 20260905214103 | 99 | 243 | 2.6 | 5.2 | 0.00 | 0.05 | 0.00 | 36 | 1010.7 |
| 20260905214003 | 99 | 249 | 2.6 | 5.2 | 0.00 | 0.05 | 0.00 | 36 | 1010.7 |
| 20260905213903 | 99 | 257 | 2.6 | 5.2 | 0.00 | 0.05 | 0.00 | 36 | 1010.7 |
| 20260905213824 | 99 | 258 | 2.6 | 5.2 | 0.00 | 0.05 | 0.00 | 36 | 1010.7 |
| 20260905213703 | 99 | 265 | 2.6 | 5.2 | 0.00 | 0.05 | 0.00 | 36 | 1010.7 |
| 20260905213624 | 99 | 267 | 2.6 | 5.2 | 0.00 | 0.05 | 0.00 | 36 | 1010.6 |
| 20260905213525 | 99 | 272 | 2.6 | 5.2 | 0.00 | 0.05 | 0.00 | 37 | 1010.7 |
| 20260905213424 | 99 | 274 | 2.6 | 5.2 | 0.00 | 0.05 | 0.00 | 36 | 1010.7 |
| 20260905213303 | 99 | 283 | 1.7 | 5.2 | 0.00 | 0.05 | 0.00 | 36 | 1010.8 |
| 20260905213203 | 99 | 283 | 1.7 | 5.2 | 0.00 | 0.05 | 0.00 | 36 | 1010.8 |
| 20260905213103 | 99 | 276 | 2.6 | 5.2 | 0.00 | 0.05 | 0.00 | 36 | 1010.7 |
| 20260905213003 | 99 | 274 | 2.6 | 5.2 | 0.00 | 0.05 | 0.00 | 36 | 1010.8 |
| 20260905212903 | 99 | 265 | 2.6 | 5.2 | 0.00 | 0.05 | 0.00 | 37 | 1010.8 |
| 20260905212803 | 99 | 264 | 2.6 | 7.0 | 0.00 | 0.05 | 0.00 | 36 | 1010.7 |
| 20260905212703 | 99 | 263 | 2.6 | 7.0 | 0.00 | 0.05 | 0.00 | 36 | 1010.8 |
| 20260905212603 | 99 | 263 | 2.6 | 7.0 | 0.00 | 0.05 | 0.00 | 37 | 1010.8 |
| 20260905212503 | 99 | 262 | 2.6 | 7.0 | 0.00 | 0.05 | 0.00 | 36 | 1010.7 |
| 20260905212424 | 99 | 262 | 2.6 | 7.0 | 0.00 | 0.05 | 0.00 | 36 | 1010.8 |
| 20260905212306 | 99 | 261 | 2.6 | 7.0 | 0.00 | 0.05 | 0.00 | 36 | 1010.8 |
| 20260905212224 | 99 | 259 | 2.6 | 7.0 | 0.00 | 0.05 | 0.00 | 35 | 1010.9 |
| 20260905212103 | 100 | 253 | 2.6 | 7.0 | 0.00 | 0.05 | 0.00 | 35 | 1010.8 |
| 20260905212024 | 100 | 245 | 2.6 | 7.0 | 0.00 | 0.05 | 0.00 | 36 | 1010.9 |
| 20260905211924 | 100 | 240 | 2.6 | 7.0 | 0.00 | 0.05 | 0.00 | 35 | 1010.9 |
| 20260905211803 | 100 | 234 | 1.7 | 4.3 | 0.00 | 0.05 | 0.00 | 36 | 1010.9 |
| 20260905211703 | 100 | 231 | 1.7 | 4.3 | 0.00 | 0.05 | 0.00 | 36 | 1010.9 |
| 20260905211603 | 100 | 230 | 1.7 | 4.3 | 0.00 | 0.05 | 0.00 | 36 | 1011.0 |
| 20260905211503 | 99 | 226 | 1.7 | 4.3 | 0.00 | 0.05 | 0.00 | 36 | 1011.0 |
| 20260905211403 | 99 | 221 | 2.6 | 4.3 | 0.00 | 0.05 | 0.00 | 36 | 1011.0 |
| 20260905211303 | 99 | 216 | 2.6 | 4.3 | 0.00 | 0.05 | 0.00 | 36 | 1011.0 |
| 20260905211203 | 99 | 211 | 2.6 | 4.3 | 0.00 | 0.05 | 0.00 | 36 | 1011.1 |
| 20260905211103 | 99 | 209 | 2.6 | 5.2 | 0.00 | 0.05 | 0.00 | 37 | 1011.0 |
| 20260905211003 | 99 | 205 | 2.6 | 5.2 | 0.00 | 0.05 | 0.00 | 36 | 1011.1 |
| 20260905210903 | 99 | 202 | 1.7 | 5.2 | 0.00 | 0.05 | 0.00 | 36 | 1011.0 |
| 20260905210803 | 99 | 197 | 1.7 | 5.2 | 0.00 | 0.05 | 0.00 | 36 | 1011.0 |
| 20260905210703 | 99 | 181 | 1.7 | 5.2 | 0.00 | 0.05 | 0.00 | 36 | 1011.1 |
| 20260905210603 | 99 | 126 | 2.6 | 6.1 | 0.00 | 0.05 | 0.00 | 36 | 1011.1 |
| 20260905210503 | 99 | 89 | 2.6 | 6.1 | 0.00 | 0.05 | 0.00 | 36 | 1011.1 |
| 20260905210424 | 99 | 72 | 2.6 | 6.1 | 0.00 | 0.05 | 0.00 | 36 | 1011.1 |
| 20260905210303 | 100 | 53 | 2.6 | 7.8 | 0.00 | 0.05 | 0.00 | 35 | 1011.2 |
| 20260905210203 | 100 | 49 | 2.6 | 7.8 | 0.00 | 0.05 | 0.00 | 35 | 1011.2 |
| 20260905210103 | 100 | 48 | 2.6 | 7.8 | 0.00 | 0.05 | 0.00 | 35 | 1011.2 |
| 20260905210003 | 100 | 48 | 2.6 | 7.8 | 0.00 | 0.05 | 0.00 | 36 | 1011.2 |
| 20260905205904 | 99 | 48 | 2.6 | 7.8 | 0.00 | 0.05 | 0.00 | 36 | 1011.2 |
| 20260905205803 | 99 | 48 | 2.6 | 7.8 | 0.00 | 0.05 | 0.00 | 35 | 1011.2 |
| 20260905205703 | 99 | 222 | 2.6 | 7.8 | 0.00 | 0.05 | 0.00 | 35 | 1011.2 |
| 20260905205624 | 99 | 226 | 2.6 | 7.8 | 0.00 | 0.05 | 0.00 | 35 | 1011.2 |
| 20260905205503 | 99 | 229 | 2.6 | 7.8 | 0.00 | 0.05 | 0.00 | 35 | 1011.2 |
| 20260905205424 | 99 | 226 | 2.6 | 7.8 | 0.00 | 0.05 | 0.00 | 35 | 1011.2 |
| 20260905205306 | 99 | 221 | 1.7 | 4.3 | 0.00 | 0.05 | 0.00 | 36 | 1011.2 |
| 20260905205203 | 99 | 217 | 1.7 | 4.3 | 0.00 | 0.05 | 0.00 | 36 | 1011.3 |
| 20260905205103 | 99 | 215 | 1.7 | 4.3 | 0.00 | 0.05 | 0.00 | 37 | 1011.3 |
| 20260905205004 | 98 | 211 | 1.7 | 4.3 | 0.00 | 0.05 | 0.00 | 37 | 1011.4 |
| 20260905204924 | 98 | 208 | 1.7 | 4.3 | 0.00 | 0.05 | 0.00 | 37 | 1011.3 |
| 20260905204824 | 98 | 201 | 1.7 | 4.3 | 0.00 | 0.05 | 0.00 | 37 | 1011.4 |
| 20260905204724 | 98 | 195 | 1.7 | 4.3 | 0.00 | 0.05 | 0.00 | 37 | 1011.4 |
| 20260905204624 | 98 | 189 | 1.7 | 4.3 | 0.00 | 0.05 | 0.00 | 37 | 1011.4 |
| 20260905204524 | 97 | 186 | 1.7 | 4.3 | 0.00 | 0.05 | 0.00 | 38 | 1011.4 |
| 20260905204403 | 97 | 186 | 1.7 | 4.3 | 0.00 | 0.05 | 0.00 | 37 | 1011.4 |
| 20260905204303 | 97 | 183 | 1.7 | 4.3 | 0.00 | 0.05 | 0.00 | 38 | 1011.4 |
| 20260905204203 | 97 | 183 | 1.7 | 5.2 | 0.00 | 0.05 | 0.00 | 37 | 1011.5 |
| 20260905204103 | 97 | 185 | 2.6 | 5.2 | 0.00 | 0.05 | 0.00 | 38 | 1011.5 |
| 20260905204024 | 97 | 193 | 2.6 | 5.2 | 0.00 | 0.05 | 0.00 | 38 | 1011.4 |
| 20260905203903 | 97 | 204 | 2.6 | 5.2 | 0.00 | 0.05 | 0.00 | 37 | 1011.5 |
| 20260905203803 | 98 | 202 | 2.6 | 5.2 | 0.00 | 0.05 | 0.00 | 37 | 1011.5 |
| 20260905203703 | 98 | 215 | 2.6 | 5.2 | 0.00 | 0.05 | 0.00 | 37 | 1011.5 |
| 20260905203603 | 98 | 217 | 2.6 | 5.2 | 0.00 | 0.05 | 0.00 | 37 | 1011.5 |
| 20260905203503 | 98 | 227 | 2.6 | 5.2 | 0.00 | 0.05 | 0.00 | 36 | 1011.6 |
| 20260905203403 | 98 | 256 | 2.6 | 5.2 | 0.00 | 0.05 | 0.00 | 36 | 1011.6 |
| 20260905203303 | 99 | 285 | 2.6 | 5.2 | 0.00 | 0.05 | 0.00 | 36 | 1011.6 |
| 20260905203203 | 98 | 301 | 2.6 | 5.2 | 0.00 | 0.05 | 0.00 | 36 | 1011.6 |
| 20260905203105 | 98 | 303 | 2.6 | 5.2 | 0.00 | 0.05 | 0.00 | 36 | 1011.7 |
| 20260905203003 | 98 | 307 | 2.6 | 5.2 | 0.00 | 0.05 | 0.00 | 36 | 1011.7 |
| 20260905202924 | 98 | 318 | 2.6 | 5.2 | 0.00 | 0.05 | 0.00 | 36 | 1011.7 |
| 20260905202803 | 98 | 311 | 2.6 | 6.1 | 0.00 | 0.05 | 0.00 | 36 | 1011.7 |
| 20260905202703 | 98 | 311 | 2.6 | 6.1 | 0.00 | 0.05 | 0.00 | 37 | 1011.7 |
| 20260905202603 | 98 | 310 | 2.6 | 6.1 | 0.00 | 0.05 | 0.00 | 37 | 1011.7 |
| 20260905202524 | 98 | 310 | 2.6 | 6.1 | 0.00 | 0.05 | 0.00 | 36 | 1011.7 |
| 20260905202403 | 98 | 310 | 2.6 | 6.1 | 0.00 | 0.05 | 0.00 | 36 | 1011.8 |
| 20260905202306 | 98 | 311 | 2.6 | 6.1 | 0.00 | 0.05 | 0.00 | 36 | 1011.8 |
| 20260905202224 | 98 | 310 | 2.6 | 6.1 | 0.00 | 0.05 | 0.00 | 36 | 1011.8 |
| 20260905202103 | 98 | 308 | 2.6 | 6.1 | 0.00 | 0.05 | 0.00 | 36 | 1011.9 |
| 20260905202003 | 98 | 308 | 2.6 | 6.1 | 0.00 | 0.05 | 0.00 | 36 | 1011.9 |
| 20260905201924 | 98 | 312 | 2.6 | 6.1 | 0.00 | 0.05 | 0.00 | 36 | 1011.8 |
| 20260905201824 | 98 | 316 | 2.6 | 4.3 | 0.00 | 0.05 | 0.00 | 36 | 1011.9 |
| 20260905201703 | 98 | 323 | 2.6 | 4.3 | 0.00 | 0.05 | 0.00 | 36 | 1011.9 |
| 20260905201603 | 98 | 329 | 1.7 | 4.3 | 0.00 | 0.05 | 0.00 | 36 | 1011.9 |
| 20260905201503 | 98 | 340 | 1.7 | 4.3 | 0.00 | 0.05 | 0.00 | 36 | 1011.9 |
| 20260905201403 | 98 | 353 | 2.6 | 4.3 | 0.00 | 0.05 | 0.00 | 36 | 1011.9 |
| 20260905201303 | 98 | 10 | 2.6 | 4.3 | 0.00 | 0.05 | 0.00 | 36 | 1011.9 |
| 20260905201203 | 98 | 30 | 2.6 | 4.3 | 0.00 | 0.05 | 0.00 | 36 | 1011.9 |
| 20260905201124 | 99 | 38 | 2.6 | 4.3 | 0.00 | 0.05 | 0.00 | 36 | 1011.9 |
| 20260905201003 | 99 | 56 | 2.6 | 4.3 | 0.00 | 0.05 | 0.00 | 36 | 1011.9 |
| 20260905200924 | 99 | 63 | 2.6 | 6.1 | 0.00 | 0.05 | 0.00 | 35 | 1011.9 |
| 20260905200803 | 99 | 68 | 2.6 | 7.0 | 0.00 | 0.05 | 0.00 | 36 | 1012.0 |
| 20260905200703 | 98 | 69 | 2.6 | 7.0 | 0.00 | 0.05 | 0.00 | 36 | 1012.0 |
| 20260905200603 | 98 | 69 | 2.6 | 7.0 | 0.00 | 0.05 | 0.00 | 36 | 1012.0 |
| 20260905200525 | 98 | 70 | 2.6 | 7.0 | 0.00 | 0.05 | 0.00 | 36 | 1012.0 |
| 20260905200403 | 98 | 69 | 2.6 | 7.0 | 0.00 | 0.05 | 0.00 | 36 | 1012.1 |
| 20260905200326 | 98 | 69 | 2.6 | 7.0 | 0.00 | 0.05 | 0.00 | 36 | 1012.1 |
| 20260905200203 | 98 | 66 | 3.5 | 7.0 | 0.00 | 0.05 | 0.00 | 36 | 1012.1 |
| 20260905200103 | 98 | 58 | 3.5 | 7.0 | 0.00 | 0.05 | 0.00 | 36 | 1012.1 |
| 20260905200024 | 98 | 55 | 3.5 | 7.0 | 0.00 | 0.05 | 0.00 | 36 | 1012.1 |
| 20260905195903 | 98 | 46 | 2.6 | 7.0 | 0.00 | 0.05 | 0.00 | 36 | 1012.2 |
| 20260905195803 | 98 | 42 | 2.6 | 5.2 | 0.00 | 0.05 | 0.00 | 37 | 1012.2 |
| 20260905195724 | 98 | 40 | 2.6 | 5.2 | 0.00 | 0.05 | 0.00 | 36 | 1012.2 |
| 20260905195624 | 98 | 38 | 2.6 | 6.1 | 0.00 | 0.05 | 0.00 | 36 | 1012.2 |
| 20260905195524 | 98 | 39 | 2.6 | 6.1 | 0.00 | 0.05 | 0.00 | 35 | 1012.3 |
| 20260905195424 | 98 | 40 | 2.6 | 6.1 | 0.00 | 0.05 | 0.00 | 35 | 1012.3 |
| 20260905195324 | 98 | 38 | 2.6 | 6.1 | 0.00 | 0.05 | 0.00 | 35 | 1012.3 |
| 20260905195203 | 98 | 37 | 2.6 | 6.1 | 0.00 | 0.05 | 0.00 | 35 | 1012.3 |
| 20260905195103 | 98 | 46 | 2.6 | 6.1 | 0.00 | 0.05 | 0.00 | 36 | 1012.3 |
| 20260905195004 | 98 | 53 | 2.6 | 6.1 | 0.00 | 0.05 | 0.00 | 36 | 1012.3 |
| 20260905194903 | 98 | 55 | 2.6 | 6.1 | 0.00 | 0.05 | 0.00 | 36 | 1012.3 |
| 20260905194803 | 98 | 55 | 2.6 | 6.1 | 0.00 | 0.05 | 0.00 | 36 | 1012.4 |
| 20260905194703 | 98 | 53 | 2.6 | 6.1 | 0.00 | 0.05 | 0.00 | 36 | 1012.4 |
| 20260905194603 | 98 | 54 | 1.7 | 6.1 | 0.00 | 0.05 | 0.00 | 36 | 1012.3 |
| 20260905194503 | 98 | 52 | 1.7 | 6.1 | 0.00 | 0.05 | 0.00 | 36 | 1012.4 |
| 20260905194403 | 98 | 46 | 1.7 | 6.1 | 0.00 | 0.05 | 0.00 | 36 | 1012.4 |
| 20260905194303 | 97 | 44 | 1.7 | 6.1 | 0.00 | 0.05 | 0.00 | 36 | 1012.4 |
| 20260905194203 | 98 | 41 | 1.7 | 6.1 | 0.00 | 0.05 | 0.00 | 36 | 1012.4 |
| 20260905194124 | 98 | 40 | 1.7 | 6.1 | 0.00 | 0.05 | 0.00 | 36 | 1012.4 |
| 20260905194003 | 98 | 34 | 1.7 | 6.1 | 0.00 | 0.05 | 0.00 | 35 | 1012.4 |
| 20260905193903 | 98 | 34 | 1.7 | 6.1 | 0.00 | 0.05 | 0.00 | 35 | 1012.5 |
| 20260905193803 | 98 | 33 | 2.6 | 6.1 | 0.00 | 0.05 | 0.00 | 36 | 1012.4 |
| 20260905193703 | 98 | 38 | 2.6 | 7.8 | 0.00 | 0.05 | 0.00 | 36 | 1012.4 |
| 20260905193624 | 97 | 39 | 2.6 | 7.8 | 0.00 | 0.05 | 0.00 | 36 | 1012.4 |
| 20260905193504 | 97 | 42 | 2.6 | 7.8 | 0.00 | 0.05 | 0.00 | 36 | 1012.5 |
| 20260905193403 | 97 | 48 | 2.6 | 7.8 | 0.00 | 0.05 | 0.00 | 36 | 1012.5 |
| 20260905193303 | 97 | 49 | 2.6 | 7.8 | 0.00 | 0.05 | 0.00 | 35 | 1012.6 |
| 20260905193203 | 97 | 51 | 2.6 | 7.8 | 0.00 | 0.05 | 0.00 | 36 | 1012.6 |
| 20260905193103 | 97 | 53 | 2.6 | 7.8 | 0.00 | 0.05 | 0.00 | 36 | 1012.6 |
| 20260905193003 | 97 | 59 | 2.6 | 7.8 | 0.00 | 0.05 | 0.00 | 37 | 1012.6 |
| 20260905192924 | 97 | 63 | 2.6 | 7.8 | 0.00 | 0.05 | 0.00 | 36 | 1012.6 |
| 20260905192803 | 97 | 70 | 2.6 | 7.8 | 0.00 | 0.05 | 0.00 | 36 | 1012.6 |
| 20260905192703 | 97 | 70 | 2.6 | 6.1 | 0.00 | 0.05 | 0.00 | 36 | 1012.7 |
| 20260905192603 | 97 | 66 | 2.6 | 6.1 | 0.00 | 0.05 | 0.00 | 36 | 1012.7 |
| 20260905192503 | 97 | 60 | 2.6 | 6.1 | 0.00 | 0.05 | 0.00 | 37 | 1012.7 |
| 20260905192403 | 97 | 48 | 2.6 | 6.1 | 0.00 | 0.05 | 0.00 | 37 | 1012.7 |
| 20260905192324 | 96 | 44 | 2.6 | 6.1 | 0.00 | 0.05 | 0.00 | 37 | 1012.8 |
| 20260905192224 | 96 | 34 | 2.6 | 6.1 | 0.00 | 0.05 | 0.00 | 37 | 1012.8 |
| 20260905192103 | 96 | 9 | 2.6 | 6.1 | 0.00 | 0.05 | 0.00 | 37 | 1012.8 |
| 20260905192024 | 96 | 353 | 2.6 | 6.1 | 0.00 | 0.05 | 0.00 | 37 | 1012.8 |
| 20260905191903 | 96 | 343 | 1.7 | 5.2 | 0.00 | 0.05 | 0.00 | 36 | 1012.8 |
| 20260905191803 | 96 | 342 | 2.6 | 5.2 | 0.00 | 0.05 | 0.00 | 36 | 1012.8 |
| 20260905191703 | 96 | 353 | 2.6 | 6.1 | 0.00 | 0.05 | 0.00 | 36 | 1012.8 |
| 20260905191603 | 96 | 6 | 2.6 | 6.1 | 0.00 | 0.05 | 0.00 | 36 | 1012.8 |
| 20260905191524 | 97 | 16 | 2.6 | 7.8 | 0.00 | 0.05 | 0.00 | 35 | 1012.9 |
| 20260905191403 | 97 | 38 | 2.6 | 7.8 | 0.00 | 0.05 | 0.00 | 35 | 1012.9 |
| 20260905191303 | 97 | 46 | 3.5 | 7.8 | 0.00 | 0.05 | 0.00 | 35 | 1012.9 |
| 20260905191203 | 97 | 49 | 3.5 | 7.8 | 0.00 | 0.05 | 0.00 | 36 | 1012.9 |
| 20260905191103 | 97 | 51 | 3.5 | 7.8 | 0.00 | 0.05 | 0.00 | 36 | 1013.0 |
| 20260905191003 | 96 | 54 | 3.5 | 7.8 | 0.00 | 0.05 | 0.00 | 36 | 1013.0 |
| 20260905190903 | 96 | 53 | 3.5 | 7.8 | 0.00 | 0.05 | 0.00 | 36 | 1013.0 |
| 20260905190803 | 96 | 55 | 3.5 | 7.8 | 0.00 | 0.05 | 0.00 | 36 | 1013.0 |
| 20260905190703 | 96 | 57 | 4.3 | 7.8 | 0.00 | 0.05 | 0.00 | 37 | 1013.0 |
| 20260905190603 | 96 | 57 | 4.3 | 7.8 | 0.00 | 0.05 | 0.00 | 37 | 1013.0 |
| 20260905190503 | 96 | 57 | 4.3 | 8.7 | 0.00 | 0.05 | 0.00 | 36 | 1013.1 |
| 20260905190403 | 96 | 61 | 4.3 | 8.7 | 0.00 | 0.05 | 0.00 | 36 | 1013.0 |
| 20260905190303 | 96 | 66 | 4.3 | 8.7 | 0.00 | 0.05 | 0.00 | 36 | 1013.1 |
| 20260905190224 | 96 | 72 | 4.3 | 8.7 | 0.00 | 0.05 | 0.00 | 36 | 1013.1 |
| 20260905190103 | 95 | 78 | 4.3 | 8.7 | 0.00 | 0.05 | 0.00 | 36 | 1013.1 |
| 20260905190003 | 95 | 80 | 4.3 | 8.7 | 0.00 | 0.05 | 0.00 | 37 | 1013.1 |
| 20260905185903 | 95 | 80 | 4.3 | 8.7 | 0.00 | 0.05 | 0.00 | 37 | 1013.2 |
| 20260905185824 | 95 | 81 | 4.3 | 8.7 | 0.00 | 0.05 | 0.00 | 37 | 1013.1 |
| 20260905185703 | 95 | 84 | 3.5 | 8.7 | 0.00 | 0.05 | 0.00 | 37 | 1013.2 |
| 20260905185603 | 95 | 84 | 3.5 | 8.7 | 0.00 | 0.05 | 0.00 | 37 | 1013.2 |
| 20260905185503 | 95 | 89 | 3.5 | 7.8 | 0.00 | 0.05 | 0.00 | 37 | 1013.2 |
| 20260905185424 | 95 | 85 | 3.5 | 7.8 | 0.00 | 0.05 | 0.00 | 36 | 1013.2 |
| 20260905185305 | 95 | 78 | 2.6 | 7.8 | 0.00 | 0.05 | 0.00 | 36 | 1013.3 |
| 20260905185203 | 95 | 75 | 2.6 | 7.0 | 0.00 | 0.05 | 0.00 | 37 | 1013.3 |
| 20260905185124 | 95 | 73 | 2.6 | 7.0 | 0.00 | 0.05 | 0.00 | 36 | 1013.3 |
| 20260905185024 | 96 | 73 | 2.6 | 7.0 | 0.00 | 0.05 | 0.00 | 36 | 1013.3 |
| 20260905184903 | 96 | 75 | 2.6 | 6.1 | 0.00 | 0.05 | 0.00 | 36 | 1013.3 |
| 20260905184803 | 95 | 67 | 2.6 | 6.1 | 0.00 | 0.05 | 0.00 | 36 | 1013.4 |
| 20260905184703 | 95 | 60 | 2.6 | 6.1 | 0.00 | 0.05 | 0.00 | 37 | 1013.4 |
| 20260905184603 | 95 | 51 | 2.6 | 6.1 | 0.00 | 0.05 | 0.00 | 37 | 1013.4 |
| 20260905184503 | 95 | 45 | 3.5 | 7.0 | 0.00 | 0.05 | 0.00 | 37 | 1013.4 |
| 20260905184403 | 95 | 39 | 3.5 | 7.0 | 0.00 | 0.05 | 0.00 | 36 | 1013.5 |
| 20260905184303 | 95 | 30 | 3.5 | 7.0 | 0.00 | 0.05 | 0.00 | 36 | 1013.5 |
| 20260905184203 | 96 | 26 | 2.6 | 7.0 | 0.00 | 0.05 | 0.00 | 36 | 1013.5 |
| 20260905184104 | 96 | 22 | 2.6 | 7.0 | 0.00 | 0.05 | 0.00 | 36 | 1013.5 |
| 20260905184003 | 96 | 17 | 2.6 | 7.0 | 0.00 | 0.05 | 0.00 | 36 | 1013.5 |
| 20260905183903 | 96 | 3 | 2.6 | 7.0 | 0.00 | 0.05 | 0.00 | 35 | 1013.6 |
| 20260905183824 | 96 | 354 | 2.6 | 7.0 | 0.00 | 0.05 | 0.00 | 35 | 1013.6 |
| 20260905183703 | 96 | 353 | 2.6 | 7.0 | 0.00 | 0.05 | 0.00 | 35 | 1013.6 |
| 20260905183603 | 96 | 355 | 1.7 | 7.0 | 0.00 | 0.05 | 0.00 | 35 | 1013.6 |
| 20260905183503 | 96 | 351 | 1.7 | 5.2 | 0.00 | 0.05 | 0.00 | 35 | 1013.6 |
| 20260905183403 | 96 | 353 | 1.7 | 5.2 | 0.00 | 0.05 | 0.00 | 35 | 1013.6 |
| 20260905183303 | 96 | 7 | 1.7 | 5.2 | 0.00 | 0.05 | 0.00 | 35 | 1013.6 |
| 20260905183203 | 96 | 20 | 1.7 | 5.2 | 0.00 | 0.05 | 0.00 | 35 | 1013.6 |
| 20260905183103 | 96 | 27 | 1.7 | 5.2 | 0.00 | 0.05 | 0.00 | 34 | 1013.6 |
| 20260905183003 | 96 | 36 | 2.6 | 5.2 | 0.00 | 0.05 | 0.00 | 34 | 1013.8 |
| 20260905182903 | 96 | 37 | 2.6 | 7.8 | 0.00 | 0.05 | 0.00 | 34 | 1013.7 |
| 20260905182824 | 96 | 47 | 2.6 | 7.8 | 0.00 | 0.05 | 0.00 | 35 | 1013.7 |
| 20260905182703 | 96 | 45 | 3.5 | 8.7 | 0.00 | 0.05 | 0.00 | 34 | 1013.7 |
| 20260905182603 | 96 | 37 | 3.5 | 8.7 | 0.00 | 0.05 | 0.00 | 35 | 1013.7 |
| 20260905182525 | 96 | 32 | 3.5 | 8.7 | 0.00 | 0.05 | 0.00 | 35 | 1013.8 |
| 20260905182403 | 96 | 23 | 3.5 | 8.7 | 0.00 | 0.05 | 0.00 | 34 | 1013.8 |
| 20260905182305 | 96 | 18 | 2.6 | 8.7 | 0.00 | 0.05 | 0.00 | 34 | 1013.8 |
| 20260905182203 | 95 | 9 | 2.6 | 8.7 | 0.00 | 0.05 | 0.00 | 34 | 1013.8 |
| 20260905182103 | 95 | 4 | 2.6 | 8.7 | 0.00 | 0.05 | 0.00 | 34 | 1013.9 |
| 20260905182024 | 95 | 358 | 2.6 | 8.7 | 0.00 | 0.05 | 0.00 | 34 | 1013.9 |
| 20260905181903 | 95 | 343 | 2.6 | 8.7 | 0.00 | 0.05 | 0.00 | 35 | 1013.9 |
| 20260905181803 | 95 | 330 | 2.6 | 8.7 | 0.00 | 0.05 | 0.00 | 35 | 1013.9 |
| 20260905181703 | 95 | 328 | 2.6 | 6.1 | 0.00 | 0.05 | 0.00 | 35 | 1013.9 |
| 20260905181603 | 95 | 340 | 2.6 | 5.2 | 0.00 | 0.05 | 0.00 | 35 | 1014.0 |
| 20260905181503 | 95 | 352 | 2.6 | 5.2 | 0.00 | 0.05 | 0.00 | 35 | 1014.0 |
| 20260905181403 | 94 | 3 | 2.6 | 5.2 | 0.00 | 0.05 | 0.00 | 35 | 1014.0 |
| 20260905181303 | 94 | 12 | 2.6 | 5.2 | 0.00 | 0.05 | 0.00 | 34 | 1014.0 |
| 20260905181203 | 95 | 20 | 2.6 | 5.2 | 0.00 | 0.05 | 0.00 | 34 | 1014.0 |
| 20260905181124 | 95 | 23 | 2.6 | 5.2 | 0.00 | 0.05 | 0.00 | 34 | 1014.0 |
| 20260905181003 | 95 | 33 | 2.6 | 5.2 | 0.00 | 0.05 | 0.00 | 34 | 1014.1 |
| 20260905180903 | 95 | 40 | 2.6 | 5.2 | 0.00 | 0.05 | 0.00 | 34 | 1014.1 |
| 20260905180803 | 95 | 47 | 2.6 | 5.2 | 0.00 | 0.05 | 0.00 | 33 | 1014.0 |
| 20260905180703 | 94 | 47 | 2.6 | 5.2 | 0.00 | 0.05 | 0.00 | 34 | 1014.1 |
| 20260905180603 | 94 | 47 | 1.7 | 4.3 | 0.00 | 0.05 | 0.00 | 33 | 1014.1 |
| 20260905180524 | 94 | 45 | 1.7 | 4.3 | 0.00 | 0.05 | 0.00 | 33 | 1014.1 |
| 20260905180403 | 94 | 42 | 1.7 | 4.3 | 0.00 | 0.05 | 0.00 | 33 | 1014.2 |
| 20260905180304 | 94 | 39 | 1.7 | 4.3 | 0.00 | 0.05 | 0.00 | 33 | 1014.2 |
| 20260905180224 | 94 | 37 | 1.7 | 4.3 | 0.00 | 0.05 | 0.00 | 33 | 1014.2 |
| 20260905180124 | 94 | 36 | 2.6 | 4.3 | 0.00 | 0.05 | 0.00 | 33 | 1014.2 |
| 20260905180003 | 94 | 31 | 2.6 | 9.6 | 0.00 | 0.05 | 0.00 | 33 | 1014.3 |
| 20260905175924 | 94 | 32 | 2.6 | 9.6 | 0.00 | 0.05 | 0.00 | 33 | 1014.3 |
| 20260905175803 | 94 | 33 | 2.6 | 9.6 | 0.00 | 0.05 | 0.00 | 33 | 1014.3 |
| 20260905175703 | 94 | 33 | 3.5 | 9.6 | 0.00 | 0.05 | 0.00 | 33 | 1014.4 |
| 20260905175603 | 94 | 35 | 3.5 | 9.6 | 0.00 | 0.05 | 0.00 | 33 | 1014.4 |
| 20260905175503 | 94 | 36 | 4.3 | 9.6 | 0.00 | 0.05 | 0.00 | 32 | 1014.4 |
| 20260905175404 | 94 | 37 | 4.3 | 9.6 | 0.00 | 0.05 | 0.00 | 32 | 1014.4 |
| 20260905175306 | 94 | 37 | 4.3 | 9.6 | 0.00 | 0.05 | 0.00 | 32 | 1014.5 |
| 20260905175224 | 94 | 37 | 4.3 | 9.6 | 0.00 | 0.05 | 0.00 | 32 | 1014.5 |
| 20260905175124 | 94 | 36 | 4.3 | 9.6 | 0.00 | 0.05 | 0.00 | 32 | 1014.6 |
| 20260905175003 | 94 | 42 | 4.3 | 8.7 | 0.00 | 0.05 | 0.00 | 32 | 1014.6 |
| 20260905174903 | 94 | 45 | 4.3 | 8.7 | 0.00 | 0.05 | 0.00 | 32 | 1014.6 |
| 20260905174803 | 94 | 47 | 3.5 | 8.7 | 0.00 | 0.05 | 0.00 | 31 | 1014.6 |
| 20260905174703 | 94 | 54 | 3.5 | 8.7 | 0.00 | 0.05 | 0.00 | 31 | 1014.6 |
| 20260905174603 | 94 | 56 | 2.6 | 8.7 | 0.00 | 0.05 | 0.00 | 30 | 1014.6 |
| 20260905174503 | 94 | 64 | 2.6 | 6.1 | 0.00 | 0.05 | 0.00 | 30 | 1014.6 |
| 20260905174403 | 94 | 68 | 2.6 | 6.1 | 0.00 | 0.05 | 0.00 | 30 | 1014.6 |
| 20260905174303 | 94 | 73 | 2.6 | 6.1 | 0.00 | 0.05 | 0.00 | 30 | 1014.7 |
| 20260905174203 | 94 | 79 | 2.6 | 6.1 | 0.00 | 0.05 | 0.00 | 30 | 1014.7 |
| 20260905174103 | 94 | 80 | 2.6 | 6.1 | 0.00 | 0.05 | 0.00 | 30 | 1014.7 |
| 20260905174024 | 93 | 81 | 2.6 | 6.1 | 0.00 | 0.05 | 0.00 | 29 | 1014.7 |
| 20260905173903 | 93 | 81 | 2.6 | 6.1 | 0.00 | 0.05 | 0.00 | 29 | 1014.6 |
| 20260905173803 | 93 | 80 | 2.6 | 7.0 | 0.00 | 0.05 | 0.00 | 29 | 1014.7 |
| 20260905173703 | 92 | 79 | 2.6 | 7.0 | 0.00 | 0.05 | 0.00 | 29 | 1014.8 |
| 20260905173603 | 92 | 78 | 2.6 | 7.0 | 0.00 | 0.05 | 0.00 | 29 | 1014.7 |
| 20260905173503 | 92 | 77 | 2.6 | 7.0 | 0.00 | 0.05 | 0.00 | 29 | 1014.8 |
| 20260905173403 | 92 | 73 | 2.6 | 7.0 | 0.00 | 0.05 | 0.00 | 29 | 1014.8 |
| 20260905173303 | 92 | 54 | 2.6 | 7.0 | 0.00 | 0.05 | 0.00 | 29 | 1014.7 |
| 20260905173203 | 92 | 280 | 2.6 | 7.0 | 0.00 | 0.05 | 0.00 | 29 | 1014.7 |
| 20260905173103 | 92 | 274 | 2.6 | 7.0 | 0.00 | 0.05 | 0.00 | 29 | 1014.7 |
| 20260905173003 | 92 | 280 | 2.6 | 7.0 | 0.00 | 0.05 | 0.00 | 29 | 1014.7 |
| 20260905172924 | 92 | 281 | 2.6 | 7.0 | 0.00 | 0.05 | 0.00 | 29 | 1014.7 |
| 20260905172803 | 92 | 286 | 2.6 | 7.0 | 0.00 | 0.05 | 0.00 | 28 | 1014.7 |
| 20260905172724 | 92 | 321 | 2.6 | 8.7 | 0.00 | 0.05 | 0.00 | 28 | 1014.8 |
| 20260905172603 | 92 | 14 | 3.5 | 8.7 | 0.00 | 0.05 | 0.00 | 27 | 1014.8 |
| 20260905172524 | 92 | 32 | 3.5 | 8.7 | 0.00 | 0.05 | 0.00 | 28 | 1014.8 |
| 20260905172403 | 92 | 46 | 3.5 | 8.7 | 0.00 | 0.05 | 0.00 | 28 | 1014.8 |
| 20260905172305 | 92 | 50 | 3.5 | 8.7 | 0.00 | 0.05 | 0.00 | 27 | 1014.8 |
| 20260905172203 | 92 | 55 | 3.5 | 8.7 | 0.00 | 0.05 | 0.00 | 27 | 1014.9 |
| 20260905172124 | 92 | 58 | 3.5 | 8.7 | 0.00 | 0.05 | 0.00 | 27 | 1014.9 |
| 20260905172003 | 92 | 63 | 4.3 | 8.7 | 0.00 | 0.05 | 0.00 | 27 | 1014.9 |
| 20260905171903 | 91 | 63 | 4.3 | 8.7 | 0.00 | 0.05 | 0.00 | 27 | 1015.0 |
| 20260905171803 | 91 | 63 | 3.5 | 8.7 | 0.00 | 0.05 | 0.00 | 27 | 1014.9 |
| 20260905171703 | 91 | 63 | 3.5 | 8.7 | 0.00 | 0.05 | 0.00 | 26 | 1014.9 |
| 20260905171603 | 91 | 64 | 3.5 | 8.7 | 0.00 | 0.05 | 0.00 | 26 | 1014.9 |
| 20260905171524 | 91 | 64 | 3.5 | 8.7 | 0.00 | 0.05 | 0.00 | 26 | 1014.9 |
| 20260905171403 | 91 | 59 | 3.5 | 7.0 | 0.00 | 0.05 | 0.00 | 26 | 1015.0 |
| 20260905171303 | 91 | 57 | 3.5 | 7.8 | 0.00 | 0.05 | 0.00 | 26 | 1015.0 |
| 20260905171224 | 91 | 54 | 3.5 | 8.7 | 0.00 | 0.05 | 0.00 | 26 | 1015.0 |
| 20260905171103 | 91 | 47 | 4.3 | 8.7 | 0.00 | 0.05 | 0.00 | 25 | 1015.0 |
| 20260905171003 | 91 | 44 | 3.5 | 8.7 | 0.00 | 0.05 | 0.00 | 25 | 1015.1 |
| 20260905170903 | 91 | 43 | 4.3 | 8.7 | 0.00 | 0.05 | 0.00 | 25 | 1015.1 |
| 20260905170803 | 91 | 43 | 3.5 | 8.7 | 0.00 | 0.05 | 0.00 | 25 | 1015.1 |
| 20260905170703 | 91 | 42 | 3.5 | 8.7 | 0.00 | 0.05 | 0.00 | 24 | 1015.1 |
| 20260905170624 | 91 | 43 | 3.5 | 8.7 | 0.00 | 0.05 | 0.00 | 24 | 1015.2 |
| 20260905170503 | 92 | 44 | 3.5 | 8.7 | 0.00 | 0.05 | 0.00 | 24 | 1015.1 |
| 20260905170403 | 92 | 46 | 3.5 | 8.7 | 0.00 | 0.05 | 0.00 | 23 | 1015.1 |
| 20260905170304 | 92 | 46 | 2.6 | 8.7 | 0.00 | 0.05 | 0.00 | 23 | 1015.1 |
| 20260905170203 | 92 | 52 | 2.6 | 8.7 | 0.00 | 0.05 | 0.00 | 23 | 1015.1 |
| 20260905170003 | 92 | 58 | 2.6 | 8.7 | 0.00 | 0.05 | 0.00 | 23 | 1015.2 |
| 20260905165903 | 91 | 61 | 3.5 | 8.7 | 0.00 | 0.05 | 0.00 | 23 | 1015.2 |
| 20260905165803 | 91 | 59 | 3.5 | 8.7 | 0.00 | 0.05 | 0.00 | 22 | 1015.2 |
| 20260905165703 | 91 | 59 | 4.3 | 8.7 | 0.00 | 0.05 | 0.00 | 22 | 1015.2 |
| 20260905165603 | 91 | 56 | 4.3 | 9.6 | 0.00 | 0.05 | 0.00 | 21 | 1015.2 |
| 20260905165524 | 91 | 56 | 4.3 | 9.6 | 0.00 | 0.05 | 0.00 | 22 | 1015.2 |
| 20260905165424 | 91 | 55 | 4.3 | 9.6 | 0.00 | 0.05 | 0.00 | 22 | 1015.3 |
| 20260905165306 | 91 | 52 | 4.3 | 9.6 | 0.00 | 0.05 | 0.00 | 21 | 1015.2 |
| 20260905165224 | 91 | 52 | 3.5 | 9.6 | 0.00 | 0.05 | 0.00 | 21 | 1015.2 |
| 20260905165103 | 91 | 47 | 4.3 | 9.6 | 0.00 | 0.05 | 0.00 | 21 | 1015.2 |
| 20260905165024 | 91 | 44 | 4.3 | 9.6 | 0.00 | 0.05 | 0.00 | 20 | 1015.2 |
| 20260905164903 | 91 | 41 | 4.3 | 9.6 | 0.00 | 0.05 | 0.00 | 20 | 1015.2 |
| 20260905164803 | 91 | 41 | 4.3 | 9.6 | 0.00 | 0.05 | 0.00 | 19 | 1015.2 |
| 20260905164703 | 91 | 41 | 3.5 | 9.6 | 0.00 | 0.05 | 0.00 | 19 | 1015.2 |
| 20260905164603 | 91 | 42 | 3.5 | 8.7 | 0.00 | 0.05 | 0.00 | 19 | 1015.1 |
| 20260905164503 | 91 | 43 | 3.5 | 8.7 | 0.00 | 0.05 | 0.00 | 19 | 1015.2 |
| 20260905164403 | 90 | 44 | 4.3 | 8.7 | 0.00 | 0.05 | 0.00 | 19 | 1015.1 |
| 20260905164324 | 90 | 45 | 4.3 | 8.7 | 0.00 | 0.05 | 0.00 | 19 | 1015.2 |
| 20260905164203 | 90 | 46 | 4.3 | 8.7 | 0.00 | 0.05 | 0.00 | 18 | 1015.2 |
| 20260905164103 | 90 | 47 | 4.3 | 10.4 | 0.00 | 0.05 | 0.00 | 17 | 1015.2 |
| 20260905164003 | 90 | 50 | 4.3 | 10.4 | 0.00 | 0.05 | 0.00 | 16 | 1015.2 |
| 20260905163903 | 90 | 48 | 4.3 | 10.4 | 0.00 | 0.05 | 0.00 | 15 | 1015.2 |
| 20260905163803 | 90 | 48 | 3.5 | 10.4 | 0.00 | 0.05 | 0.00 | 15 | 1015.1 |
| 20260905163724 | 90 | 49 | 3.5 | 10.4 | 0.00 | 0.05 | 0.00 | 15 | 1015.1 |
| 20260905163603 | 90 | 48 | 3.5 | 10.4 | 0.00 | 0.05 | 0.00 | 12 | 1015.1 |
| 20260905163503 | 90 | 48 | 3.5 | 10.4 | 0.00 | 0.05 | 0.00 | 13 | 1015.2 |
| 20260905163403 | 90 | 45 | 3.5 | 10.4 | 0.00 | 0.05 | 0.00 | 13 | 1015.2 |
| 20260905163303 | 90 | 44 | 3.5 | 10.4 | 0.00 | 0.05 | 0.00 | 13 | 1015.1 |
| 20260905163203 | 90 | 45 | 3.5 | 10.4 | 0.00 | 0.05 | 0.00 | 13 | 1015.1 |
| 20260905163103 | 90 | 46 | 2.6 | 7.8 | 0.00 | 0.05 | 0.00 | 12 | 1015.1 |
| 20260905163003 | 90 | 47 | 3.5 | 7.8 | 0.00 | 0.05 | 0.00 | 12 | 1015.1 |
| 20260905162903 | 90 | 53 | 3.5 | 7.8 | 0.00 | 0.05 | 0.00 | 10 | 1015.1 |
| 20260905162803 | 89 | 55 | 3.5 | 7.8 | 0.00 | 0.05 | 0.00 | 9 | 1015.2 |
| 20260905162703 | 89 | 55 | 4.3 | 7.8 | 0.00 | 0.05 | 0.00 | 10 | 1015.1 |
| 20260905162603 | 89 | 56 | 4.3 | 7.8 | 0.00 | 0.05 | 0.00 | 10 | 1015.1 |
| 20260905162503 | 90 | 58 | 4.3 | 7.8 | 0.00 | 0.05 | 0.00 | 11 | 1015.2 |
| 20260905162403 | 90 | 61 | 4.3 | 7.8 | 0.00 | 0.05 | 0.00 | 9 | 1015.1 |
| 20260905162305 | 89 | 62 | 4.3 | 9.6 | 0.00 | 0.05 | 0.00 | 8 | 1015.1 |
| 20260905162203 | 89 | 61 | 4.3 | 9.6 | 0.00 | 0.05 | 0.00 | 8 | 1015.1 |
| 20260905162103 | 89 | 61 | 4.3 | 9.6 | 0.00 | 0.05 | 0.00 | 9 | 1015.1 |
| 20260905162003 | 89 | 61 | 4.3 | 9.6 | 0.00 | 0.05 | 0.00 | 9 | 1015.1 |
| 20260905161903 | 89 | 57 | 4.3 | 9.6 | 0.00 | 0.05 | 0.00 | 8 | 1015.1 |
| 20260905161824 | 89 | 56 | 4.3 | 9.6 | 0.00 | 0.05 | 0.00 | 10 | 1015.1 |
| 20260905161703 | 89 | 54 | 4.3 | 9.6 | 0.00 | 0.05 | 0.00 | 9 | 1015.1 |
| 20260905161603 | 89 | 50 | 4.3 | 10.4 | 0.00 | 0.05 | 0.00 | 10 | 1015.2 |
| 20260905161524 | 89 | 48 | 4.3 | 10.4 | 0.00 | 0.05 | 0.00 | 9 | 1015.2 |
| 20260905161403 | 90 | 44 | 4.3 | 10.4 | 0.00 | 0.05 | 0.00 | 7 | 1015.2 |
| 20260905161303 | 89 | 41 | 4.3 | 10.4 | 0.00 | 0.05 | 0.00 | 8 | 1015.2 |
| 20260905161203 | 89 | 43 | 4.3 | 10.4 | 0.00 | 0.05 | 0.00 | 7 | 1015.2 |
| 20260905161103 | 89 | 43 | 4.3 | 10.4 | 0.00 | 0.05 | 0.00 | 7 | 1015.2 |
| 20260905161003 | 89 | 44 | 5.2 | 10.4 | 0.00 | 0.05 | 0.00 | 7 | 1015.2 |
| 20260905160903 | 89 | 43 | 5.2 | 10.4 | 0.00 | 0.05 | 0.00 | 8 | 1015.2 |
| 20260905160803 | 89 | 39 | 5.2 | 10.4 | 0.00 | 0.05 | 0.00 | 8 | 1015.2 |
| 20260905160703 | 89 | 37 | 5.2 | 10.4 | 0.00 | 0.05 | 0.00 | 8 | 1015.2 |
| 20260905160603 | 89 | 38 | 4.3 | 8.7 | 0.00 | 0.05 | 0.00 | 8 | 1015.2 |
| 20260905160503 | 89 | 39 | 4.3 | 8.7 | 0.00 | 0.05 | 0.00 | 8 | 1015.2 |
| 20260905160403 | 89 | 37 | 4.3 | 7.8 | 0.00 | 0.05 | 0.00 | 6 | 1015.2 |
| 20260905160304 | 89 | 33 | 4.3 | 7.8 | 0.00 | 0.05 | 0.00 | 6 | 1015.3 |
| 20260905160203 | 89 | 31 | 4.3 | 7.8 | 0.00 | 0.05 | 0.00 | 6 | 1015.3 |
| 20260905160003 | 89 | 32 | 4.3 | 8.7 | 0.00 | 0.05 | 0.00 | 5 | 1015.3 |
| 20260905155903 | 89 | 37 | 4.3 | 8.7 | 0.00 | 0.05 | 0.00 | 4 | 1015.2 |
| 20260905155803 | 89 | 41 | 4.3 | 8.7 | 0.00 | 0.05 | 0.00 | 3 | 1015.2 |
| 20260905155703 | 89 | 45 | 4.3 | 8.7 | 0.00 | 0.05 | 0.00 | 1 | 1015.2 |
| 20260905155604 | 89 | 48 | 4.3 | 8.7 | 0.00 | 0.05 | 0.00 | 1 | 1015.2 |
| 20260905155524 | 89 | 46 | 3.5 | 8.7 | 0.00 | 0.05 | 0.00 | 1 | 1015.2 |
| 20260905155403 | 89 | 50 | 3.5 | 8.7 | 0.00 | 0.05 | 0.00 | 1 | 1015.2 |
| 20260905155306 | 89 | 54 | 3.5 | 8.7 | 0.00 | 0.05 | 0.00 | 1 | 1015.2 |
| 20260905155224 | 89 | 55 | 3.5 | 8.7 | 0.00 | 0.05 | 0.00 | 1 | 1015.2 |
| 20260905155103 | 89 | 55 | 2.6 | 7.8 | 0.00 | 0.05 | 0.00 | 1 | 1015.2 |
| 20260905155024 | 89 | 55 | 2.6 | 7.0 | 0.00 | 0.05 | 0.00 | 1 | 1015.2 |
| 20260905154903 | 89 | 51 | 2.6 | 7.0 | 0.00 | 0.05 | 0.00 | 1 | 1015.2 |
| 20260905154803 | 88 | 47 | 2.6 | 7.0 | 0.00 | 0.05 | 0.00 | 1 | 1015.2 |
| 20260905154703 | 88 | 44 | 2.6 | 7.0 | 0.00 | 0.05 | 0.00 | 1 | 1015.2 |
| 20260905154603 | 88 | 42 | 2.6 | 5.2 | 0.00 | 0.05 | 0.00 | 1 | 1015.2 |
| 20260905154503 | 88 | 43 | 2.6 | 7.8 | 0.00 | 0.05 | 0.00 | 1 | 1015.2 |
| 20260905154403 | 88 | 46 | 2.6 | 7.8 | 0.00 | 0.05 | 0.00 | 1 | 1015.2 |
| 20260905154324 | 88 | 46 | 3.5 | 7.8 | 0.00 | 0.05 | 0.00 | 1 | 1015.2 |
| 20260905154203 | 88 | 46 | 3.5 | 7.8 | 0.00 | 0.05 | 0.00 | 1 | 1015.2 |
| 20260905154103 | 87 | 43 | 4.3 | 8.7 | 0.00 | 0.05 | 0.00 | 1 | 1015.2 |
| 20260905154024 | 87 | 43 | 4.3 | 8.7 | 0.00 | 0.05 | 0.00 | 1 | 1015.1 |
| 20260905153903 | 87 | 46 | 5.2 | 8.7 | 0.00 | 0.05 | 0.00 | 1 | 1015.2 |
| 20260905153803 | 87 | 47 | 5.2 | 9.6 | 0.00 | 0.05 | 0.00 | 1 | 1015.2 |
| 20260905153703 | 87 | 47 | 5.2 | 9.6 | 0.00 | 0.05 | 0.00 | 1 | 1015.2 |
| 20260905153624 | 87 | 47 | 5.2 | 9.6 | 0.00 | 0.05 | 0.00 | 1 | 1015.2 |
| 20260905153503 | 87 | 46 | 4.3 | 9.6 | 0.00 | 0.05 | 0.00 | 1 | 1015.2 |
| 20260905153424 | 87 | 44 | 5.2 | 9.6 | 0.00 | 0.05 | 0.00 | 1 | 1015.2 |
| 20260905153324 | 87 | 41 | 5.2 | 9.6 | 0.00 | 0.05 | 0.00 | 1 | 1015.2 |
| 20260905153203 | 87 | 41 | 4.3 | 9.6 | 0.00 | 0.05 | 0.00 | 1 | 1015.2 |
| 20260905153103 | 87 | 45 | 4.3 | 9.6 | 0.00 | 0.05 | 0.00 | 1 | 1015.2 |
| 20260905153003 | 87 | 44 | 4.3 | 9.6 | 0.00 | 0.05 | 0.00 | 1 | 1015.2 |
| 20260905152903 | 87 | 40 | 4.3 | 9.6 | 0.00 | 0.05 | 0.00 | 1 | 1015.2 |
| 20260905152803 | 87 | 38 | 3.5 | 8.7 | 0.00 | 0.05 | 0.00 | 1 | 1015.2 |
| 20260905152703 | 87 | 38 | 4.3 | 8.7 | 0.00 | 0.05 | 0.00 | 1 | 1015.1 |
| 20260905152603 | 87 | 38 | 4.3 | 8.7 | 0.00 | 0.05 | 0.00 | 1 | 1015.1 |
| 20260905152503 | 87 | 39 | 4.3 | 8.7 | 0.00 | 0.05 | 0.00 | 1 | 1015.2 |
| 20260905152403 | 87 | 40 | 4.3 | 9.6 | 0.00 | 0.05 | 0.00 | 1 | 1015.2 |
| 20260905152306 | 87 | 41 | 4.3 | 9.6 | 0.00 | 0.05 | 0.00 | 1 | 1015.2 |
| 20260905152224 | 87 | 39 | 4.3 | 9.6 | 0.00 | 0.05 | 0.00 | 1 | 1015.2 |
| 20260905152124 | 87 | 39 | 4.3 | 9.6 | 0.00 | 0.05 | 0.00 | 1 | 1015.2 |
| 20260905152003 | 86 | 41 | 4.3 | 9.6 | 0.00 | 0.05 | 0.00 | 1 | 1015.2 |
| 20260905151903 | 86 | 42 | 4.3 | 9.6 | 0.00 | 0.05 | 0.00 | 1 | 1015.3 |
| 20260905151803 | 86 | 44 | 4.3 | 9.6 | 0.00 | 0.05 | 0.00 | 1 | 1015.2 |
| 20260905151703 | 86 | 49 | 4.3 | 9.6 | 0.00 | 0.05 | 0.00 | 1 | 1015.2 |
| 20260905151603 | 86 | 53 | 4.3 | 9.6 | 0.00 | 0.05 | 0.00 | 1 | 1015.2 |
| 20260905151503 | 86 | 56 | 4.3 | 9.6 | 0.00 | 0.05 | 0.00 | 1 | 1015.2 |
| 20260905151403 | 86 | 57 | 4.3 | 7.8 | 0.00 | 0.05 | 0.00 | 1 | 1015.2 |
| 20260905151303 | 86 | 58 | 4.3 | 7.0 | 0.00 | 0.05 | 0.00 | 1 | 1015.2 |
| 20260905151203 | 86 | 61 | 4.3 | 7.0 | 0.00 | 0.05 | 0.00 | 1 | 1015.2 |
| 20260905151103 | 86 | 61 | 4.3 | 7.0 | 0.00 | 0.05 | 0.00 | 1 | 1015.2 |
| 20260905151003 | 86 | 60 | 4.3 | 7.0 | 0.00 | 0.05 | 0.00 | 1 | 1015.2 |
| 20260905150903 | 86 | 62 | 4.3 | 7.8 | 0.00 | 0.05 | 0.00 | 1 | 1015.3 |
| 20260905150824 | 86 | 64 | 4.3 | 7.8 | 0.00 | 0.05 | 0.00 | 1 | 1015.3 |
| 20260905150703 | 86 | 61 | 4.3 | 7.8 | 0.00 | 0.05 | 0.00 | 1 | 1015.3 |
| 20260905150603 | 86 | 59 | 4.3 | 7.8 | 0.00 | 0.05 | 0.00 | 1 | 1015.3 |
| 20260905150503 | 86 | 58 | 4.3 | 7.8 | 0.00 | 0.05 | 0.00 | 1 | 1015.2 |
| 20260905150403 | 86 | 60 | 3.5 | 7.8 | 0.00 | 0.05 | 0.00 | 1 | 1015.2 |
| 20260905150303 | 86 | 62 | 3.5 | 7.8 | 0.00 | 0.05 | 0.00 | 1 | 1015.2 |
| 20260905150203 | 86 | 63 | 3.5 | 7.8 | 0.00 | 0.05 | 0.00 | 1 | 1015.2 |
| 20260905150003 | 86 | 67 | 2.6 | 7.8 | 0.00 | 0.05 | 0.00 | 1 | 1015.2 |
| 20260905145903 | 86 | 66 | 2.6 | 7.8 | 0.00 | 0.05 | 0.00 | 1 | 1015.2 |
| 20260905145824 | 87 | 66 | 1.7 | 7.8 | 0.00 | 0.05 | 0.00 | 1 | 1015.2 |
| 20260905145703 | 87 | 66 | 1.7 | 4.3 | 0.00 | 0.05 | 0.00 | 1 | 1015.2 |
| 20260905145603 | 86 | 66 | 1.7 | 4.3 | 0.00 | 0.05 | 0.00 | 1 | 1015.2 |
| 20260905145503 | 86 | 66 | 1.7 | 4.3 | 0.00 | 0.05 | 0.00 | 1 | 1015.2 |
| 20260905145424 | 86 | 64 | 1.7 | 4.3 | 0.00 | 0.05 | 0.00 | 1 | 1015.2 |
| 20260905145306 | 86 | 60 | 1.7 | 5.2 | 0.00 | 0.05 | 0.00 | 1 | 1015.2 |
| 20260905145203 | 86 | 57 | 2.6 | 5.2 | 0.00 | 0.05 | 0.00 | 1 | 1015.2 |
| 20260905145103 | 86 | 53 | 1.7 | 5.2 | 0.00 | 0.05 | 0.00 | 1 | 1015.2 |
| 20260905145003 | 86 | 50 | 1.7 | 5.2 | 0.00 | 0.05 | 0.00 | 1 | 1015.2 |
| 20260905144903 | 85 | 45 | 2.6 | 5.2 | 0.00 | 0.05 | 0.00 | 1 | 1015.2 |
| 20260905144803 | 85 | 42 | 2.6 | 6.1 | 0.00 | 0.05 | 0.00 | 1 | 1015.1 |
| 20260905144703 | 85 | 42 | 2.6 | 6.1 | 0.00 | 0.05 | 0.00 | 1 | 1015.2 |
| 20260905144603 | 85 | 43 | 2.6 | 6.1 | 0.00 | 0.05 | 0.00 | 1 | 1015.1 |
| 20260905144503 | 85 | 42 | 2.6 | 6.1 | 0.00 | 0.05 | 0.00 | 1 | 1015.1 |
| 20260905144403 | 85 | 44 | 2.6 | 6.1 | 0.00 | 0.05 | 0.00 | 1 | 1015.2 |
| 20260905144303 | 85 | 46 | 2.6 | 6.1 | 0.00 | 0.05 | 0.00 | 1 | 1015.2 |
| 20260905144203 | 85 | 48 | 2.6 | 6.1 | 0.00 | 0.05 | 0.00 | 1 | 1015.1 |
| 20260905144103 | 84 | 50 | 2.6 | 6.1 | 0.00 | 0.05 | 0.00 | 1 | 1015.1 |
| 20260905144003 | 84 | 52 | 3.5 | 6.1 | 0.00 | 0.05 | 0.00 | 1 | 1015.1 |
| 20260905143903 | 84 | 56 | 2.6 | 6.1 | 0.00 | 0.05 | 0.00 | 1 | 1015.2 |
| 20260905143803 | 84 | 58 | 2.6 | 4.3 | 0.00 | 0.05 | 0.00 | 1 | 1015.1 |
| 20260905143724 | 84 | 58 | 2.6 | 4.3 | 0.00 | 0.05 | 0.00 | 1 | 1015.2 |
| 20260905143624 | 84 | 58 | 2.6 | 4.3 | 0.00 | 0.05 | 0.00 | 1 | 1015.2 |
| 20260905143524 | 84 | 58 | 1.7 | 4.3 | 0.00 | 0.05 | 0.00 | 1 | 1015.2 |
| 20260905143403 | 84 | 58 | 1.7 | 4.3 | 0.00 | 0.05 | 0.00 | 1 | 1015.2 |
| 20260905143303 | 84 | 59 | 0.9 | 4.3 | 0.00 | 0.05 | 0.00 | 1 | 1015.2 |
| 20260905143203 | 84 | 59 | 0.9 | 4.3 | 0.00 | 0.05 | 0.00 | 1 | 1015.2 |
| 20260905143103 | 84 | 59 | 0.9 | 4.3 | 0.00 | 0.05 | 0.00 | 1 | 1015.2 |
| 20260905143003 | 84 | 59 | 0.0 | 4.3 | 0.00 | 0.05 | 0.00 | 1 | 1015.2 |
| 20260905142903 | 84 | 60 | 0.0 | 3.5 | 0.00 | 0.05 | 0.00 | 1 | 1015.2 |
| 20260905142803 | 84 | 0 | 0.0 | 0.0 | 0.00 | 0.05 | 0.00 | 1 | 1015.2 |
| 20260905142703 | 84 | 0 | 0.0 | 0.0 | 0.00 | 0.05 | 0.00 | 1 | 1015.2 |
| 20260905142624 | 84 | 0 | 0.0 | 0.0 | 0.00 | 0.05 | 0.00 | 1 | 1015.2 |
| 20260905142503 | 84 | 0 | 0.0 | 0.0 | 0.00 | 0.05 | 0.00 | 1 | 1015.2 |
| 20260905142403 | 84 | 0 | 0.0 | 0.0 | 0.00 | 0.05 | 0.00 | 1 | 1015.2 |
| 20260905142306 | 84 | 0 | 0.0 | 0.0 | 0.00 | 0.05 | 0.00 | 1 | 1015.2 |
| 20260905142203 | 84 | 0 | 0.0 | 0.0 | 0.00 | 0.05 | 0.00 | 1 | 1015.2 |
| 20260905142124 | 84 | 0 | 0.0 | 0.0 | 0.00 | 0.05 | 0.00 | 1 | 1015.3 |
| 20260905142024 | 84 | 0 | 0.0 | 0.0 | 0.00 | 0.05 | 0.00 | 1 | 1015.2 |
| 20260905141903 | 83 | 0 | 0.0 | 0.0 | 0.00 | 0.05 | 0.00 | 1 | 1015.2 |
| 20260905141803 | 83 | 0 | 0.0 | 0.0 | 0.00 | 0.05 | 0.00 | 1 | 1015.2 |
| 20260905141703 | 83 | 0 | 0.0 | 0.0 | 0.00 | 0.05 | 0.00 | 1 | 1015.2 |
| 20260905141603 | 83 | 0 | 0.0 | 0.0 | 0.00 | 0.05 | 0.00 | 1 | 1015.2 |
| 20260905141524 | 83 | 0 | 0.0 | 0.0 | 0.00 | 0.05 | 0.00 | 1 | 1015.2 |
| 20260905141403 | 82 | 0 | 0.0 | 0.0 | 0.00 | 0.05 | 0.00 | 1 | 1015.2 |
| 20260905141303 | 82 | 0 | 0.0 | 0.0 | 0.00 | 0.05 | 0.00 | 1 | 1015.2 |
| 20260905141203 | 82 | 0 | 0.0 | 0.0 | 0.00 | 0.05 | 0.00 | 1 | 1015.1 |
| 20260905141103 | 82 | 0 | 0.0 | 0.0 | 0.00 | 0.05 | 0.00 | 1 | 1015.1 |
| 20260905141024 | 82 | 0 | 0.0 | 0.0 | 0.00 | 0.05 | 0.00 | 1 | 1015.1 |
| 20260905140924 | 82 | 0 | 0.0 | 0.0 | 0.00 | 0.05 | 0.00 | 1 | 1015.1 |
| 20260905140803 | 82 | 0 | 0.0 | 0.0 | 0.00 | 0.05 | 0.00 | 1 | 1015.1 |
| 20260905140703 | 82 | 0 | 0.0 | 0.0 | 0.00 | 0.05 | 0.00 | 1 | 1015.1 |
| 20260905140603 | 82 | 0 | 0.0 | 0.0 | 0.00 | 0.05 | 0.00 | 1 | 1015.0 |
| 20260905140503 | 82 | 0 | 0.0 | 0.0 | 0.00 | 0.05 | 0.00 | 1 | 1015.0 |
| 20260905140403 | 83 | 0 | 0.0 | 0.0 | 0.00 | 0.05 | 0.00 | 1 | 1015.0 |
| 20260905140303 | 83 | 0 | 0.0 | 0.0 | 0.00 | 0.05 | 0.00 | 1 | 1015.0 |
| 20260905140203 | 83 | 0 | 0.0 | 0.0 | 0.00 | 0.05 | 0.00 | 1 | 1015.0 |
| 20260905140103 | 83 | 0 | 0.0 | 0.0 | 0.00 | 0.05 | 0.00 | 1 | 1015.0 |
| 20260905140003 | 83 | 0 | 0.0 | 0.0 | 0.00 | 0.05 | 0.00 | 1 | 1015.0 |
| 20260905135903 | 82 | 0 | 0.0 | 0.0 | 0.00 | 0.05 | 0.00 | 1 | 1014.9 |
| 20260905135803 | 82 | 0 | 0.0 | 0.0 | 0.00 | 0.05 | 0.00 | 1 | 1014.9 |
| 20260905135703 | 82 | 0 | 0.0 | 0.0 | 0.00 | 0.05 | 0.00 | 1 | 1014.9 |
| 20260905135603 | 82 | 0 | 0.0 | 0.0 | 0.00 | 0.05 | 0.00 | 1 | 1015.0 |
| 20260905135503 | 82 | 0 | 0.0 | 0.0 | 0.00 | 0.05 | 0.00 | 1 | 1014.9 |
| 20260905135403 | 82 | 0 | 0.0 | 0.0 | 0.00 | 0.05 | 0.00 | 1 | 1014.9 |
| 20260905135306 | 82 | 0 | 0.0 | 0.0 | 0.00 | 0.05 | 0.00 | 1 | 1015.0 |
| 20260905135203 | 82 | 0 | 0.0 | 0.0 | 0.00 | 0.05 | 0.00 | 1 | 1015.0 |
| 20260905135103 | 82 | 0 | 0.0 | 0.0 | 0.00 | 0.05 | 0.00 | 1 | 1014.9 |
| 20260905135003 | 82 | 0 | 0.0 | 0.0 | 0.00 | 0.05 | 0.00 | 1 | 1015.0 |
| 20260905134903 | 82 | 0 | 0.0 | 0.0 | 0.00 | 0.05 | 0.00 | 1 | 1014.9 |
| 20260905134803 | 82 | 0 | 0.0 | 0.0 | 0.00 | 0.05 | 0.00 | 1 | 1015.0 |
| 20260905134703 | 82 | 0 | 0.0 | 0.0 | 0.00 | 0.05 | 0.00 | 1 | 1014.9 |
| 20260905134603 | 82 | 0 | 0.0 | 0.0 | 0.00 | 0.05 | 0.00 | 1 | 1014.9 |
| 20260905134503 | 82 | 0 | 0.0 | 0.0 | 0.00 | 0.05 | 0.00 | 1 | 1014.9 |
| 20260905134403 | 82 | 0 | 0.0 | 0.0 | 0.00 | 0.05 | 0.00 | 1 | 1014.9 |
| 20260905134303 | 82 | 0 | 0.0 | 0.0 | 0.00 | 0.05 | 0.00 | 1 | 1014.9 |
| 20260905134203 | 82 | 0 | 0.0 | 0.0 | 0.00 | 0.05 | 0.00 | 1 | 1014.9 |
| 20260905134103 | 82 | 0 | 0.0 | 0.0 | 0.00 | 0.05 | 0.00 | 1 | 1014.9 |
| 20260905134003 | 82 | 0 | 0.0 | 0.0 | 0.00 | 0.05 | 0.00 | 1 | 1014.9 |
| 20260905133903 | 82 | 0 | 0.0 | 0.0 | 0.00 | 0.05 | 0.00 | 1 | 1014.9 |
| 20260905133824 | 82 | 0 | 0.0 | 0.0 | 0.00 | 0.05 | 0.00 | 1 | 1014.9 |
| 20260905133703 | 81 | 0 | 0.0 | 0.0 | 0.00 | 0.05 | 0.00 | 1 | 1014.9 |
| 20260905133603 | 81 | 0 | 0.0 | 0.0 | 0.00 | 0.05 | 0.00 | 1 | 1014.9 |
| 20260905133503 | 81 | 0 | 0.0 | 0.0 | 0.00 | 0.05 | 0.00 | 1 | 1014.9 |
| 20260905133403 | 81 | 0 | 0.0 | 0.0 | 0.00 | 0.05 | 0.00 | 1 | 1014.9 |
| 20260905133303 | 81 | 0 | 0.0 | 0.0 | 0.00 | 0.05 | 0.00 | 1 | 1014.9 |
| 20260905133203 | 81 | 0 | 0.0 | 0.0 | 0.00 | 0.05 | 0.00 | 1 | 1014.9 |
| 20260905133103 | 81 | 0 | 0.0 | 0.0 | 0.00 | 0.05 | 0.00 | 1 | 1014.8 |
| 20260905133024 | 80 | 0 | 0.0 | 0.0 | 0.00 | 0.05 | 0.00 | 1 | 1014.8 |
| 20260905132903 | 80 | 0 | 0.0 | 0.0 | 0.00 | 0.05 | 0.00 | 1 | 1014.8 |
| 20260905132803 | 80 | 0 | 0.0 | 0.0 | 0.00 | 0.05 | 0.00 | 1 | 1014.8 |
| 20260905132703 | 80 | 0 | 0.0 | 0.0 | 0.00 | 0.05 | 0.00 | 1 | 1014.8 |
| 20260905132603 | 80 | 0 | 0.0 | 0.0 | 0.00 | 0.05 | 0.00 | 1 | 1014.7 |
| 20260905132524 | 80 | 0 | 0.0 | 0.0 | 0.00 | 0.05 | 0.00 | 1 | 1014.7 |
| 20260905132424 | 80 | 0 | 0.0 | 0.0 | 0.00 | 0.05 | 0.00 | 1 | 1014.7 |
| 20260905132305 | 80 | 0 | 0.0 | 0.0 | 0.00 | 0.05 | 0.00 | 1 | 1014.6 |
| 20260905132203 | 80 | 0 | 0.0 | 0.0 | 0.00 | 0.05 | 0.00 | 1 | 1014.6 |
| 20260905132103 | 80 | 0 | 0.0 | 0.0 | 0.00 | 0.05 | 0.00 | 1 | 1014.6 |
| 20260905132003 | 80 | 0 | 0.0 | 0.0 | 0.00 | 0.05 | 0.00 | 1 | 1014.7 |
| 20260905131903 | 80 | 0 | 0.0 | 0.0 | 0.00 | 0.05 | 0.00 | 1 | 1014.6 |
| 20260905131803 | 80 | 0 | 0.0 | 0.0 | 0.00 | 0.05 | 0.00 | 1 | 1014.6 |
| 20260905131724 | 80 | 0 | 0.0 | 0.0 | 0.00 | 0.05 | 0.00 | 1 | 1014.6 |
| 20260905131603 | 80 | 0 | 0.0 | 0.0 | 0.00 | 0.05 | 0.00 | 1 | 1014.6 |
| 20260905131503 | 80 | 0 | 0.0 | 0.0 | 0.00 | 0.05 | 0.00 | 1 | 1014.6 |
| 20260905131403 | 80 | 0 | 0.0 | 0.0 | 0.00 | 0.05 | 0.00 | 1 | 1014.6 |
| 20260905131303 | 79 | 0 | 0.0 | 0.0 | 0.00 | 0.05 | 0.00 | 1 | 1014.6 |
| 20260905131203 | 79 | 0 | 0.0 | 0.0 | 0.00 | 0.05 | 0.00 | 1 | 1014.6 |
| 20260905131103 | 79 | 0 | 0.0 | 0.0 | 0.00 | 0.05 | 0.00 | 1 | 1014.6 |
| 20260905131024 | 79 | 0 | 0.0 | 0.0 | 0.00 | 0.05 | 0.00 | 1 | 1014.5 |
| 20260905130903 | 79 | 0 | 0.0 | 0.0 | 0.00 | 0.05 | 0.00 | 1 | 1014.5 |
| 20260905130803 | 79 | 0 | 0.0 | 0.0 | 0.00 | 0.06 | 0.00 | 1 | 1014.5 |
| 20260905130703 | 79 | 0 | 0.0 | 0.0 | 0.00 | 0.06 | 0.00 | 1 | 1014.5 |
| 20260905130603 | 78 | 0 | 0.0 | 0.0 | 0.00 | 0.06 | 0.00 | 1 | 1014.5 |
| 20260905130524 | 78 | 0 | 0.0 | 0.0 | 0.00 | 0.06 | 0.00 | 1 | 1014.5 |
| 20260905130403 | 78 | 0 | 0.0 | 0.0 | 0.00 | 0.06 | 0.00 | 1 | 1014.5 |
| 20260905130303 | 78 | 0 | 0.0 | 0.0 | 0.00 | 0.06 | 0.00 | 1 | 1014.5 |
| 20260905130203 | 78 | 0 | 0.0 | 0.0 | 0.00 | 0.06 | 0.00 | 1 | 1014.5 |
| 20260905130003 | 78 | 0 | 0.0 | 0.0 | 0.00 | 0.06 | 0.00 | 1 | 1014.5 |
| 20260905125903 | 77 | 0 | 0.0 | 0.0 | 0.00 | 0.06 | 0.00 | 1 | 1014.5 |
| 20260905125825 | 77 | 0 | 0.0 | 0.0 | 0.00 | 0.06 | 0.00 | 1 | 1014.4 |
| 20260905125704 | 77 | 0 | 0.0 | 0.0 | 0.00 | 0.06 | 0.00 | 1 | 1014.5 |
| 20260905125604 | 77 | 0 | 0.0 | 0.0 | 0.00 | 0.06 | 0.00 | 1 | 1014.5 |
| 20260905125504 | 77 | 0 | 0.0 | 0.0 | 0.00 | 0.06 | 0.00 | 1 | 1014.5 |
| 20260905125404 | 76 | 0 | 0.0 | 0.0 | 0.00 | 0.06 | 0.00 | 1 | 1014.5 |
| 20260905125306 | 76 | 0 | 0.0 | 0.0 | 0.00 | 0.06 | 0.00 | 1 | 1014.5 |
| 20260905125204 | 76 | 0 | 0.0 | 0.0 | 0.00 | 0.06 | 0.00 | 1 | 1014.4 |
| 20260905125104 | 76 | 0 | 0.0 | 0.0 | 0.00 | 0.06 | 0.00 | 1 | 1014.4 |
| 20260905125025 | 76 | 0 | 0.0 | 0.0 | 0.00 | 0.06 | 0.00 | 1 | 1014.4 |
| 20260905124904 | 76 | 0 | 0.0 | 0.0 | 0.00 | 0.06 | 0.00 | 1 | 1014.4 |
| 20260905124826 | 76 | 0 | 0.0 | 0.0 | 0.00 | 0.06 | 0.00 | 1 | 1014.4 |
| 20260905124704 | 76 | 0 | 0.0 | 0.0 | 0.00 | 0.06 | 0.00 | 1 | 1014.4 |
| 20260905124604 | 75 | 0 | 0.0 | 0.0 | 0.00 | 0.06 | 0.00 | 1 | 1014.4 |
| 20260905124504 | 75 | 0 | 0.0 | 0.0 | 0.00 | 0.06 | 0.00 | 1 | 1014.4 |
| 20260905124404 | 75 | 0 | 0.0 | 0.0 | 0.00 | 0.06 | 0.00 | 1 | 1014.4 |
| 20260905124304 | 75 | 0 | 0.0 | 0.0 | 0.00 | 0.06 | 0.00 | 1 | 1014.4 |
| 20260905124204 | 75 | 0 | 0.0 | 0.0 | 0.00 | 0.06 | 0.00 | 1 | 1014.4 |
| 20260905124104 | 75 | 0 | 0.0 | 0.0 | 0.00 | 0.06 | 0.00 | 1 | 1014.3 |
| 20260905124004 | 75 | 0 | 0.0 | 0.0 | 0.00 | 0.06 | 0.00 | 1 | 1014.3 |
| 20260905123927 | 75 | 0 | 0.0 | 0.0 | 0.00 | 0.06 | 0.00 | 1 | 1014.3 |
| 20260905123804 | 74 | 0 | 0.0 | 0.0 | 0.00 | 0.06 | 0.00 | 1 | 1014.3 |
| 20260905123725 | 74 | 0 | 0.0 | 0.0 | 0.00 | 0.06 | 0.00 | 1 | 1014.2 |
| 20260905123604 | 74 | 0 | 0.0 | 0.0 | 0.00 | 0.06 | 0.00 | 1 | 1014.3 |
| 20260905123525 | 74 | 0 | 0.0 | 0.0 | 0.00 | 0.06 | 0.00 | 1 | 1014.3 |
| 20260905123404 | 74 | 0 | 0.0 | 0.0 | 0.00 | 0.06 | 0.00 | 1 | 1014.3 |
| 20260905123304 | 74 | 0 | 0.0 | 0.0 | 0.00 | 0.06 | 0.00 | 1 | 1014.2 |
| 20260905123204 | 74 | 0 | 0.0 | 0.0 | 0.00 | 0.06 | 0.00 | 1 | 1014.2 |
| 20260905123104 | 74 | 0 | 0.0 | 0.0 | 0.00 | 0.06 | 0.00 | 1 | 1014.3 |
| 20260905123025 | 74 | 0 | 0.0 | 0.0 | 0.00 | 0.06 | 0.00 | 1 | 1014.2 |
| 20260905122904 | 74 | 0 | 0.0 | 0.0 | 0.00 | 0.06 | 0.00 | 1 | 1014.3 |
| 20260905122804 | 74 | 0 | 0.0 | 0.0 | 0.00 | 0.06 | 0.00 | 1 | 1014.2 |
| 20260905122704 | 74 | 0 | 0.0 | 0.0 | 0.00 | 0.06 | 0.00 | 1 | 1014.2 |
| 20260905122604 | 74 | 0 | 0.0 | 0.0 | 0.00 | 0.06 | 0.00 | 1 | 1014.2 |
| 20260905122525 | 74 | 0 | 0.0 | 0.0 | 0.00 | 0.06 | 0.00 | 1 | 1014.1 |
| 20260905122404 | 74 | 0 | 0.0 | 0.0 | 0.00 | 0.06 | 0.00 | 1 | 1014.1 |
| 20260905122306 | 74 | 0 | 0.0 | 0.0 | 0.00 | 0.06 | 0.00 | 1 | 1014.2 |
| 20260905122204 | 74 | 0 | 0.0 | 0.0 | 0.00 | 0.06 | 0.00 | 1 | 1014.2 |
| 20260905122104 | 74 | 0 | 0.0 | 0.0 | 0.00 | 0.06 | 0.00 | 1 | 1014.1 |
| 20260905122004 | 74 | 0 | 0.0 | 0.0 | 0.00 | 0.06 | 0.00 | 1 | 1014.1 |
| 20260905121904 | 74 | 0 | 0.0 | 0.0 | 0.00 | 0.06 | 0.00 | 1 | 1014.2 |
| 20260905121804 | 74 | 0 | 0.0 | 0.0 | 0.00 | 0.06 | 0.00 | 1 | 1014.2 |
| 20260905121704 | 74 | 0 | 0.0 | 0.0 | 0.00 | 0.06 | 0.00 | 1 | 1014.2 |
| 20260905121604 | 74 | 0 | 0.0 | 0.0 | 0.00 | 0.06 | 0.00 | 1 | 1014.2 |
| 20260905121504 | 74 | 0 | 0.0 | 0.0 | 0.00 | 0.06 | 0.00 | 1 | 1014.2 |
| 20260905121404 | 74 | 0 | 0.0 | 0.0 | 0.00 | 0.06 | 0.00 | 1 | 1014.2 |
| 20260905121304 | 74 | 0 | 0.0 | 0.0 | 0.00 | 0.06 | 0.00 | 1 | 1014.2 |
| 20260905121225 | 74 | 0 | 0.0 | 0.0 | 0.00 | 0.06 | 0.00 | 1 | 1014.1 |
| 20260905121104 | 74 | 0 | 0.0 | 0.0 | 0.00 | 0.06 | 0.00 | 1 | 1014.1 |
| 20260905121004 | 74 | 0 | 0.0 | 0.0 | 0.00 | 0.06 | 0.00 | 1 | 1014.1 |
| 20260905120904 | 74 | 0 | 0.0 | 0.0 | 0.00 | 0.06 | 0.00 | 1 | 1014.1 |
| 20260905120804 | 74 | 0 | 0.0 | 0.0 | 0.00 | 0.06 | 0.00 | 1 | 1014.0 |
| 20260905120704 | 74 | 0 | 0.0 | 0.0 | 0.00 | 0.06 | 0.00 | 1 | 1014.1 |
| 20260905120604 | 74 | 0 | 0.0 | 0.0 | 0.00 | 0.06 | 0.00 | 1 | 1014.1 |
| 20260905120504 | 74 | 0 | 0.0 | 0.0 | 0.00 | 0.06 | 0.00 | 1 | 1014.1 |
| 20260905120404 | 74 | 0 | 0.0 | 0.0 | 0.00 | 0.06 | 0.00 | 1 | 1014.0 |
| 20260905120304 | 74 | 0 | 0.0 | 0.0 | 0.00 | 0.06 | 0.00 | 1 | 1014.0 |
| 20260905120204 | 74 | 0 | 0.0 | 0.0 | 0.00 | 0.06 | 0.00 | 1 | 1014.0 |
| 20260905120104 | 74 | 0 | 0.0 | 0.0 | 0.00 | 0.06 | 0.00 | 1 | 1014.1 |
| 20260905120004 | 74 | 0 | 0.0 | 0.0 | 0.00 | 0.06 | 0.00 | 1 | 1014.1 |
| 20260905115904 | 74 | 0 | 0.0 | 0.0 | 0.00 | 0.06 | 0.00 | 1 | 1014.0 |
| 20260905115825 | 74 | 0 | 0.0 | 0.0 | 0.00 | 0.06 | 0.00 | 1 | 1014.1 |
| 20260905115704 | 74 | 0 | 0.0 | 0.0 | 0.00 | 0.06 | 0.00 | 1 | 1014.0 |
| 20260905115604 | 74 | 0 | 0.0 | 0.0 | 0.00 | 0.06 | 0.00 | 1 | 1014.0 |
| 20260905115525 | 74 | 0 | 0.0 | 0.0 | 0.00 | 0.06 | 0.00 | 1 | 1014.0 |
| 20260905115425 | 74 | 0 | 0.0 | 0.0 | 0.00 | 0.06 | 0.00 | 1 | 1014.0 |
| 20260905115306 | 74 | 0 | 0.0 | 0.0 | 0.00 | 0.06 | 0.00 | 1 | 1013.9 |
| 20260905115204 | 74 | 0 | 0.0 | 0.0 | 0.00 | 0.06 | 0.00 | 1 | 1013.9 |
| 20260905115104 | 74 | 0 | 0.0 | 0.0 | 0.00 | 0.06 | 0.00 | 1 | 1013.9 |
| 20260905115004 | 74 | 0 | 0.0 | 0.0 | 0.00 | 0.06 | 0.00 | 1 | 1013.9 |
| 20260905114904 | 74 | 0 | 0.0 | 0.0 | 0.00 | 0.06 | 0.00 | 1 | 1013.9 |
| 20260905114804 | 74 | 0 | 0.0 | 0.0 | 0.00 | 0.06 | 0.00 | 1 | 1013.8 |
| 20260905114704 | 74 | 0 | 0.0 | 0.0 | 0.00 | 0.06 | 0.00 | 1 | 1013.9 |
| 20260905114604 | 74 | 0 | 0.0 | 0.0 | 0.00 | 0.06 | 0.00 | 1 | 1013.9 |
| 20260905114504 | 74 | 0 | 0.0 | 0.0 | 0.00 | 0.06 | 0.00 | 1 | 1013.8 |
| 20260905114404 | 74 | 0 | 0.0 | 0.0 | 0.00 | 0.06 | 0.00 | 1 | 1013.9 |
| 20260905114304 | 74 | 0 | 0.0 | 0.0 | 0.00 | 0.06 | 0.00 | 1 | 1013.9 |
| 20260905114225 | 74 | 0 | 0.0 | 0.0 | 0.00 | 0.06 | 0.00 | 1 | 1013.8 |
| 20260905114104 | 74 | 0 | 0.0 | 0.0 | 0.00 | 0.06 | 0.00 | 1 | 1013.8 |
| 20260905114004 | 74 | 0 | 0.0 | 0.0 | 0.00 | 0.06 | 0.00 | 1 | 1013.8 |
| 20260905113904 | 74 | 0 | 0.0 | 0.0 | 0.00 | 0.06 | 0.00 | 1 | 1013.8 |
| 20260905113804 | 74 | 0 | 0.0 | 0.0 | 0.00 | 0.06 | 0.00 | 1 | 1013.8 |
| 20260905113704 | 74 | 0 | 0.0 | 0.0 | 0.00 | 0.06 | 0.00 | 1 | 1013.8 |
| 20260905113604 | 74 | 0 | 0.0 | 0.0 | 0.00 | 0.06 | 0.00 | 1 | 1013.8 |
| 20260905113504 | 74 | 0 | 0.0 | 0.0 | 0.00 | 0.06 | 0.00 | 1 | 1013.8 |
| 20260905113404 | 74 | 0 | 0.0 | 0.0 | 0.00 | 0.06 | 0.00 | 1 | 1013.8 |
| 20260905113304 | 74 | 0 | 0.0 | 0.0 | 0.00 | 0.06 | 0.00 | 1 | 1013.8 |
| 20260905113225 | 74 | 0 | 0.0 | 0.0 | 0.00 | 0.06 | 0.00 | 1 | 1013.8 |
| 20260905113104 | 74 | 0 | 0.0 | 0.0 | 0.00 | 0.06 | 0.00 | 1 | 1013.8 |
| 20260905113025 | 74 | 0 | 0.0 | 0.0 | 0.00 | 0.06 | 0.00 | 1 | 1013.8 |
| 20260905112925 | 74 | 0 | 0.0 | 0.0 | 0.00 | 0.06 | 0.00 | 1 | 1013.8 |
| 20260905112804 | 75 | 0 | 0.0 | 0.0 | 0.00 | 0.06 | 0.00 | 1 | 1013.8 |
| 20260905112704 | 75 | 0 | 0.0 | 0.0 | 0.00 | 0.06 | 0.00 | 1 | 1013.8 |
| 20260905112604 | 75 | 0 | 0.0 | 0.0 | 0.00 | 0.06 | 0.00 | 1 | 1013.8 |
| 20260905112504 | 75 | 0 | 0.0 | 0.0 | 0.00 | 0.06 | 0.00 | 1 | 1013.8 |
| 20260905112404 | 75 | 0 | 0.0 | 0.0 | 0.00 | 0.06 | 0.00 | 1 | 1013.8 |
| 20260905112325 | 75 | 0 | 0.0 | 0.0 | 0.00 | 0.06 | 0.00 | 1 | 1013.8 |
| 20260905112205 | 75 | 0 | 0.0 | 0.0 | 0.00 | 0.06 | 0.00 | 1 | 1013.8 |
| 20260905112104 | 75 | 0 | 0.0 | 0.0 | 0.00 | 0.06 | 0.00 | 1 | 1013.8 |
| 20260905112006 | 75 | 0 | 0.0 | 0.0 | 0.00 | 0.06 | 0.00 | 1 | 1013.8 |
| 20260905111906 | 75 | 0 | 0.0 | 0.0 | 0.00 | 0.06 | 0.00 | 1 | 1013.8 |
| 20260905111804 | 75 | 0 | 0.0 | 0.0 | 0.00 | 0.06 | 0.00 | 1 | 1013.8 |
| 20260905111725 | 75 | 0 | 0.0 | 0.0 | 0.00 | 0.06 | 0.00 | 1 | 1013.7 |
| 20260905111604 | 75 | 0 | 0.0 | 0.0 | 0.00 | 0.06 | 0.00 | 1 | 1013.8 |
| 20260905111504 | 75 | 0 | 0.0 | 0.0 | 0.00 | 0.06 | 0.00 | 1 | 1013.7 |
| 20260905111404 | 75 | 0 | 0.0 | 0.0 | 0.00 | 0.06 | 0.00 | 1 | 1013.7 |
| 20260905111304 | 75 | 0 | 0.0 | 0.0 | 0.00 | 0.06 | 0.00 | 1 | 1013.7 |
| 20260905111204 | 75 | 0 | 0.0 | 0.0 | 0.00 | 0.06 | 0.00 | 1 | 1013.8 |
| 20260905111104 | 75 | 0 | 0.0 | 0.0 | 0.00 | 0.06 | 0.00 | 1 | 1013.8 |
| 20260905111004 | 75 | 51 | 0.0 | 0.9 | 0.00 | 0.06 | 0.00 | 1 | 1013.7 |
| 20260905110904 | 75 | 51 | 0.0 | 0.9 | 0.00 | 0.06 | 0.00 | 1 | 1013.8 |
| 20260905110804 | 75 | 51 | 0.0 | 0.9 | 0.00 | 0.06 | 0.00 | 1 | 1013.8 |
| 20260905110725 | 75 | 51 | 0.0 | 0.9 | 0.00 | 0.06 | 0.00 | 1 | 1013.8 |
| 20260905110625 | 75 | 51 | 0.0 | 0.9 | 0.00 | 0.06 | 0.00 | 1 | 1013.7 |
| 20260905110525 | 75 | 51 | 0.0 | 0.9 | 0.00 | 0.06 | 0.00 | 1 | 1013.8 |
| 20260905110404 | 75 | 51 | 0.0 | 0.9 | 0.00 | 0.06 | 0.00 | 1 | 1013.7 |
| 20260905110304 | 75 | 51 | 0.0 | 0.9 | 0.00 | 0.06 | 0.00 | 1 | 1013.7 |
| 20260905110204 | 75 | 51 | 0.0 | 0.9 | 0.00 | 0.06 | 0.00 | 1 | 1013.8 |
| 20260905110104 | 75 | 51 | 0.0 | 0.9 | 0.00 | 0.06 | 0.00 | 1 | 1013.8 |
| 20260905110004 | 75 | 51 | 0.0 | 0.9 | 0.00 | 0.06 | 0.00 | 1 | 1013.7 |
| 20260905105904 | 75 | 51 | 0.0 | 0.9 | 0.00 | 0.06 | 0.00 | 1 | 1013.8 |
| 20260905105804 | 75 | 51 | 0.0 | 0.9 | 0.00 | 0.06 | 0.00 | 1 | 1013.7 |
| 20260905105704 | 75 | 51 | 0.0 | 0.9 | 0.00 | 0.06 | 0.00 | 1 | 1013.8 |
| 20260905105604 | 75 | 51 | 0.0 | 0.9 | 0.00 | 0.06 | 0.00 | 1 | 1013.7 |
| 20260905105525 | 75 | 51 | 0.0 | 0.9 | 0.00 | 0.06 | 0.00 | 1 | 1013.7 |
| 20260905105404 | 75 | 51 | 0.0 | 0.9 | 0.00 | 0.06 | 0.00 | 1 | 1013.7 |
| 20260905105306 | 75 | 0 | 0.0 | 0.9 | 0.00 | 0.06 | 0.00 | 1 | 1013.6 |
| 20260905105204 | 75 | 0 | 0.0 | 0.9 | 0.00 | 0.06 | 0.00 | 1 | 1013.7 |
| 20260905105104 | 75 | 0 | 0.0 | 0.9 | 0.00 | 0.06 | 0.00 | 1 | 1013.7 |
| 20260905105004 | 75 | 0 | 0.0 | 0.9 | 0.00 | 0.06 | 0.00 | 1 | 1013.7 |
| 20260905104925 | 75 | 0 | 0.0 | 0.9 | 0.00 | 0.06 | 0.00 | 1 | 1013.7 |
| 20260905104804 | 75 | 0 | 0.0 | 0.0 | 0.00 | 0.06 | 0.00 | 1 | 1013.6 |
| 20260905104704 | 75 | 0 | 0.0 | 0.0 | 0.00 | 0.06 | 0.00 | 1 | 1013.7 |
| 20260905104604 | 75 | 0 | 0.0 | 0.0 | 0.00 | 0.06 | 0.00 | 1 | 1013.7 |
| 20260905104504 | 75 | 0 | 0.0 | 0.0 | 0.00 | 0.06 | 0.00 | 1 | 1013.6 |
| 20260905104404 | 75 | 51 | 0.0 | 0.9 | 0.00 | 0.06 | 0.00 | 1 | 1013.7 |
| 20260905104304 | 75 | 51 | 0.0 | 0.9 | 0.00 | 0.06 | 0.00 | 1 | 1013.6 |
| 20260905104227 | 75 | 51 | 0.0 | 0.9 | 0.00 | 0.06 | 0.00 | 1 | 1013.6 |
| 20260905104104 | 75 | 51 | 0.0 | 0.9 | 0.00 | 0.06 | 0.00 | 1 | 1013.6 |
| 20260905104004 | 75 | 51 | 0.0 | 0.9 | 0.00 | 0.06 | 0.00 | 1 | 1013.6 |
| 20260905103904 | 75 | 51 | 0.0 | 0.9 | 0.00 | 0.06 | 0.00 | 1 | 1013.6 |
| 20260905103804 | 75 | 51 | 0.0 | 0.9 | 0.00 | 0.06 | 0.00 | 1 | 1013.6 |
| 20260905103725 | 75 | 51 | 0.0 | 0.9 | 0.00 | 0.06 | 0.00 | 1 | 1013.7 |
| 20260905103625 | 75 | 51 | 0.0 | 0.9 | 0.00 | 0.06 | 0.00 | 1 | 1013.6 |
| 20260905103504 | 75 | 51 | 0.0 | 0.9 | 0.00 | 0.06 | 0.00 | 1 | 1013.7 |
| 20260905103404 | 75 | 51 | 0.0 | 0.9 | 0.00 | 0.06 | 0.00 | 1 | 1013.6 |
| 20260905103304 | 75 | 51 | 0.0 | 0.9 | 0.00 | 0.06 | 0.00 | 1 | 1013.6 |
| 20260905103204 | 75 | 51 | 0.0 | 0.9 | 0.00 | 0.06 | 0.00 | 1 | 1013.6 |
| 20260905103104 | 75 | 51 | 0.0 | 0.9 | 0.00 | 0.06 | 0.00 | 1 | 1013.6 |
| 20260905103004 | 75 | 51 | 0.0 | 0.9 | 0.00 | 0.06 | 0.00 | 1 | 1013.7 |
| 20260905102904 | 75 | 51 | 0.0 | 0.9 | 0.00 | 0.06 | 0.00 | 1 | 1013.6 |
| 20260905102804 | 75 | 51 | 0.0 | 0.9 | 0.00 | 0.06 | 0.00 | 1 | 1013.7 |
| 20260905102704 | 74 | 51 | 0.0 | 0.9 | 0.00 | 0.06 | 0.00 | 1 | 1013.6 |
| 20260905102604 | 74 | 0 | 0.0 | 0.0 | 0.00 | 0.06 | 0.00 | 1 | 1013.6 |
| 20260905102504 | 74 | 0 | 0.0 | 0.0 | 0.00 | 0.06 | 0.00 | 1 | 1013.6 |
| 20260905102425 | 74 | 0 | 0.0 | 0.0 | 0.00 | 0.06 | 0.00 | 1 | 1013.6 |
| 20260905102306 | 74 | 0 | 0.0 | 0.9 | 0.00 | 0.06 | 0.00 | 1 | 1013.6 |
| 20260905102204 | 75 | 0 | 0.0 | 0.9 | 0.00 | 0.06 | 0.00 | 1 | 1013.7 |
| 20260905102104 | 75 | 0 | 0.0 | 0.9 | 0.00 | 0.06 | 0.00 | 1 | 1013.6 |
| 20260905102025 | 75 | 0 | 0.0 | 0.9 | 0.00 | 0.06 | 0.00 | 1 | 1013.6 |
| 20260905101925 | 75 | 0 | 0.0 | 0.9 | 0.00 | 0.06 | 0.00 | 1 | 1013.6 |
| 20260905101804 | 75 | 0 | 0.0 | 0.9 | 0.00 | 0.06 | 0.00 | 1 | 1013.6 |
| 20260905101704 | 75 | 0 | 0.0 | 0.9 | 0.00 | 0.06 | 0.00 | 1 | 1013.6 |
| 20260905101604 | 75 | 0 | 0.0 | 0.9 | 0.00 | 0.06 | 0.00 | 1 | 1013.6 |
| 20260905101504 | 75 | 0 | 0.0 | 0.9 | 0.00 | 0.06 | 0.00 | 1 | 1013.6 |
| 20260905101404 | 75 | 0 | 0.0 | 0.9 | 0.00 | 0.06 | 0.00 | 1 | 1013.6 |
| 20260905101304 | 75 | 0 | 0.0 | 0.0 | 0.00 | 0.06 | 0.00 | 1 | 1013.6 |
| 20260905101204 | 75 | 0 | 0.0 | 0.0 | 0.00 | 0.06 | 0.00 | 1 | 1013.6 |
| 20260905101104 | 75 | 0 | 0.0 | 0.0 | 0.00 | 0.06 | 0.00 | 1 | 1013.6 |
| 20260905101004 | 75 | 0 | 0.0 | 0.0 | 0.00 | 0.06 | 0.00 | 1 | 1013.6 |
| 20260905100925 | 75 | 0 | 0.0 | 0.0 | 0.00 | 0.06 | 0.00 | 1 | 1013.6 |
| 20260905100825 | 75 | 0 | 0.0 | 0.0 | 0.00 | 0.06 | 0.00 | 1 | 1013.6 |
| 20260905100725 | 75 | 0 | 0.0 | 0.0 | 0.00 | 0.06 | 0.00 | 1 | 1013.6 |
| 20260905100625 | 75 | 0 | 0.0 | 0.0 | 0.00 | 0.06 | 0.00 | 1 | 1013.6 |
| 20260905100504 | 75 | 0 | 0.0 | 0.0 | 0.00 | 0.06 | 0.00 | 1 | 1013.6 |
| 20260905100404 | 75 | 51 | 0.0 | 0.9 | 0.00 | 0.06 | 0.00 | 1 | 1013.6 |
| 20260905100304 | 75 | 51 | 0.0 | 0.9 | 0.00 | 0.06 | 0.00 | 1 | 1013.6 |
| 20260905100204 | 75 | 51 | 0.0 | 0.9 | 0.00 | 0.06 | 0.00 | 1 | 1013.5 |
| 20260905100104 | 75 | 51 | 0.0 | 0.9 | 0.00 | 0.06 | 0.00 | 1 | 1013.6 |
| 20260905100004 | 75 | 51 | 0.0 | 0.9 | 0.00 | 0.06 | 0.00 | 1 | 1013.6 |
| 20260905095904 | 75 | 51 | 0.0 | 0.9 | 0.00 | 0.06 | 0.00 | 1 | 1013.6 |
| 20260905095804 | 75 | 51 | 0.0 | 0.9 | 0.00 | 0.06 | 0.00 | 1 | 1013.6 |
| 20260905095704 | 75 | 51 | 0.0 | 0.9 | 0.00 | 0.06 | 0.00 | 1 | 1013.6 |
| 20260905095604 | 75 | 51 | 0.9 | 0.9 | 0.00 | 0.06 | 0.00 | 1 | 1013.6 |
| 20260905095504 | 75 | 51 | 0.9 | 0.9 | 0.00 | 0.06 | 0.00 | 1 | 1013.6 |
| 20260905095404 | 75 | 51 | 0.9 | 0.9 | 0.00 | 0.06 | 0.00 | 1 | 1013.6 |
| 20260905095306 | 75 | 51 | 0.9 | 0.9 | 0.00 | 0.06 | 0.00 | 1 | 1013.7 |
| 20260905095225 | 75 | 51 | 0.0 | 0.9 | 0.00 | 0.06 | 0.00 | 1 | 1013.6 |
| 20260905095125 | 75 | 51 | 0.0 | 0.9 | 0.00 | 0.06 | 0.00 | 1 | 1013.6 |
| 20260905095004 | 75 | 51 | 0.0 | 0.9 | 0.00 | 0.06 | 0.00 | 1 | 1013.6 |
| 20260905094904 | 75 | 51 | 0.0 | 0.9 | 0.00 | 0.06 | 0.00 | 1 | 1013.5 |
| 20260905094804 | 75 | 51 | 0.0 | 0.9 | 0.00 | 0.06 | 0.00 | 1 | 1013.5 |
| 20260905094725 | 75 | 51 | 0.0 | 0.9 | 0.00 | 0.06 | 0.00 | 1 | 1013.6 |
| 20260905094604 | 76 | 51 | 0.0 | 0.9 | 0.00 | 0.06 | 0.00 | 1 | 1013.5 |
| 20260905094504 | 76 | 0 | 0.0 | 0.0 | 0.00 | 0.06 | 0.00 | 1 | 1013.5 |
| 20260905094404 | 76 | 0 | 0.0 | 0.9 | 0.00 | 0.06 | 0.00 | 1 | 1013.5 |
| 20260905094304 | 76 | 0 | 0.0 | 0.9 | 0.00 | 0.06 | 0.00 | 1 | 1013.5 |
| 20260905094204 | 76 | 0 | 0.0 | 0.9 | 0.00 | 0.06 | 0.00 | 1 | 1013.4 |
| 20260905094104 | 76 | 0 | 0.0 | 0.9 | 0.00 | 0.06 | 0.00 | 1 | 1013.4 |
| 20260905094004 | 76 | 0 | 0.0 | 0.9 | 0.00 | 0.06 | 0.00 | 1 | 1013.5 |
| 20260905093904 | 76 | 0 | 0.0 | 0.9 | 0.00 | 0.06 | 0.00 | 1 | 1013.4 |
| 20260905093825 | 76 | 0 | 0.0 | 0.9 | 0.00 | 0.06 | 0.00 | 1 | 1013.4 |
| 20260905093704 | 76 | 0 | 0.0 | 0.9 | 0.00 | 0.06 | 0.00 | 1 | 1013.4 |
| 20260905093604 | 76 | 0 | 0.0 | 0.9 | 0.00 | 0.06 | 0.00 | 1 | 1013.4 |
| 20260905093504 | 76 | 0 | 0.0 | 0.9 | 0.00 | 0.06 | 0.00 | 1 | 1013.4 |
| 20260905093404 | 76 | 51 | 0.0 | 0.9 | 0.00 | 0.06 | 0.00 | 1 | 1013.3 |
| 20260905093304 | 76 | 51 | 0.0 | 0.9 | 0.00 | 0.06 | 0.00 | 1 | 1013.4 |
| 20260905093204 | 76 | 51 | 0.0 | 0.9 | 0.00 | 0.06 | 0.00 | 1 | 1013.4 |
| 20260905093104 | 76 | 51 | 0.0 | 0.9 | 0.00 | 0.06 | 0.00 | 1 | 1013.4 |
| 20260905093004 | 76 | 51 | 0.0 | 0.9 | 0.00 | 0.06 | 0.00 | 1 | 1013.3 |
| 20260905092904 | 76 | 51 | 0.0 | 0.9 | 0.00 | 0.06 | 0.00 | 1 | 1013.4 |
| 20260905092804 | 76 | 51 | 0.0 | 0.9 | 0.00 | 0.06 | 0.00 | 1 | 1013.4 |
| 20260905092704 | 76 | 51 | 0.0 | 0.9 | 0.00 | 0.06 | 0.00 | 1 | 1013.4 |
| 20260905092604 | 76 | 51 | 0.0 | 0.9 | 0.00 | 0.06 | 0.00 | 1 | 1013.4 |
| 20260905092504 | 76 | 51 | 0.0 | 0.9 | 0.00 | 0.06 | 0.00 | 1 | 1013.4 |
| 20260905092404 | 76 | 51 | 0.0 | 0.9 | 0.00 | 0.06 | 0.00 | 1 | 1013.5 |
| 20260905092306 | 76 | 51 | 0.0 | 0.9 | 0.00 | 0.06 | 0.00 | 1 | 1013.4 |
| 20260905092204 | 76 | 51 | 0.0 | 0.9 | 0.00 | 0.06 | 0.00 | 1 | 1013.4 |
| 20260905092104 | 76 | 51 | 0.0 | 0.9 | 0.00 | 0.06 | 0.00 | 1 | 1013.5 |
| 20260905092004 | 76 | 51 | 0.0 | 0.9 | 0.00 | 0.06 | 0.00 | 1 | 1013.5 |
| 20260905091904 | 76 | 51 | 0.0 | 0.9 | 0.00 | 0.06 | 0.00 | 1 | 1013.5 |
| 20260905091804 | 77 | 51 | 0.0 | 0.9 | 0.00 | 0.06 | 0.00 | 1 | 1013.5 |
| 20260905091704 | 77 | 51 | 0.0 | 0.9 | 0.00 | 0.06 | 0.00 | 1 | 1013.6 |
| 20260905091604 | 77 | 51 | 0.0 | 0.9 | 0.00 | 0.06 | 0.00 | 1 | 1013.6 |
| 20260905091525 | 77 | 51 | 0.0 | 0.9 | 0.00 | 0.06 | 0.00 | 1 | 1013.6 |
| 20260905091425 | 77 | 51 | 0.0 | 0.9 | 0.00 | 0.06 | 0.00 | 1 | 1013.7 |
| 20260905091325 | 77 | 51 | 0.0 | 0.9 | 0.00 | 0.06 | 0.00 | 1 | 1013.6 |
| 20260905091204 | 77 | 51 | 0.0 | 0.9 | 0.00 | 0.06 | 0.00 | 1 | 1013.6 |
| 20260905091104 | 77 | 51 | 0.0 | 0.9 | 0.00 | 0.06 | 0.00 | 1 | 1013.6 |
| 20260905091004 | 77 | 51 | 0.0 | 0.9 | 0.00 | 0.06 | 0.00 | 1 | 1013.7 |
| 20260905090904 | 77 | 51 | 0.0 | 0.9 | 0.00 | 0.06 | 0.00 | 1 | 1013.7 |
| 20260905090804 | 77 | 51 | 0.0 | 0.9 | 0.00 | 0.06 | 0.00 | 1 | 1013.7 |
| 20260905090704 | 77 | 51 | 0.0 | 1.7 | 0.00 | 0.06 | 0.00 | 1 | 1013.6 |
| 20260905090604 | 77 | 51 | 0.0 | 1.7 | 0.00 | 0.06 | 0.00 | 1 | 1013.7 |
| 20260905090504 | 77 | 51 | 0.0 | 1.7 | 0.00 | 0.06 | 0.00 | 1 | 1013.7 |
| 20260905090404 | 77 | 51 | 0.9 | 1.7 | 0.00 | 0.06 | 0.00 | 1 | 1013.6 |
| 20260905090304 | 77 | 51 | 0.9 | 1.7 | 0.00 | 0.06 | 0.00 | 1 | 1013.7 |
| 20260905090206 | 77 | 51 | 0.9 | 1.7 | 0.00 | 0.06 | 0.00 | 1 | 1013.7 |
| 20260905090104 | 77 | 51 | 0.9 | 1.7 | 0.00 | 0.06 | 0.00 | 1 | 1013.7 |
| 20260905090004 | 77 | 51 | 0.9 | 1.7 | 0.00 | 0.06 | 0.00 | 1 | 1013.7 |
| 20260905085904 | 77 | 51 | 0.9 | 1.7 | 0.00 | 0.06 | 0.00 | 1 | 1013.8 |
| 20260905085804 | 77 | 51 | 0.9 | 1.7 | 0.00 | 0.06 | 0.00 | 1 | 1013.7 |
| 20260905085725 | 77 | 51 | 0.9 | 1.7 | 0.00 | 0.06 | 0.00 | 1 | 1013.7 |
| 20260905085604 | 77 | 51 | 0.9 | 1.7 | 0.00 | 0.06 | 0.00 | 1 | 1013.7 |
| 20260905085504 | 77 | 51 | 0.9 | 1.7 | 0.00 | 0.06 | 0.00 | 1 | 1013.7 |
| 20260905085404 | 77 | 51 | 0.9 | 1.7 | 0.00 | 0.06 | 0.00 | 1 | 1013.7 |
| 20260905085325 | 77 | 51 | 0.9 | 1.7 | 0.00 | 0.06 | 0.00 | 1 | 1013.7 |
| 20260905085204 | 77 | 51 | 0.9 | 1.7 | 0.00 | 0.06 | 0.00 | 1 | 1013.7 |
| 20260905085104 | 77 | 51 | 0.9 | 2.6 | 0.00 | 0.06 | 0.00 | 1 | 1013.6 |
| 20260905085004 | 77 | 51 | 0.9 | 2.6 | 0.00 | 0.06 | 0.00 | 1 | 1013.7 |
| 20260905084904 | 77 | 51 | 0.9 | 2.6 | 0.00 | 0.06 | 0.00 | 1 | 1013.7 |
| 20260905084804 | 77 | 51 | 0.9 | 2.6 | 0.00 | 0.06 | 0.00 | 1 | 1013.7 |
| 20260905084704 | 77 | 51 | 0.9 | 2.6 | 0.00 | 0.06 | 0.00 | 1 | 1013.8 |
| 20260905084604 | 77 | 51 | 0.9 | 2.6 | 0.00 | 0.06 | 0.00 | 1 | 1013.8 |
| 20260905084504 | 77 | 51 | 1.7 | 2.6 | 0.00 | 0.06 | 0.00 | 1 | 1013.8 |
| 20260905084404 | 77 | 51 | 1.7 | 2.6 | 0.00 | 0.06 | 0.00 | 1 | 1013.8 |
| 20260905084304 | 77 | 51 | 1.7 | 2.6 | 0.00 | 0.06 | 0.00 | 1 | 1013.8 |
| 20260905084204 | 77 | 51 | 1.7 | 3.5 | 0.00 | 0.06 | 0.00 | 1 | 1013.8 |
| 20260905084104 | 77 | 50 | 1.7 | 3.5 | 0.00 | 0.06 | 0.00 | 1 | 1013.8 |
| 20260905084025 | 77 | 50 | 1.7 | 3.5 | 0.00 | 0.06 | 0.00 | 1 | 1013.8 |
| 20260905083925 | 77 | 50 | 1.7 | 3.5 | 0.00 | 0.06 | 0.00 | 1 | 1013.8 |
| 20260905083804 | 77 | 50 | 1.7 | 3.5 | 0.00 | 0.06 | 0.00 | 1 | 1013.8 |
| 20260905083704 | 77 | 50 | 1.7 | 3.5 | 0.00 | 0.06 | 0.00 | 1 | 1013.8 |
| 20260905083604 | 77 | 50 | 1.7 | 4.3 | 0.00 | 0.06 | 0.00 | 1 | 1013.7 |
| 20260905083504 | 77 | 50 | 1.7 | 4.3 | 0.00 | 0.06 | 0.00 | 1 | 1013.7 |
| 20260905083425 | 77 | 49 | 1.7 | 4.3 | 0.00 | 0.06 | 0.00 | 1 | 1013.8 |
| 20260905083304 | 77 | 49 | 1.7 | 4.3 | 0.00 | 0.06 | 0.00 | 1 | 1013.7 |
| 20260905083204 | 77 | 49 | 1.7 | 4.3 | 0.00 | 0.06 | 0.00 | 1 | 1013.7 |
| 20260905083125 | 77 | 49 | 1.7 | 4.3 | 0.00 | 0.06 | 0.00 | 1 | 1013.7 |
| 20260905083004 | 77 | 49 | 1.7 | 4.3 | 0.00 | 0.06 | 0.00 | 1 | 1013.7 |
| 20260905082904 | 77 | 49 | 1.7 | 4.3 | 0.00 | 0.06 | 0.00 | 1 | 1013.7 |
| 20260905082804 | 77 | 49 | 1.7 | 4.3 | 0.00 | 0.06 | 0.00 | 1 | 1013.7 |
| 20260905082704 | 78 | 49 | 1.7 | 4.3 | 0.00 | 0.06 | 0.00 | 1 | 1013.7 |
| 20260905082604 | 78 | 49 | 2.6 | 5.2 | 0.00 | 0.06 | 0.00 | 1 | 1013.7 |
| 20260905082504 | 78 | 49 | 2.6 | 5.2 | 0.00 | 0.06 | 0.00 | 1 | 1013.7 |
| 20260905082404 | 78 | 49 | 2.6 | 5.2 | 0.00 | 0.06 | 0.00 | 1 | 1013.7 |
| 20260905082307 | 78 | 49 | 2.6 | 5.2 | 0.00 | 0.06 | 0.00 | 1 | 1013.7 |
| 20260905082225 | 78 | 49 | 2.6 | 5.2 | 0.00 | 0.06 | 0.00 | 1 | 1013.7 |
| 20260905082104 | 78 | 49 | 2.6 | 5.2 | 0.00 | 0.06 | 0.00 | 1 | 1013.7 |
| 20260905082004 | 78 | 49 | 2.6 | 5.2 | 0.00 | 0.06 | 0.00 | 1 | 1013.8 |
| 20260905081904 | 78 | 50 | 2.6 | 5.2 | 0.00 | 0.06 | 0.00 | 1 | 1013.8 |
| 20260905081804 | 78 | 50 | 2.6 | 5.2 | 0.00 | 0.06 | 0.00 | 1 | 1013.7 |
| 20260905081704 | 78 | 50 | 2.6 | 5.2 | 0.00 | 0.06 | 0.00 | 1 | 1013.8 |
| 20260905081604 | 78 | 51 | 2.6 | 5.2 | 0.00 | 0.06 | 0.00 | 1 | 1013.8 |
| 20260905081504 | 78 | 51 | 2.6 | 4.3 | 0.00 | 0.06 | 0.00 | 1 | 1013.7 |
| 20260905081425 | 78 | 52 | 2.6 | 4.3 | 0.00 | 0.06 | 0.00 | 1 | 1013.7 |
| 20260905081304 | 78 | 52 | 2.6 | 4.3 | 0.00 | 0.06 | 0.00 | 1 | 1013.8 |
| 20260905081204 | 78 | 52 | 2.6 | 4.3 | 0.00 | 0.06 | 0.00 | 1 | 1013.8 |
| 20260905081104 | 78 | 53 | 2.6 | 4.3 | 0.00 | 0.06 | 0.00 | 1 | 1013.8 |
| 20260905081004 | 78 | 53 | 1.7 | 4.3 | 0.00 | 0.06 | 0.00 | 1 | 1013.7 |
| 20260905080925 | 78 | 54 | 1.7 | 3.5 | 0.00 | 0.06 | 0.00 | 1 | 1013.7 |
| 20260905080804 | 78 | 52 | 2.6 | 5.2 | 0.00 | 0.06 | 0.00 | 1 | 1013.7 |
| 20260905080704 | 78 | 50 | 2.6 | 5.2 | 0.00 | 0.06 | 0.00 | 1 | 1013.8 |
| 20260905080604 | 78 | 49 | 2.6 | 5.2 | 0.00 | 0.06 | 0.00 | 1 | 1013.7 |
| 20260905080504 | 78 | 48 | 2.6 | 5.2 | 0.00 | 0.06 | 0.00 | 1 | 1013.8 |
| 20260905080404 | 78 | 46 | 1.7 | 5.2 | 0.00 | 0.06 | 0.00 | 1 | 1013.8 |
| 20260905080304 | 78 | 45 | 1.7 | 5.2 | 0.00 | 0.06 | 0.00 | 1 | 1013.7 |
| 20260905080225 | 78 | 44 | 1.7 | 5.2 | 0.00 | 0.06 | 0.00 | 1 | 1013.8 |
| 20260905080104 | 78 | 42 | 1.7 | 5.2 | 0.00 | 0.06 | 0.00 | 1 | 1013.8 |
| 20260905080004 | 78 | 41 | 1.7 | 5.2 | 0.00 | 0.06 | 0.00 | 1 | 1013.8 |
| 20260905075904 | 78 | 39 | 1.7 | 5.2 | 0.00 | 0.06 | 0.00 | 1 | 1013.8 |
| 20260905075825 | 78 | 38 | 1.7 | 4.3 | 0.00 | 0.06 | 0.00 | 1 | 1013.8 |
| 20260905075704 | 78 | 37 | 1.7 | 4.3 | 0.00 | 0.06 | 0.00 | 1 | 1013.8 |
| 20260905075604 | 78 | 36 | 0.9 | 3.5 | 0.00 | 0.06 | 0.00 | 1 | 1013.8 |
| 20260905075504 | 78 | 36 | 1.7 | 3.5 | 0.00 | 0.06 | 0.00 | 1 | 1013.8 |
| 20260905075404 | 78 | 36 | 1.7 | 3.5 | 0.00 | 0.06 | 0.00 | 1 | 1013.8 |
| 20260905075306 | 78 | 36 | 1.7 | 5.2 | 0.00 | 0.06 | 0.00 | 1 | 1013.8 |
| 20260905075204 | 78 | 36 | 1.7 | 5.2 | 0.00 | 0.06 | 0.00 | 1 | 1013.8 |
| 20260905075104 | 78 | 37 | 1.7 | 5.2 | 0.00 | 0.06 | 0.00 | 1 | 1013.8 |
| 20260905075004 | 78 | 37 | 1.7 | 5.2 | 0.00 | 0.06 | 0.00 | 1 | 1013.9 |
| 20260905074904 | 78 | 38 | 1.7 | 5.2 | 0.00 | 0.06 | 0.00 | 1 | 1013.9 |
| 20260905074804 | 78 | 38 | 1.7 | 5.2 | 0.00 | 0.06 | 0.00 | 1 | 1013.8 |
| 20260905074704 | 78 | 39 | 1.7 | 5.2 | 0.00 | 0.06 | 0.00 | 1 | 1013.9 |
| 20260905074604 | 78 | 39 | 1.7 | 5.2 | 0.00 | 0.06 | 0.00 | 1 | 1013.9 |
| 20260905074504 | 78 | 39 | 1.7 | 5.2 | 0.00 | 0.06 | 0.00 | 1 | 1013.9 |
| 20260905074404 | 78 | 40 | 1.7 | 5.2 | 0.00 | 0.06 | 0.00 | 1 | 1013.8 |
| 20260905074304 | 78 | 41 | 1.7 | 5.2 | 0.00 | 0.06 | 0.00 | 1 | 1013.9 |
| 20260905074204 | 78 | 41 | 1.7 | 4.3 | 0.00 | 0.06 | 0.00 | 1 | 1013.9 |
| 20260905074104 | 78 | 41 | 1.7 | 4.3 | 0.00 | 0.06 | 0.00 | 1 | 1013.9 |
| 20260905074004 | 78 | 41 | 1.7 | 4.3 | 0.00 | 0.06 | 0.00 | 1 | 1013.9 |
| 20260905073904 | 78 | 41 | 1.7 | 4.3 | 0.00 | 0.06 | 0.00 | 1 | 1013.8 |
| 20260905073804 | 78 | 41 | 1.7 | 4.3 | 0.00 | 0.06 | 0.00 | 1 | 1013.9 |
| 20260905073704 | 78 | 41 | 1.7 | 3.5 | 0.00 | 0.06 | 0.00 | 1 | 1013.9 |
| 20260905073604 | 79 | 41 | 1.7 | 3.5 | 0.00 | 0.06 | 0.00 | 1 | 1013.9 |
| 20260905073504 | 79 | 41 | 1.7 | 3.5 | 0.00 | 0.06 | 0.00 | 1 | 1013.9 |
| 20260905073404 | 79 | 41 | 1.7 | 3.5 | 0.00 | 0.06 | 0.00 | 1 | 1013.9 |
| 20260905073304 | 79 | 41 | 1.7 | 4.3 | 0.00 | 0.06 | 0.00 | 1 | 1014.0 |
| 20260905073204 | 79 | 40 | 1.7 | 4.3 | 0.00 | 0.06 | 0.00 | 1 | 1014.0 |
| 20260905073104 | 79 | 40 | 1.7 | 4.3 | 0.00 | 0.06 | 0.00 | 1 | 1014.0 |
| 20260905073004 | 79 | 39 | 1.7 | 4.3 | 0.00 | 0.06 | 0.00 | 1 | 1014.0 |
| 20260905072904 | 79 | 38 | 1.7 | 4.3 | 0.00 | 0.06 | 0.00 | 1 | 1014.0 |
| 20260905072804 | 79 | 38 | 1.7 | 4.3 | 0.00 | 0.06 | 0.00 | 1 | 1014.0 |
| 20260905072704 | 79 | 37 | 1.7 | 4.3 | 0.00 | 0.06 | 0.00 | 1 | 1014.0 |
| 20260905072604 | 79 | 37 | 1.7 | 4.3 | 0.00 | 0.06 | 0.00 | 1 | 1014.0 |
| 20260905072525 | 79 | 37 | 1.7 | 4.3 | 0.00 | 0.06 | 0.00 | 1 | 1013.9 |
| 20260905072404 | 79 | 36 | 1.7 | 4.3 | 0.00 | 0.06 | 0.00 | 1 | 1013.9 |
| 20260905072306 | 79 | 36 | 1.7 | 4.3 | 0.00 | 0.06 | 0.00 | 1 | 1013.9 |
| 20260905072227 | 79 | 36 | 1.7 | 4.3 | 0.00 | 0.06 | 0.00 | 1 | 1013.9 |
| 20260905072104 | 79 | 37 | 1.7 | 3.5 | 0.00 | 0.06 | 0.00 | 1 | 1013.9 |
| 20260905072004 | 79 | 37 | 1.7 | 3.5 | 0.00 | 0.06 | 0.00 | 1 | 1013.9 |
| 20260905071904 | 79 | 38 | 1.7 | 4.3 | 0.00 | 0.06 | 0.00 | 1 | 1013.9 |
| 20260905071804 | 79 | 38 | 1.7 | 4.3 | 0.00 | 0.06 | 0.00 | 1 | 1014.0 |
| 20260905071704 | 79 | 38 | 1.7 | 4.3 | 0.00 | 0.06 | 0.00 | 1 | 1014.0 |
| 20260905071604 | 79 | 38 | 1.7 | 4.3 | 0.00 | 0.06 | 0.00 | 1 | 1014.0 |
| 20260905071504 | 79 | 38 | 1.7 | 4.3 | 0.00 | 0.06 | 0.00 | 1 | 1014.0 |
| 20260905071404 | 79 | 38 | 1.7 | 4.3 | 0.00 | 0.06 | 0.00 | 1 | 1014.0 |
| 20260905071304 | 79 | 38 | 1.7 | 4.3 | 0.00 | 0.06 | 0.00 | 1 | 1014.0 |
| 20260905071204 | 79 | 39 | 1.7 | 4.3 | 0.00 | 0.06 | 0.00 | 1 | 1014.0 |
| 20260905071125 | 79 | 39 | 1.7 | 4.3 | 0.00 | 0.06 | 0.00 | 1 | 1014.0 |
| 20260905071028 | 79 | 39 | 1.7 | 4.3 | 0.00 | 0.06 | 0.00 | 1 | 1014.0 |
| 20260905070904 | 79 | 39 | 1.7 | 3.5 | 0.00 | 0.06 | 0.00 | 1 | 1014.0 |
| 20260905070804 | 79 | 39 | 1.7 | 3.5 | 0.00 | 0.06 | 0.00 | 1 | 1014.1 |
| 20260905070704 | 79 | 40 | 1.7 | 3.5 | 0.00 | 0.06 | 0.00 | 1 | 1014.1 |
| 20260905070604 | 79 | 40 | 1.7 | 3.5 | 0.00 | 0.06 | 0.00 | 1 | 1014.1 |
| 20260905070525 | 79 | 40 | 1.7 | 3.5 | 0.00 | 0.06 | 0.00 | 1 | 1014.1 |
| 20260905070425 | 79 | 41 | 1.7 | 3.5 | 0.00 | 0.06 | 0.00 | 1 | 1014.1 |
| 20260905070304 | 79 | 41 | 1.7 | 3.5 | 0.00 | 0.06 | 0.00 | 1 | 1014.1 |
| 20260905070204 | 79 | 42 | 0.9 | 3.5 | 0.00 | 0.06 | 0.00 | 1 | 1014.1 |
| 20260905070104 | 79 | 43 | 1.7 | 3.5 | 0.00 | 0.06 | 0.00 | 1 | 1014.1 |
| 20260905070004 | 79 | 42 | 1.7 | 3.5 | 0.00 | 0.06 | 0.00 | 1 | 1014.1 |
| 20260905065904 | 79 | 40 | 1.7 | 4.3 | 0.00 | 0.06 | 0.00 | 1 | 1014.1 |
| 20260905065825 | 79 | 39 | 1.7 | 4.3 | 0.00 | 0.06 | 0.00 | 1 | 1014.1 |
| 20260905065704 | 80 | 36 | 1.7 | 4.3 | 0.00 | 0.06 | 0.00 | 1 | 1014.1 |
| 20260905065604 | 80 | 35 | 1.7 | 5.2 | 0.00 | 0.06 | 0.00 | 1 | 1014.1 |
| 20260905065504 | 80 | 35 | 1.7 | 5.2 | 0.00 | 0.06 | 0.00 | 1 | 1014.2 |
| 20260905065425 | 80 | 33 | 2.6 | 5.2 | 0.00 | 0.06 | 0.00 | 1 | 1014.1 |
| 20260905065306 | 80 | 33 | 2.6 | 5.2 | 0.00 | 0.06 | 0.00 | 1 | 1014.1 |
| 20260905065204 | 80 | 33 | 2.6 | 5.2 | 0.00 | 0.06 | 0.00 | 1 | 1014.1 |
| 20260905065104 | 80 | 32 | 2.6 | 5.2 | 0.00 | 0.06 | 0.00 | 1 | 1014.1 |
| 20260905065025 | 80 | 32 | 1.7 | 5.2 | 0.00 | 0.06 | 0.00 | 1 | 1014.1 |
| 20260905064904 | 80 | 34 | 1.7 | 5.2 | 0.00 | 0.06 | 0.00 | 1 | 1014.1 |
| 20260905064825 | 80 | 36 | 1.7 | 5.2 | 0.00 | 0.06 | 0.00 | 1 | 1014.1 |
| 20260905064704 | 80 | 37 | 1.7 | 5.2 | 0.00 | 0.06 | 0.00 | 1 | 1014.1 |
| 20260905064604 | 80 | 38 | 1.7 | 5.2 | 0.00 | 0.06 | 0.00 | 1 | 1014.0 |
| 20260905064504 | 80 | 39 | 1.7 | 5.2 | 0.00 | 0.06 | 0.00 | 1 | 1014.0 |
| 20260905064404 | 80 | 43 | 1.7 | 4.3 | 0.00 | 0.06 | 0.00 | 1 | 1014.0 |
| 20260905064325 | 80 | 42 | 1.7 | 4.3 | 0.00 | 0.06 | 0.00 | 1 | 1014.0 |
| 20260905064204 | 80 | 42 | 1.7 | 4.3 | 0.00 | 0.06 | 0.00 | 1 | 1014.0 |
| 20260905064104 | 80 | 43 | 1.7 | 4.3 | 0.00 | 0.06 | 0.00 | 1 | 1014.0 |
| 20260905064004 | 80 | 43 | 1.7 | 4.3 | 0.00 | 0.06 | 0.00 | 1 | 1014.0 |
| 20260905063904 | 80 | 44 | 1.7 | 4.3 | 0.00 | 0.06 | 0.00 | 1 | 1014.0 |
| 20260905063804 | 80 | 44 | 1.7 | 5.2 | 0.00 | 0.06 | 0.00 | 1 | 1014.0 |
| 20260905063704 | 80 | 43 | 1.7 | 5.2 | 0.00 | 0.06 | 0.00 | 1 | 1014.1 |
| 20260905063604 | 80 | 43 | 1.7 | 5.2 | 0.00 | 0.06 | 0.00 | 1 | 1014.1 |
| 20260905063504 | 80 | 44 | 2.6 | 5.2 | 0.00 | 0.06 | 0.00 | 1 | 1014.1 |
| 20260905063404 | 80 | 44 | 2.6 | 5.2 | 0.00 | 0.06 | 0.00 | 1 | 1014.1 |
| 20260905063304 | 80 | 45 | 2.6 | 5.2 | 0.00 | 0.06 | 0.00 | 1 | 1014.1 |
| 20260905063204 | 80 | 44 | 2.6 | 5.2 | 0.00 | 0.06 | 0.00 | 1 | 1014.2 |
| 20260905063104 | 80 | 44 | 2.6 | 5.2 | 0.00 | 0.06 | 0.00 | 1 | 1014.1 |
| 20260905063004 | 80 | 43 | 2.6 | 5.2 | 0.00 | 0.06 | 0.00 | 1 | 1014.1 |
| 20260905062905 | 80 | 42 | 2.6 | 5.2 | 0.00 | 0.06 | 0.00 | 1 | 1014.1 |
| 20260905062804 | 80 | 42 | 2.6 | 5.2 | 0.00 | 0.06 | 0.00 | 1 | 1014.1 |
| 20260905062704 | 80 | 42 | 2.6 | 5.2 | 0.00 | 0.06 | 0.00 | 1 | 1014.1 |
| 20260905062625 | 80 | 42 | 2.6 | 5.2 | 0.00 | 0.06 | 0.00 | 1 | 1014.1 |
| 20260905062504 | 80 | 41 | 2.6 | 6.1 | 0.00 | 0.06 | 0.00 | 1 | 1014.1 |
| 20260905062404 | 80 | 40 | 2.6 | 6.1 | 0.00 | 0.06 | 0.00 | 1 | 1014.2 |
| 20260905062325 | 80 | 40 | 2.6 | 6.1 | 0.00 | 0.06 | 0.00 | 1 | 1014.1 |
| 20260905062204 | 80 | 40 | 2.6 | 6.1 | 0.00 | 0.06 | 0.00 | 1 | 1014.2 |
| 20260905062104 | 80 | 40 | 2.6 | 6.1 | 0.00 | 0.06 | 0.00 | 1 | 1014.2 |
| 20260905062004 | 80 | 40 | 2.6 | 6.1 | 0.00 | 0.06 | 0.00 | 1 | 1014.2 |
| 20260905061904 | 80 | 39 | 2.6 | 6.1 | 0.00 | 0.06 | 0.00 | 1 | 1014.2 |
| 20260905061804 | 80 | 38 | 2.6 | 6.1 | 0.00 | 0.06 | 0.00 | 1 | 1014.2 |
| 20260905061704 | 80 | 38 | 1.7 | 6.1 | 0.00 | 0.06 | 0.00 | 1 | 1014.2 |
| 20260905061604 | 80 | 37 | 1.7 | 6.1 | 0.00 | 0.06 | 0.00 | 1 | 1014.1 |
| 20260905061525 | 80 | 37 | 1.7 | 5.2 | 0.00 | 0.06 | 0.00 | 1 | 1014.2 |
| 20260905061425 | 80 | 36 | 1.7 | 4.3 | 0.00 | 0.06 | 0.00 | 1 | 1014.2 |
| 20260905061325 | 80 | 35 | 1.7 | 4.3 | 0.00 | 0.06 | 0.00 | 1 | 1014.2 |
| 20260905061204 | 80 | 34 | 1.7 | 4.3 | 0.00 | 0.06 | 0.00 | 1 | 1014.2 |
| 20260905061104 | 80 | 33 | 1.7 | 4.3 | 0.00 | 0.06 | 0.00 | 1 | 1014.2 |
| 20260905061004 | 80 | 32 | 1.7 | 4.3 | 0.00 | 0.06 | 0.00 | 1 | 1014.2 |
| 20260905060904 | 80 | 32 | 1.7 | 4.3 | 0.00 | 0.06 | 0.00 | 1 | 1014.3 |
| 20260905060804 | 80 | 31 | 1.7 | 5.2 | 0.00 | 0.06 | 0.00 | 1 | 1014.3 |
| 20260905060704 | 80 | 31 | 1.7 | 5.2 | 0.00 | 0.06 | 0.00 | 1 | 1014.3 |
| 20260905060604 | 80 | 30 | 1.7 | 5.2 | 0.00 | 0.06 | 0.00 | 1 | 1014.3 |
| 20260905060504 | 80 | 30 | 0.9 | 5.2 | 0.00 | 0.06 | 0.00 | 1 | 1014.3 |
| 20260905060404 | 80 | 29 | 1.7 | 5.2 | 0.00 | 0.06 | 0.00 | 1 | 1014.3 |
| 20260905060304 | 80 | 29 | 1.7 | 5.2 | 0.00 | 0.06 | 0.00 | 1 | 1014.3 |
| 20260905060225 | 81 | 29 | 1.7 | 5.2 | 0.00 | 0.06 | 0.00 | 1 | 1014.3 |
| 20260905060104 | 81 | 29 | 1.7 | 5.2 | 0.00 | 0.06 | 0.00 | 1 | 1014.3 |
| 20260905060004 | 81 | 29 | 1.7 | 5.2 | 0.00 | 0.06 | 0.00 | 1 | 1014.3 |
| 20260905055904 | 81 | 27 | 1.7 | 5.2 | 0.00 | 0.06 | 0.00 | 1 | 1014.3 |
| 20260905055804 | 81 | 23 | 1.7 | 4.3 | 0.00 | 0.06 | 0.00 | 1 | 1014.3 |
| 20260905055704 | 81 | 16 | 1.7 | 4.3 | 0.00 | 0.06 | 0.00 | 1 | 1014.3 |
| 20260905055604 | 81 | 13 | 1.7 | 4.3 | 0.00 | 0.06 | 0.00 | 1 | 1014.3 |
| 20260905055504 | 81 | 3 | 1.7 | 4.3 | 0.00 | 0.06 | 0.00 | 1 | 1014.3 |
| 20260905055404 | 81 | 354 | 1.7 | 4.3 | 0.00 | 0.06 | 0.00 | 1 | 1014.3 |
| 20260905055306 | 81 | 342 | 1.7 | 4.3 | 0.00 | 0.06 | 0.00 | 1 | 1014.3 |
| 20260905055204 | 81 | 331 | 1.7 | 4.3 | 0.00 | 0.06 | 0.00 | 1 | 1014.2 |
| 20260905055104 | 81 | 320 | 1.7 | 4.3 | 0.00 | 0.06 | 0.00 | 1 | 1014.3 |
| 20260905055025 | 81 | 314 | 1.7 | 4.3 | 0.00 | 0.06 | 0.00 | 1 | 1014.3 |
| 20260905054925 | 81 | 305 | 1.7 | 3.5 | 0.00 | 0.06 | 0.00 | 1 | 1014.3 |
| 20260905054804 | 81 | 304 | 1.7 | 3.5 | 0.00 | 0.06 | 0.00 | 1 | 1014.3 |
| 20260905054704 | 81 | 303 | 1.7 | 3.5 | 0.00 | 0.06 | 0.00 | 1 | 1014.3 |
| 20260905054604 | 81 | 303 | 1.7 | 3.5 | 0.00 | 0.06 | 0.00 | 1 | 1014.3 |
| 20260905054525 | 81 | 302 | 1.7 | 3.5 | 0.00 | 0.06 | 0.00 | 1 | 1014.3 |
| 20260905054404 | 81 | 302 | 1.7 | 3.5 | 0.00 | 0.06 | 0.00 | 1 | 1014.3 |
| 20260905054304 | 81 | 301 | 1.7 | 3.5 | 0.00 | 0.06 | 0.00 | 1 | 1014.3 |
| 20260905054225 | 81 | 301 | 1.7 | 2.6 | 0.00 | 0.06 | 0.00 | 1 | 1014.3 |
| 20260905054106 | 81 | 301 | 1.7 | 2.6 | 0.00 | 0.06 | 0.00 | 1 | 1014.3 |
| 20260905054004 | 81 | 301 | 0.9 | 3.5 | 0.00 | 0.06 | 0.00 | 1 | 1014.3 |
| 20260905053904 | 81 | 301 | 0.9 | 3.5 | 0.00 | 0.06 | 0.00 | 1 | 1014.2 |
| 20260905053804 | 81 | 301 | 0.9 | 3.5 | 0.00 | 0.06 | 0.00 | 1 | 1014.2 |
| 20260905053704 | 81 | 301 | 0.9 | 3.5 | 0.00 | 0.06 | 0.00 | 1 | 1014.3 |
| 20260905053604 | 81 | 300 | 0.9 | 3.5 | 0.00 | 0.06 | 0.00 | 1 | 1014.2 |
| 20260905053525 | 81 | 300 | 0.9 | 3.5 | 0.00 | 0.06 | 0.00 | 1 | 1014.3 |
| 20260905053404 | 81 | 300 | 0.9 | 3.5 | 0.00 | 0.06 | 0.00 | 1 | 1014.3 |
| 20260905053304 | 81 | 300 | 0.9 | 3.5 | 0.00 | 0.06 | 0.00 | 1 | 1014.3 |
| 20260905053204 | 81 | 300 | 0.9 | 3.5 | 0.00 | 0.06 | 0.00 | 1 | 1014.3 |
| 20260905053104 | 81 | 300 | 0.9 | 3.5 | 0.00 | 0.06 | 0.00 | 1 | 1014.3 |
| 20260905053004 | 81 | 299 | 0.9 | 3.5 | 0.00 | 0.06 | 0.00 | 1 | 1014.3 |
| 20260905052925 | 81 | 299 | 0.9 | 3.5 | 0.00 | 0.06 | 0.00 | 1 | 1014.3 |
| 20260905052827 | 81 | 299 | 0.9 | 3.5 | 0.00 | 0.06 | 0.00 | 1 | 1014.3 |
| 20260905052704 | 81 | 299 | 0.9 | 3.5 | 0.00 | 0.06 | 0.00 | 1 | 1014.3 |
| 20260905052604 | 81 | 299 | 0.9 | 3.5 | 0.00 | 0.06 | 0.00 | 1 | 1014.3 |
| 20260905052527 | 81 | 299 | 0.9 | 3.5 | 0.00 | 0.06 | 0.00 | 1 | 1014.3 |
| 20260905052404 | 81 | 298 | 1.7 | 3.5 | 0.00 | 0.06 | 0.00 | 1 | 1014.3 |
| 20260905052306 | 81 | 298 | 1.7 | 3.5 | 0.00 | 0.06 | 0.00 | 1 | 1014.4 |
| 20260905052204 | 81 | 298 | 1.7 | 3.5 | 0.00 | 0.06 | 0.00 | 1 | 1014.4 |
| 20260905052104 | 81 | 298 | 1.7 | 3.5 | 0.00 | 0.06 | 0.00 | 1 | 1014.4 |
| 20260905052004 | 81 | 298 | 1.7 | 3.5 | 0.00 | 0.06 | 0.00 | 1 | 1014.4 |
| 20260905051925 | 81 | 298 | 1.7 | 3.5 | 0.00 | 0.06 | 0.00 | 1 | 1014.4 |
| 20260905051804 | 81 | 298 | 1.7 | 3.5 | 0.00 | 0.06 | 0.00 | 1 | 1014.3 |
| 20260905051704 | 81 | 298 | 1.7 | 3.5 | 0.00 | 0.06 | 0.00 | 1 | 1014.4 |
| 20260905051625 | 81 | 298 | 1.7 | 3.5 | 0.00 | 0.06 | 0.00 | 1 | 1014.3 |
| 20260905051504 | 81 | 298 | 1.7 | 3.5 | 0.00 | 0.06 | 0.00 | 1 | 1014.3 |
| 20260905051406 | 81 | 298 | 1.7 | 3.5 | 0.00 | 0.06 | 0.00 | 1 | 1014.4 |
| 20260905051304 | 81 | 298 | 1.7 | 3.5 | 0.00 | 0.06 | 0.00 | 1 | 1014.3 |
| 20260905051225 | 81 | 298 | 1.7 | 3.5 | 0.00 | 0.06 | 0.00 | 1 | 1014.4 |
| 20260905051104 | 81 | 298 | 0.9 | 2.6 | 0.00 | 0.06 | 0.00 | 1 | 1014.4 |
| 20260905051004 | 81 | 298 | 0.9 | 2.6 | 0.00 | 0.06 | 0.00 | 1 | 1014.4 |
| 20260905050904 | 81 | 298 | 0.9 | 2.6 | 0.00 | 0.06 | 0.00 | 1 | 1014.4 |
| 20260905050804 | 81 | 298 | 0.9 | 2.6 | 0.00 | 0.06 | 0.00 | 1 | 1014.4 |
| 20260905050704 | 82 | 297 | 1.7 | 3.5 | 0.00 | 0.06 | 0.00 | 1 | 1014.4 |
| 20260905050604 | 82 | 297 | 1.7 | 3.5 | 0.00 | 0.06 | 0.00 | 1 | 1014.4 |
| 20260905050525 | 82 | 297 | 0.9 | 3.5 | 0.00 | 0.06 | 0.00 | 1 | 1014.4 |
| 20260905050404 | 82 | 297 | 0.9 | 3.5 | 0.00 | 0.06 | 0.00 | 1 | 1014.4 |
| 20260905050304 | 82 | 297 | 0.9 | 3.5 | 0.00 | 0.06 | 0.00 | 1 | 1014.4 |
| 20260905050204 | 82 | 298 | 1.7 | 3.5 | 0.00 | 0.06 | 0.00 | 1 | 1014.4 |
| 20260905050104 | 82 | 298 | 1.7 | 3.5 | 0.00 | 0.06 | 0.00 | 1 | 1014.4 |
| 20260905050004 | 82 | 299 | 1.7 | 3.5 | 0.00 | 0.06 | 0.00 | 1 | 1014.3 |
| 20260905045904 | 82 | 299 | 1.7 | 4.3 | 0.00 | 0.06 | 0.06 | 1 | 1014.4 |
| 20260905045804 | 82 | 299 | 1.7 | 4.3 | 0.00 | 0.06 | 0.06 | 1 | 1014.3 |
| 20260905045704 | 82 | 299 | 1.7 | 4.3 | 0.00 | 0.06 | 0.06 | 1 | 1014.3 |
| 20260905045604 | 82 | 298 | 1.7 | 4.3 | 0.00 | 0.06 | 0.06 | 1 | 1014.3 |
| 20260905045504 | 82 | 298 | 1.7 | 4.3 | 0.00 | 0.06 | 0.06 | 1 | 1014.3 |
| 20260905045404 | 82 | 298 | 1.7 | 4.3 | 0.00 | 0.06 | 0.06 | 1 | 1014.3 |
| 20260905045305 | 82 | 298 | 1.7 | 4.3 | 0.00 | 0.06 | 0.06 | 1 | 1014.3 |
| 20260905045225 | 82 | 298 | 1.7 | 4.3 | 0.00 | 0.06 | 0.06 | 1 | 1014.3 |
| 20260905045125 | 82 | 297 | 1.7 | 4.3 | 0.00 | 0.06 | 0.06 | 1 | 1014.3 |
| 20260905045004 | 82 | 297 | 1.7 | 4.3 | 0.00 | 0.06 | 0.06 | 1 | 1014.3 |
| 20260905044925 | 82 | 296 | 1.7 | 3.5 | 0.00 | 0.06 | 0.06 | 1 | 1014.3 |
| 20260905044804 | 82 | 296 | 1.7 | 3.5 | 0.00 | 0.06 | 0.06 | 1 | 1014.3 |
| 20260905044725 | 82 | 296 | 1.7 | 3.5 | 0.00 | 0.06 | 0.06 | 1 | 1014.3 |
| 20260905044604 | 82 | 296 | 1.7 | 3.5 | 0.00 | 0.06 | 0.06 | 1 | 1014.3 |
| 20260905044525 | 82 | 296 | 1.7 | 3.5 | 0.00 | 0.06 | 0.06 | 1 | 1014.3 |
| 20260905044404 | 82 | 296 | 1.7 | 3.5 | 0.00 | 0.06 | 0.06 | 1 | 1014.3 |
| 20260905044304 | 82 | 296 | 1.7 | 3.5 | 0.00 | 0.06 | 0.06 | 1 | 1014.3 |
| 20260905044204 | 82 | 296 | 1.7 | 3.5 | 0.00 | 0.06 | 0.06 | 1 | 1014.3 |
| 20260905044104 | 82 | 296 | 1.7 | 3.5 | 0.00 | 0.06 | 0.06 | 1 | 1014.3 |
| 20260905044004 | 82 | 296 | 1.7 | 4.3 | 0.00 | 0.06 | 0.06 | 1 | 1014.3 |
| 20260905043904 | 82 | 296 | 1.7 | 4.3 | 0.00 | 0.06 | 0.06 | 1 | 1014.4 |
| 20260905043804 | 82 | 295 | 1.7 | 4.3 | 0.00 | 0.06 | 0.06 | 1 | 1014.4 |
| 20260905043704 | 82 | 295 | 1.7 | 4.3 | 0.00 | 0.06 | 0.06 | 1 | 1014.4 |
| 20260905043604 | 82 | 295 | 1.7 | 4.3 | 0.00 | 0.06 | 0.06 | 1 | 1014.3 |
| 20260905043504 | 82 | 295 | 1.7 | 4.3 | 0.00 | 0.06 | 0.06 | 1 | 1014.4 |
| 20260905043404 | 82 | 295 | 1.7 | 4.3 | 0.00 | 0.06 | 0.06 | 1 | 1014.3 |
| 20260905043325 | 82 | 296 | 1.7 | 4.3 | 0.00 | 0.06 | 0.06 | 1 | 1014.3 |
| 20260905043204 | 82 | 296 | 1.7 | 4.3 | 0.00 | 0.06 | 0.06 | 1 | 1014.3 |
| 20260905043104 | 82 | 297 | 1.7 | 4.3 | 0.00 | 0.06 | 0.06 | 1 | 1014.3 |
| 20260905043004 | 82 | 297 | 1.7 | 4.3 | 0.00 | 0.06 | 0.06 | 1 | 1014.3 |
| 20260905042904 | 82 | 297 | 1.7 | 5.2 | 0.00 | 0.06 | 0.06 | 1 | 1014.3 |
| 20260905042804 | 82 | 297 | 1.7 | 5.2 | 0.00 | 0.06 | 0.06 | 1 | 1014.3 |
| 20260905042704 | 82 | 297 | 1.7 | 5.2 | 0.00 | 0.06 | 0.06 | 1 | 1014.3 |
| 20260905042625 | 82 | 297 | 1.7 | 5.2 | 0.00 | 0.06 | 0.06 | 1 | 1014.4 |
| 20260905042504 | 82 | 296 | 1.7 | 5.2 | 0.00 | 0.06 | 0.06 | 1 | 1014.4 |
| 20260905042404 | 82 | 296 | 1.7 | 5.2 | 0.00 | 0.06 | 0.06 | 1 | 1014.4 |
| 20260905042307 | 82 | 295 | 1.7 | 5.2 | 0.00 | 0.06 | 0.06 | 1 | 1014.3 |
| 20260905042225 | 82 | 295 | 0.9 | 5.2 | 0.00 | 0.06 | 0.06 | 1 | 1014.3 |
| 20260905042104 | 82 | 293 | 0.9 | 5.2 | 0.00 | 0.06 | 0.06 | 1 | 1014.3 |
| 20260905042004 | 82 | 292 | 0.9 | 5.2 | 0.00 | 0.06 | 0.06 | 1 | 1014.3 |
| 20260905041904 | 82 | 290 | 0.9 | 3.5 | 0.00 | 0.06 | 0.06 | 1 | 1014.4 |
| 20260905041804 | 82 | 290 | 0.9 | 3.5 | 0.00 | 0.06 | 0.06 | 1 | 1014.4 |
| 20260905041704 | 82 | 290 | 0.9 | 3.5 | 0.00 | 0.06 | 0.06 | 1 | 1014.4 |
| 20260905041604 | 82 | 290 | 0.9 | 3.5 | 0.00 | 0.06 | 0.06 | 1 | 1014.4 |
| 20260905041504 | 82 | 290 | 0.9 | 2.6 | 0.00 | 0.06 | 0.06 | 1 | 1014.4 |
| 20260905041404 | 82 | 290 | 0.9 | 2.6 | 0.00 | 0.06 | 0.06 | 1 | 1014.4 |
| 20260905041304 | 82 | 290 | 0.9 | 2.6 | 0.00 | 0.06 | 0.06 | 1 | 1014.4 |
| 20260905041225 | 82 | 290 | 0.9 | 2.6 | 0.00 | 0.06 | 0.06 | 1 | 1014.4 |
| 20260905041104 | 82 | 290 | 0.9 | 2.6 | 0.00 | 0.06 | 0.06 | 1 | 1014.4 |
| 20260905041004 | 82 | 290 | 0.9 | 1.7 | 0.00 | 0.06 | 0.06 | 1 | 1014.3 |
| 20260905040904 | 82 | 290 | 0.9 | 1.7 | 0.00 | 0.06 | 0.06 | 1 | 1014.3 |
| 20260905040804 | 82 | 290 | 0.9 | 2.6 | 0.00 | 0.06 | 0.06 | 1 | 1014.3 |
| 20260905040704 | 82 | 290 | 0.9 | 2.6 | 0.00 | 0.06 | 0.06 | 1 | 1014.3 |
| 20260905040604 | 82 | 290 | 0.9 | 2.6 | 0.00 | 0.06 | 0.06 | 1 | 1014.3 |
| 20260905040504 | 82 | 290 | 0.9 | 2.6 | 0.00 | 0.06 | 0.06 | 1 | 1014.2 |
| 20260905040404 | 82 | 290 | 0.9 | 2.6 | 0.00 | 0.06 | 0.06 | 1 | 1014.2 |
| 20260905040304 | 82 | 290 | 0.9 | 2.6 | 0.00 | 0.06 | 0.06 | 1 | 1014.2 |
| 20260905040204 | 82 | 290 | 0.9 | 2.6 | 0.00 | 0.06 | 0.06 | 1 | 1014.2 |
| 20260905040104 | 82 | 290 | 0.9 | 2.6 | 0.00 | 0.06 | 0.06 | 1 | 1014.2 |
| 20260905040004 | 82 | 290 | 0.9 | 2.6 | 0.00 | 0.06 | 0.06 | 1 | 1014.2 |
| 20260905035925 | 82 | 290 | 0.9 | 2.6 | 0.00 | 0.06 | 0.06 | 1 | 1014.2 |
| 20260905035825 | 82 | 290 | 0.9 | 1.7 | 0.00 | 0.06 | 0.06 | 1 | 1014.1 |
| 20260905035704 | 82 | 290 | 0.9 | 1.7 | 0.00 | 0.06 | 0.06 | 1 | 1014.2 |
| 20260905035604 | 82 | 290 | 0.9 | 1.7 | 0.00 | 0.06 | 0.06 | 1 | 1014.2 |
| 20260905035504 | 82 | 290 | 0.9 | 1.7 | 0.00 | 0.06 | 0.06 | 1 | 1014.2 |
| 20260905035404 | 82 | 290 | 0.9 | 1.7 | 0.00 | 0.06 | 0.06 | 1 | 1014.2 |
| 20260905035325 | 82 | 290 | 0.9 | 1.7 | 0.00 | 0.06 | 0.06 | 1 | 1014.2 |
| 20260905035204 | 82 | 290 | 0.9 | 1.7 | 0.00 | 0.06 | 0.06 | 1 | 1014.2 |
| 20260905035104 | 82 | 290 | 0.9 | 1.7 | 0.00 | 0.06 | 0.06 | 1 | 1014.2 |
| 20260905035025 | 82 | 290 | 0.9 | 1.7 | 0.00 | 0.06 | 0.06 | 1 | 1014.2 |
| 20260905034904 | 82 | 290 | 0.9 | 1.7 | 0.00 | 0.06 | 0.06 | 1 | 1014.3 |
| 20260905034804 | 82 | 290 | 0.9 | 1.7 | 0.00 | 0.06 | 0.06 | 1 | 1014.3 |
| 20260905034704 | 82 | 290 | 0.9 | 2.6 | 0.00 | 0.06 | 0.06 | 1 | 1014.3 |
| 20260905034625 | 82 | 290 | 0.9 | 2.6 | 0.00 | 0.06 | 0.06 | 1 | 1014.3 |
| 20260905034504 | 82 | 290 | 0.9 | 2.6 | 0.00 | 0.06 | 0.06 | 1 | 1014.3 |
| 20260905034404 | 82 | 291 | 0.9 | 2.6 | 0.00 | 0.06 | 0.06 | 1 | 1014.3 |
| 20260905034304 | 82 | 290 | 0.9 | 2.6 | 0.00 | 0.06 | 0.06 | 1 | 1014.3 |
| 20260905034204 | 82 | 290 | 0.9 | 2.6 | 0.00 | 0.06 | 0.06 | 1 | 1014.3 |
| 20260905034104 | 82 | 290 | 0.9 | 2.6 | 0.00 | 0.06 | 0.06 | 1 | 1014.2 |
| 20260905034004 | 82 | 290 | 0.9 | 2.6 | 0.00 | 0.06 | 0.06 | 1 | 1014.2 |
| 20260905033904 | 82 | 290 | 0.9 | 2.6 | 0.00 | 0.06 | 0.06 | 1 | 1014.3 |
| 20260905033804 | 82 | 290 | 0.9 | 2.6 | 0.00 | 0.06 | 0.06 | 1 | 1014.3 |
| 20260905033704 | 82 | 290 | 0.9 | 2.6 | 0.00 | 0.06 | 0.06 | 1 | 1014.3 |
| 20260905033604 | 82 | 290 | 0.9 | 2.6 | 0.00 | 0.06 | 0.06 | 1 | 1014.3 |
| 20260905033504 | 82 | 290 | 0.9 | 2.6 | 0.00 | 0.06 | 0.06 | 1 | 1014.3 |
| 20260905033425 | 82 | 290 | 0.0 | 2.6 | 0.00 | 0.06 | 0.06 | 1 | 1014.3 |
| 20260905033304 | 82 | 290 | 0.0 | 2.6 | 0.00 | 0.06 | 0.06 | 1 | 1014.3 |
| 20260905033204 | 82 | 290 | 0.0 | 2.6 | 0.00 | 0.06 | 0.06 | 1 | 1014.3 |
| 20260905033104 | 82 | 290 | 0.0 | 2.6 | 0.00 | 0.06 | 0.06 | 1 | 1014.3 |
| 20260905033025 | 82 | 290 | 0.0 | 1.7 | 0.00 | 0.06 | 0.06 | 1 | 1014.3 |
| 20260905032925 | 83 | 290 | 0.0 | 1.7 | 0.00 | 0.06 | 0.06 | 1 | 1014.2 |
| 20260905032804 | 83 | 290 | 0.0 | 0.9 | 0.00 | 0.06 | 0.06 | 1 | 1014.3 |
| 20260905032704 | 83 | 290 | 0.0 | 0.9 | 0.00 | 0.06 | 0.06 | 1 | 1014.2 |
| 20260905032604 | 83 | 290 | 0.0 | 2.6 | 0.00 | 0.06 | 0.06 | 1 | 1014.2 |
| 20260905032504 | 83 | 290 | 0.9 | 2.6 | 0.00 | 0.06 | 0.06 | 1 | 1014.1 |
| 20260905032425 | 83 | 290 | 0.9 | 2.6 | 0.00 | 0.06 | 0.06 | 1 | 1014.1 |
| 20260905032306 | 83 | 290 | 0.9 | 2.6 | 0.00 | 0.06 | 0.06 | 1 | 1014.1 |
| 20260905032204 | 83 | 290 | 0.9 | 2.6 | 0.00 | 0.06 | 0.06 | 1 | 1014.1 |
| 20260905032104 | 83 | 290 | 0.9 | 2.6 | 0.00 | 0.06 | 0.06 | 1 | 1014.1 |
| 20260905032004 | 83 | 290 | 0.9 | 3.5 | 0.00 | 0.06 | 0.06 | 1 | 1014.1 |
| 20260905031904 | 83 | 290 | 0.9 | 3.5 | 0.00 | 0.06 | 0.06 | 1 | 1014.1 |
| 20260905031804 | 83 | 290 | 0.9 | 3.5 | 0.00 | 0.06 | 0.06 | 1 | 1014.1 |
| 20260905031725 | 83 | 290 | 0.9 | 3.5 | 0.00 | 0.06 | 0.06 | 1 | 1014.1 |
| 20260905031604 | 83 | 290 | 0.9 | 3.5 | 0.00 | 0.06 | 0.06 | 1 | 1014.1 |
| 20260905031525 | 83 | 290 | 0.9 | 3.5 | 0.00 | 0.06 | 0.06 | 1 | 1014.1 |
| 20260905031404 | 83 | 290 | 0.9 | 3.5 | 0.00 | 0.06 | 0.06 | 1 | 1014.1 |
| 20260905031304 | 83 | 290 | 0.9 | 3.5 | 0.00 | 0.06 | 0.06 | 1 | 1014.1 |
| 20260905031225 | 83 | 290 | 0.9 | 3.5 | 0.00 | 0.06 | 0.06 | 1 | 1014.1 |
| 20260905031104 | 83 | 290 | 0.9 | 3.5 | 0.00 | 0.06 | 0.06 | 1 | 1014.1 |
| 20260905031025 | 83 | 290 | 0.9 | 3.5 | 0.00 | 0.06 | 0.06 | 1 | 1014.1 |
| 20260905030904 | 83 | 290 | 0.9 | 2.6 | 0.00 | 0.06 | 0.06 | 1 | 1014.1 |
| 20260905030804 | 83 | 290 | 0.9 | 2.6 | 0.00 | 0.06 | 0.06 | 1 | 1014.1 |
| 20260905030725 | 83 | 290 | 0.9 | 2.6 | 0.00 | 0.06 | 0.06 | 1 | 1014.1 |
| 20260905030604 | 83 | 290 | 0.9 | 2.6 | 0.00 | 0.06 | 0.06 | 1 | 1014.1 |
| 20260905030504 | 83 | 290 | 0.9 | 2.6 | 0.00 | 0.06 | 0.06 | 1 | 1014.1 |
| 20260905030404 | 83 | 290 | 0.9 | 1.7 | 0.00 | 0.06 | 0.06 | 1 | 1014.1 |
| 20260905030304 | 83 | 290 | 0.9 | 1.7 | 0.00 | 0.06 | 0.06 | 1 | 1014.1 |
| 20260905030204 | 83 | 290 | 0.9 | 1.7 | 0.00 | 0.06 | 0.06 | 1 | 1014.1 |
| 20260905030104 | 83 | 290 | 0.9 | 1.7 | 0.00 | 0.06 | 0.06 | 1 | 1014.1 |
| 20260905030004 | 83 | 290 | 0.0 | 1.7 | 0.00 | 0.06 | 0.06 | 1 | 1014.1 |
| 20260905025904 | 83 | 290 | 0.0 | 1.7 | 0.00 | 0.06 | 0.06 | 1 | 1014.1 |
| 20260905025804 | 83 | 290 | 0.0 | 1.7 | 0.00 | 0.06 | 0.06 | 1 | 1014.1 |
| 20260905025704 | 83 | 290 | 0.0 | 1.7 | 0.00 | 0.06 | 0.06 | 1 | 1014.1 |
| 20260905025604 | 83 | 290 | 0.0 | 1.7 | 0.00 | 0.06 | 0.06 | 1 | 1014.0 |
| 20260905025504 | 83 | 290 | 0.0 | 1.7 | 0.00 | 0.06 | 0.06 | 1 | 1014.0 |
| 20260905025404 | 83 | 290 | 0.0 | 1.7 | 0.00 | 0.06 | 0.06 | 1 | 1014.0 |
| 20260905025306 | 83 | 290 | 0.0 | 1.7 | 0.00 | 0.06 | 0.06 | 1 | 1014.0 |
| 20260905025204 | 83 | 290 | 0.0 | 1.7 | 0.00 | 0.06 | 0.06 | 1 | 1014.0 |
| 20260905025104 | 83 | 290 | 0.0 | 1.7 | 0.00 | 0.06 | 0.06 | 1 | 1014.0 |
| 20260905025004 | 83 | 290 | 0.0 | 0.9 | 0.00 | 0.06 | 0.06 | 1 | 1014.0 |
| 20260905024904 | 84 | 290 | 0.0 | 0.9 | 0.00 | 0.06 | 0.06 | 1 | 1014.0 |
| 20260905024804 | 84 | 290 | 0.0 | 0.9 | 0.00 | 0.06 | 0.06 | 1 | 1014.0 |
| 20260905024704 | 84 | 290 | 0.0 | 0.9 | 0.00 | 0.06 | 0.06 | 1 | 1014.0 |
| 20260905024625 | 84 | 290 | 0.0 | 0.9 | 0.00 | 0.06 | 0.06 | 1 | 1014.0 |
| 20260905024504 | 84 | 290 | 0.0 | 0.9 | 0.00 | 0.06 | 0.06 | 1 | 1014.0 |
| 20260905024404 | 84 | 290 | 0.0 | 1.7 | 0.00 | 0.06 | 0.06 | 1 | 1014.0 |
| 20260905024304 | 84 | 290 | 0.0 | 1.7 | 0.00 | 0.06 | 0.06 | 1 | 1013.9 |
| 20260905024204 | 84 | 290 | 0.0 | 1.7 | 0.00 | 0.06 | 0.06 | 1 | 1013.9 |
| 20260905024104 | 84 | 290 | 0.0 | 1.7 | 0.00 | 0.06 | 0.06 | 1 | 1013.9 |
| 20260905024025 | 84 | 290 | 0.0 | 1.7 | 0.00 | 0.06 | 0.06 | 1 | 1013.9 |
| 20260905023925 | 84 | 290 | 0.0 | 1.7 | 0.00 | 0.06 | 0.06 | 1 | 1013.9 |
| 20260905023804 | 84 | 290 | 0.0 | 1.7 | 0.00 | 0.06 | 0.06 | 1 | 1013.9 |
| 20260905023704 | 84 | 290 | 0.9 | 1.7 | 0.00 | 0.06 | 0.06 | 1 | 1013.9 |
| 20260905023604 | 84 | 290 | 0.9 | 1.7 | 0.00 | 0.06 | 0.06 | 1 | 1013.9 |
| 20260905023504 | 84 | 290 | 0.9 | 1.7 | 0.00 | 0.06 | 0.06 | 1 | 1013.9 |
| 20260905023425 | 84 | 290 | 0.9 | 1.7 | 0.00 | 0.06 | 0.06 | 1 | 1013.8 |
| 20260905023304 | 84 | 290 | 0.9 | 2.6 | 0.00 | 0.06 | 0.06 | 1 | 1013.8 |
| 20260905023225 | 84 | 290 | 0.9 | 2.6 | 0.00 | 0.06 | 0.06 | 1 | 1013.8 |
| 20260905023104 | 84 | 290 | 0.9 | 2.6 | 0.00 | 0.06 | 0.06 | 1 | 1013.7 |
| 20260905023004 | 84 | 290 | 0.9 | 2.6 | 0.00 | 0.06 | 0.06 | 1 | 1013.7 |
| 20260905022925 | 84 | 290 | 0.9 | 2.6 | 0.00 | 0.06 | 0.06 | 1 | 1013.6 |
| 20260905022804 | 84 | 290 | 0.9 | 2.6 | 0.00 | 0.06 | 0.06 | 1 | 1013.7 |
| 20260905022704 | 84 | 290 | 0.9 | 2.6 | 0.00 | 0.06 | 0.06 | 1 | 1013.7 |
| 20260905022604 | 84 | 290 | 0.9 | 2.6 | 0.00 | 0.06 | 0.06 | 1 | 1013.7 |
| 20260905022504 | 84 | 290 | 0.9 | 2.6 | 0.00 | 0.06 | 0.06 | 1 | 1013.7 |
| 20260905022404 | 84 | 290 | 0.9 | 2.6 | 0.00 | 0.06 | 0.06 | 1 | 1013.6 |
| 20260905022306 | 84 | 291 | 0.9 | 2.6 | 0.00 | 0.06 | 0.06 | 1 | 1013.7 |
| 20260905022204 | 84 | 290 | 0.9 | 2.6 | 0.00 | 0.06 | 0.06 | 1 | 1013.6 |
| 20260905022125 | 84 | 290 | 0.9 | 2.6 | 0.00 | 0.06 | 0.06 | 1 | 1013.6 |
| 20260905022025 | 84 | 290 | 0.9 | 2.6 | 0.00 | 0.06 | 0.06 | 1 | 1013.6 |
| 20260905021904 | 84 | 290 | 0.9 | 1.7 | 0.00 | 0.06 | 0.06 | 1 | 1013.6 |
| 20260905021804 | 84 | 290 | 0.9 | 1.7 | 0.00 | 0.06 | 0.06 | 1 | 1013.5 |
| 20260905021704 | 84 | 290 | 0.9 | 1.7 | 0.00 | 0.06 | 0.06 | 1 | 1013.6 |
| 20260905021604 | 84 | 290 | 0.9 | 1.7 | 0.00 | 0.06 | 0.06 | 1 | 1013.6 |
| 20260905021504 | 84 | 290 | 0.9 | 1.7 | 0.00 | 0.06 | 0.06 | 1 | 1013.6 |
| 20260905021404 | 84 | 290 | 0.9 | 1.7 | 0.00 | 0.06 | 0.06 | 1 | 1013.6 |
| 20260905021304 | 84 | 290 | 0.9 | 1.7 | 0.00 | 0.06 | 0.06 | 1 | 1013.6 |
| 20260905021204 | 84 | 290 | 0.9 | 1.7 | 0.00 | 0.06 | 0.06 | 1 | 1013.6 |
| 20260905021104 | 84 | 290 | 0.9 | 1.7 | 0.00 | 0.06 | 0.06 | 1 | 1013.6 |
| 20260905021004 | 84 | 290 | 0.9 | 1.7 | 0.00 | 0.06 | 0.06 | 1 | 1013.6 |
| 20260905020904 | 84 | 291 | 0.9 | 1.7 | 0.00 | 0.06 | 0.06 | 1 | 1013.6 |
| 20260905020804 | 84 | 291 | 0.9 | 1.7 | 0.00 | 0.06 | 0.06 | 1 | 1013.6 |
| 20260905020704 | 84 | 291 | 0.9 | 1.7 | 0.00 | 0.06 | 0.06 | 1 | 1013.6 |
| 20260905020625 | 84 | 291 | 0.9 | 1.7 | 0.00 | 0.06 | 0.06 | 1 | 1013.6 |
| 20260905020504 | 84 | 291 | 0.9 | 2.6 | 0.00 | 0.06 | 0.06 | 1 | 1013.5 |
| 20260905020406 | 84 | 291 | 0.9 | 2.6 | 0.00 | 0.06 | 0.06 | 1 | 1013.5 |
| 20260905020304 | 84 | 291 | 0.9 | 2.6 | 0.00 | 0.06 | 0.06 | 1 | 1013.5 |
| 20260905020204 | 84 | 291 | 0.9 | 2.6 | 0.00 | 0.06 | 0.06 | 1 | 1013.5 |
| 20260905020104 | 84 | 291 | 0.9 | 2.6 | 0.00 | 0.06 | 0.06 | 1 | 1013.5 |
| 20260905020025 | 84 | 291 | 0.9 | 2.6 | 0.00 | 0.06 | 0.06 | 1 | 1013.5 |
| 20260905015904 | 84 | 291 | 0.9 | 2.6 | 0.00 | 0.06 | 0.06 | 1 | 1013.5 |
| 20260905015804 | 84 | 290 | 0.9 | 2.6 | 0.00 | 0.06 | 0.06 | 1 | 1013.4 |
| 20260905015704 | 84 | 290 | 0.9 | 2.6 | 0.00 | 0.06 | 0.06 | 1 | 1013.4 |
| 20260905015625 | 84 | 290 | 0.9 | 2.6 | 0.00 | 0.06 | 0.06 | 1 | 1013.4 |
| 20260905015504 | 84 | 290 | 0.9 | 1.7 | 0.00 | 0.06 | 0.06 | 1 | 1013.4 |
| 20260905015425 | 84 | 290 | 0.9 | 2.6 | 0.00 | 0.06 | 0.06 | 1 | 1013.4 |
| 20260905015306 | 85 | 291 | 0.9 | 2.6 | 0.00 | 0.06 | 0.06 | 1 | 1013.4 |
| 20260905015204 | 85 | 291 | 0.9 | 2.6 | 0.00 | 0.06 | 0.06 | 1 | 1013.4 |
| 20260905015125 | 85 | 291 | 0.9 | 2.6 | 0.00 | 0.06 | 0.06 | 1 | 1013.4 |
| 20260905015004 | 85 | 291 | 0.9 | 3.5 | 0.00 | 0.06 | 0.06 | 1 | 1013.4 |
| 20260905014925 | 85 | 291 | 0.9 | 3.5 | 0.00 | 0.06 | 0.06 | 1 | 1013.3 |
| 20260905014804 | 85 | 291 | 0.9 | 3.5 | 0.00 | 0.06 | 0.06 | 1 | 1013.3 |
| 20260905014704 | 85 | 291 | 0.9 | 3.5 | 0.00 | 0.06 | 0.06 | 1 | 1013.3 |
| 20260905014604 | 85 | 291 | 0.9 | 3.5 | 0.00 | 0.06 | 0.06 | 1 | 1013.3 |
| 20260905014525 | 85 | 291 | 0.9 | 3.5 | 0.00 | 0.06 | 0.06 | 1 | 1013.3 |
| 20260905014404 | 85 | 291 | 0.9 | 3.5 | 0.00 | 0.06 | 0.06 | 1 | 1013.3 |
| 20260905014325 | 85 | 291 | 0.9 | 3.5 | 0.00 | 0.06 | 0.06 | 1 | 1013.3 |
| 20260905014204 | 85 | 291 | 0.9 | 3.5 | 0.00 | 0.06 | 0.06 | 1 | 1013.3 |
| 20260905014104 | 85 | 291 | 0.9 | 3.5 | 0.00 | 0.06 | 0.06 | 1 | 1013.3 |
| 20260905014004 | 85 | 291 | 0.9 | 2.6 | 0.00 | 0.06 | 0.06 | 1 | 1013.3 |
| 20260905013904 | 85 | 291 | 0.9 | 2.6 | 0.00 | 0.06 | 0.06 | 1 | 1013.3 |
| 20260905013825 | 85 | 291 | 0.9 | 2.6 | 0.00 | 0.06 | 0.06 | 1 | 1013.3 |
| 20260905013704 | 85 | 290 | 0.9 | 2.6 | 0.00 | 0.06 | 0.06 | 1 | 1013.3 |
| 20260905013604 | 85 | 290 | 0.9 | 2.6 | 0.00 | 0.06 | 0.06 | 1 | 1013.3 |
| 20260905013525 | 85 | 291 | 0.0 | 2.6 | 0.00 | 0.06 | 0.06 | 1 | 1013.3 |
| 20260905013404 | 85 | 291 | 0.0 | 1.7 | 0.00 | 0.06 | 0.06 | 1 | 1013.3 |
| 20260905013304 | 85 | 290 | 0.0 | 2.6 | 0.00 | 0.06 | 0.06 | 1 | 1013.2 |
| 20260905013204 | 85 | 290 | 0.0 | 2.6 | 0.00 | 0.06 | 0.06 | 1 | 1013.2 |